     2              OBSERVATION DATA    GPS                 RINEX VERSION / TYPE
teqc 2000Feb29 Duncan Agnew 20000517 23:40:13UTC            PGM / RUN BY / DATE
                                                            COMMENT
L2: 1 -> 1; 5 -> 5; 60 -> 9                                 COMMENT
L2: 1 -> 1; 5 -> 5; 60 -> 9                                 COMMENT
L2: 1 -> 1; 5 -> 5; 60 -> 9                                 COMMENT
L2: 1 -> 1; 5 -> 5; 60 -> 9                                 COMMENT
L2: 1 -> 1; 5 -> 5; 60 -> 9                                 COMMENT
Original Marker Name: FRIN                                  COMMENT
Campaign Name: Post Hector                                  COMMENT
4-Character Station Name: FRIN                              COMMENT
6-Character Antenna Code: TRMCMP                            COMMENT
Vertical Measurement Point: BPA                             COMMENT
Vertical Offset to Rinex Ref. Point: 0.0000                 COMMENT
Radial Measurement Point: RRP                               COMMENT
Radial Offset to Rinex Ref. Point: 0.0000                   COMMENT
Antenna Height from Field Measurement: 1.8900 m             COMMENT
Additional Antenna Identification Info.:                    COMMENT
Model 22020.00+GP                                           COMMENT
Original XYZ: -2308058.9373 -4807170.1610 3487371.3576      COMMENT
New XYZ position is based on association with SCEC monument COMMENT
E1D0J4A3+0011. Position of that monument is believed to be  COMMENT
valid to within 1 m horizontally; vertical accuracy         COMMENT
should be no worse than 3-times this value.                 COMMENT
                                                            COMMENT
Revised Rinex header created by UCSD GPS archive for        COMMENT
GSAC on 16-Jun-2000 (2000:168) 00:07:34 GMT                 COMMENT
For assistance contact dagnew@ucsd.edu                      COMMENT
or anderson@python.ucsd.edu                                 COMMENT
                                                            COMMENT
FRINK                                                       MARKER NAME
FRIN                                                        MARKER NUMBER
-Unknown- CALIF DEPT TRANSPORTATION                         OBSERVER / AGENCY
1509 TRIMBLE 4000 SSI NP 7.29; SP 3.07                      REC # / TYPE / VERS
64131 TR GEOD L1/L2 GP                                      ANT # / TYPE
 -2308055.8487 -4807160.0486  3487357.1962                  APPROX POSITION XYZ
        1.8900        0.0000        0.0000                  ANTENNA: DELTA H/E/N
     1     1     0                                          WAVELENGTH FACT L1/2
     7    C1    L1    L2    P1    P2    S1    S2            # / TYPES OF OBSERV
     0                                                      INTERVAL
  2000     5     1    18    49   45.000000                  TIME OF FIRST OBS
  2000     5     2     0    30   15.000000                  TIME OF LAST OBS
                                                            END OF HEADER
 00  5  1 18 49 45.0000000  0  7G 4G 5G 6G 9G10G24G30
  22630311.8524      46929.43356     36568.32856                  22630321.4654
        18.2504         15.7504
  20334948.1414      -2522.22257     -1965.89357                  20334956.4064
        27.0004         25.7504
  24167535.4304     -22929.69655
         9.5004
  23556437.9614      45128.92756     35164.48256                  23556455.1564
        13.2504         12.7504
  22155994.1254     -28672.93357
        20.0004
  20456135.7814      22937.22358      8266.69657                  20456143.9774
        28.2504         25.7504
  22203820.2424     -29426.01357    -22929.91456                  22203829.8674
        23.2504         20.2504
 00  5  1 18 50  0.0000000  0  7G 4G 5G 6G 9G10G24G30
  22640654.3834     101280.17046     78919.53846                  22640664.1024
        18.0004         15.7504
  20334449.3754      -5144.20448     -4009.00347                  20334457.6294
        28.0004         25.7504
  24162533.5234     -49214.60145
         9.7504
  23566383.6414      97393.46446     75889.90946                  23566401.1764
        12.7504         12.2504
  22149745.8594     -61508.22946    -15325.28656                  22149758.5554
        19.7504         18.7504
  20461221.3364      49662.43748     29091.51346                  20461229.4614
        28.2504         25.5004
  22197405.8054     -63134.28647    -49196.06546                  22197415.2544
        23.0004         20.2504
 00  5  1 18 50 15.0000000  0  7G 4G 5G 6G 9G10G24G30
  22651036.6174     155838.41346    121432.41146                  22651046.4534
        18.5004         15.7504
  20334006.8674      -7467.26348     -5819.18146                  20334015.1804
        28.0004         25.5004
  24157564.4534     -75326.74445
        10.0004
  23576367.2734     149855.37746    116769.12246                  23576384.6914
        13.0004         12.2504
  22143546.8524     -94083.84647    -40708.79446                  22143559.4654
        20.0004         18.7504
  20466358.1884      76655.58348     50125.12547                  20466366.5004
        28.0004         25.7504
  22191038.6334     -96592.06847    -75267.02446                  22191047.9884
        22.7504         20.2504
 00  5  1 18 50 30.0000000  0  7G 4G 5G 6G 9G10G24G30
  22661455.1334     210587.72346    164094.17546                  22661464.8054
        18.0004         15.5004
  20333618.6954      -9508.22147     -7409.55046                  20333626.6684
        27.5004         25.5004
  24152624.4454    -101285.61845    -17523.20355                  24152638.3484
         9.7504          9.5004
  23586383.9454     202493.27346    157785.47246                  23586401.7384
        12.5004         12.0004
  22137394.2894    -126416.18646    -65902.74746                  22137406.8914
        19.7504         18.7504
  20471542.0554     103898.47647     71353.34047                  20471550.4614
        27.2504         25.7504
  22184715.8364    -129819.91947   -101158.82446                  22184725.2504
        22.2504         20.2504
 00  5  1 18 50 45.0000000  0  7G 4G 5G 6G 9G10G24G30
  22671905.6644     265506.92346    206888.34046                  22671914.7854
        18.2504         15.5004
  20333280.2664     -11286.89847     -8795.53946                  20333288.0634
        27.5004         25.2504
  24147710.1484    -127109.89045    -37645.95745                  24147724.9414
         9.7504          9.2504
  23596430.3134     255286.02346    198922.49046                  23596448.2814
        12.5004         12.5004
  22131283.4144    -158526.61946    -90923.77546                  22131296.2734
        19.5004         18.7504
  20476770.0234     131371.85347     92761.15246                  20476778.4534
        27.2504         25.5004
  22178432.1174    -162839.04047   -126887.97746                  22178441.7304
        22.0004         20.2504
 00  5  1 18 51  0.0000000  0  7G 4G 5G 6G 9G10G24G30
  22682384.0554     320570.69946    249795.15446                  22682393.4104
        18.0004         15.2504
  20332987.2814     -12826.90848     -9995.55246                  20332994.9144
        28.0004         25.2504
  24142817.1414    -152821.15145    -57680.59445                  24142831.9574
         9.7504         10.2504
  23606501.0314     308207.59146    240159.88046                  23606518.4614
        12.7504         13.0004
  22125210.4144    -190440.77346   -115791.86346                  22125223.4494
        19.2504         19.0004
  20482037.7974     159054.39747    114331.95646                  20482046.3674
        27.2504         25.2504
  22172184.6254    -195670.70247   -152471.05646                  22172194.3204
        22.5004         20.2504
 00  5  1 18 51 15.0000000  0  7G 4G 5G 6G 9G10G24G30
  22692887.7194     375767.48646    292805.60546                  22692896.3594
        18.0004         15.0004
  20332737.3284     -14140.84548    -11019.40046                  20332744.9264
        28.0004         25.5004
  24137944.7194    -178429.24145    -77634.85445                  24137959.3134
        10.0004         10.2504
  23616594.0314     361245.24446    281487.73246                  23616611.6724
        12.7504         12.0004
  22119172.1644    -222171.25846   -140516.82446                  22119184.9654
        19.7504         19.2504
  20487343.1884     186933.27847    136055.74446                  20487351.5004
        27.0004         25.2504
  22165970.2814    -228328.40547   -177918.59046                  22165979.9304
        22.0004         20.5004
 00  5  1 18 51 30.0000000  0  7G 4G 5G 6G 9G10G24G30
  22703413.7274     431080.95146    335906.98246                  22703422.9534
        17.5004         15.2504
  20332526.5314     -15248.57748    -11882.57246                  20332534.2464
        28.0004         25.0004
  24133087.3054    -203953.27245    -97523.62145                  24133101.3594
        10.0004         10.0004
  23626705.0704     414378.35546    322889.96046                  23626722.1954
        12.7504         12.2504
  22113165.6024    -253737.25446   -165113.62046                  22113178.2384
        19.7504         19.2504
  20492682.0634     214989.41947    157917.66246                  20492690.4694
        27.0004         25.2504
  22159784.5234    -260833.95947   -203247.55446                  22159794.4774
        22.7504         20.7504
 00  5  1 18 51 45.0000000  0  7G 4G 5G 6G 9G10G24G30
  22713958.1174     486493.70046    379085.72346                  22713967.2624
        17.2504         14.7504
  20332352.1804     -16164.50747    -12596.29246                  20332359.9184
        27.7504         25.0004
  24128243.2974    -229408.20345   -117358.55845                  24128258.0204
        10.5004         10.0004
  23636831.0234     467590.84046    364354.03946                  23636848.2424
        12.7504         12.2504
  22107187.0004    -285154.28147   -189594.33946                  22107199.6844
        20.0004         19.2504
  20498052.2664     243209.70347    179907.47746                  20498060.8484
        27.2504         25.2504
  22153625.1414    -293201.25947   -228468.79646                  22153635.0704
        22.7504         20.7504
 00  5  1 18 52  0.0000000  0  7G 4G 5G 6G 9G10G24G30
  22724518.7114     541989.37246    422329.06646                  22724527.4574
        17.5004         14.2504
  20332211.8984     -16901.51347    -13170.59046                  20332219.6604
        27.7504         25.0004
  24123410.5004    -254805.65645   -137148.70245                  24123426.3954
        10.7504         10.0004
  23646969.8594     520869.99546    405870.05646                  23646987.6994
        12.5004         12.5004
  22101234.0634    -316435.16846   -213968.97346                  22101246.5234
        19.5004         19.2504
  20503451.4534     271582.84047    202016.40646                  20503460.0944
        27.2504         25.2504
  22147489.4064    -325445.64547   -253594.25546                  22147499.4064
        22.7504         20.7504
 00  5  1 18 52 15.0000000  0  7G 4G 5G 6G 9G10G24G30
  22735093.5004     597561.38346    465631.90246                  22735102.2344
        17.0004         14.5004
  20332103.7194     -17469.98047    -13613.55546                  20332111.5634
        27.7504         25.0004
  24118587.2274    -280151.78845   -156898.82945                  24118601.9964
        10.7504         10.5004
  23657119.7734     574207.29746    447431.38546                  23657137.3674
        12.2504         12.2504
  22095306.2344    -347586.73346   -238242.83446                  22095318.7424
        19.2504         18.5004
  20508878.1884     300099.87247    224237.45846                  20508886.6764
        27.2504         25.2504
  22141374.1954    -357580.05547   -278634.02946                  22141384.0084
        22.5004         20.7504
 00  5  1 18 52 30.0000000  0  7G 4G 5G 6G 9G10G24G30
  22745681.1024     653198.09946    508985.15846                  22745690.1524
        17.5004         14.7504
  20332026.1724     -17877.23048    -13930.89646                  20332034.0394
        28.0004         25.0004
  24113772.1414    -305454.17245   -176614.89945                  24113786.1724
        11.0004         10.5004
  23667279.0704     627593.20846    489030.61145                  23667297.3094
        12.7504         11.7504
  22089401.0394    -378617.20246   -262422.34546                  22089413.5474
        18.2504         18.0004
  20514330.0554     328749.88747    246562.13046                  20514338.4264
        27.5004         25.2504
  22135278.5164    -389612.65247   -303594.46046                  22135288.0944
        22.7504         20.7504
 00  5  1 18 52 45.0000000  0  7G 4G 5G 6G 9G10G24G30
  22756278.9064     708889.13346    552380.74446                  22756287.3134
        17.5004         14.2504
  20331977.3984     -18133.10547    -14130.28046                  20331985.6414
        27.2504         25.0004
  24108963.2584    -330722.84545   -196304.68245                  24108977.9104
        10.5004          9.7504
  23677445.5474     681019.16246    530661.02946                  23677462.6254
        12.0004         12.0004
  22083517.3674    -409535.53046   -286514.46146                  22083530.1334
        18.7504         17.7504
  20519805.3674     357522.48748    268982.32446                  20519813.6334
        28.0004         25.5004
  22129201.0704    -421550.17347   -328480.80546                  22129210.5904
        22.7504         20.7504
 00  5  1 18 53  0.0000000  0  7G 4G 5G 6G 9G10G24G30
  22766886.1024     764629.81046    595815.02046                  22766895.8914
        17.5004         14.2504
  20331956.5314     -18244.40947    -14217.02246                  20331964.8794
        27.2504         25.2504
  24104160.1334    -355965.30845   -215974.04745                  24104174.9964
        10.7504         10.0004
  23687619.2344     734480.59345    572319.09345                  23687637.0984
        11.7504         11.7504
  22077654.6564    -440345.84946   -310522.42546                  22077667.0474
        19.2504         18.5004
  20525302.8834     386412.20048    291493.77846                  20525311.0204
        28.0004         25.5004
  22123140.9304    -453396.38847   -353296.00446                  22123150.4844
        23.0004         20.7504
 00  5  1 18 53 15.0000000  0  7G 4G 5G 6G 9G10G24G30
  22777502.0234     820417.33346    639285.76446                  22777510.9694
        17.2504         14.0004
  20331962.1094     -18214.96647    -14194.08646                  20331970.3634
        27.7504         25.2504
  24099359.5004    -381190.22045   -235629.74945                  24099372.5354
        11.5004         10.0004
  23697798.1484     787972.12845    614000.60745                  23697816.1174
        11.2504         11.7504
  22071811.4694    -471051.01246   -334448.44846                  22071823.6604
        19.5004         18.7504
  20530821.2504     415411.96748    314090.98846                  20530829.5164
        28.0004         25.5004
  22117096.7034    -485158.58047   -378045.73346                  22117106.0124
        23.2504         20.5004
 00  5  1 18 53 30.0000000  0  7G 4G 5G 6G 9G10G24G30
  22788125.4384     876242.92346    682786.21246                  22788133.9614
        17.7504         14.0004
  20331992.8914     -18052.78748    -14067.71346                  20332001.2384
        28.0004         25.2504
  24094560.4064    -406410.68045   -255281.95545                  24094574.7194
        11.5004         10.7504
  23707982.1954     841487.47445    655700.68245                  23708000.4574
        11.5004         11.7504
  22065987.0474    -501657.76246   -358297.78046                  22065999.3204
        19.7504         18.7504
  20536358.8134     444512.06947    336766.37846                  20536366.9844
        27.7504         25.2504
  22111066.8524    -516846.40547   -402737.51446                  22111076.4184
        23.5004         20.7504
 00  5  1 18 53 45.0000000  0  7G 4G 5G 6G 9G10G24G30
  22798754.3594     932098.00246    726309.61846                  22798763.5044
        17.2504         14.2504
  20332047.8984     -17763.17247    -13842.04646                  20332056.0474
        27.7504         25.2504
  24089760.0084    -431635.02245   -274937.19245                  24089774.0514
        11.0004         10.2504
  23718169.8834     895022.73345    697416.26745                  23718187.4774
        11.7504         11.7504
  22060180.2734    -532172.40347   -382075.33246                  22060192.4304
        20.0004         19.2504
  20541913.8834     473704.04647    359513.35946                  20541922.2894
        27.5004         25.5004
  22105051.0084    -548460.23547   -427371.63346                  22105060.5744
        23.5004         21.0004
 00  5  1 18 54  0.0000000  0  7G 4G 5G 6G 9G10G24G30
  22809388.7424     987983.68346    769856.87146                  22809397.3244
        17.0004         14.0004
  20332128.0704     -17343.04248    -13514.67846                  20332136.1844
        28.0004         25.0004
  24084959.7274    -456861.46545   -294594.07345                  24084973.8284
        10.2504         10.2504
  23728362.2274     948584.75946    739152.71646                  23728379.9384
        12.2504         12.2504
  22054391.5864    -562592.25347   -405779.03946                  22054403.7544
        20.0004         19.0004
  20547486.9384     502990.33747    382333.83746                  20547495.2854
        27.7504         25.5004
  22099050.4614    -579992.40047   -451942.12046                  22099059.9804
        23.5004         21.0004
 00  5  1 18 54 15.0000000  0  7G 4G 5G 6G 9G10G24G30
  22820029.6174    1043900.67646    813428.53246                  22820038.0824
        16.7504         13.7504
  20332232.5314     -16793.67848    -13086.60346                  20332240.6214
        28.2504         25.2504
  24080158.4534    -482093.10745   -314254.99545                  24080172.4494
        10.5004         10.2504
  23738559.8754    1002172.63245    780909.29746                  23738578.2194
        11.5004         12.0004
  22048620.6094    -592919.39746   -429410.49546                  22048632.9534
        19.7504         18.7504
  20553077.5784     532367.94948    405225.47146                  20553085.8324
        28.0004         25.5004
  22093064.9144    -611446.80647   -476452.01346                  22093074.5044
        23.7504         20.7504
 00  5  1 18 54 30.0000000  0  7G 4G 5G 6G 9G10G24G30
  22830675.5474    1099845.19946    857021.62546                  22830684.2234
        16.7504         13.7504
  20332361.1804     -16116.72748    -12559.11146                  20332369.1294
        28.5004         25.2504
  24075355.2734    -507331.94145   -333921.55745                  24075369.7274
        10.5004         10.2504
  23748762.2194    1055784.36345    822684.48145                  23748780.1644
        11.5004         11.7504
  22042866.8204    -623154.37047   -452970.12746                  22042878.9304
        20.2504         19.0004
  20558684.9694     561835.26048    428186.99947                  20558693.3524
        28.0004         25.7504
  22087094.2664    -642823.58347   -500901.42046                  22087104.0314
        23.2504         21.0004
 00  5  1 18 54 45.0000000  0  7G 4G 5G 6G 9G10G24G30
  22841326.1414    1155812.91946    900632.81146                  22841334.7934
        16.7504         14.0004
  20332513.9144     -15314.73948    -11934.18746                  20332522.0514
        28.5004         25.2504
  24070550.7814    -532581.39445   -353596.35045                  24070565.0354
        10.5004         10.0004
  23758969.0314    1109418.41945    864477.04545                  23758987.6564
        11.5004         11.5004
  22037129.9534    -653301.65947   -476461.43946                  22037141.6414
        20.5004         18.5004
  20564309.1094     591390.73448    451217.22647                  20564317.5744
        28.0004         26.0004
  22081138.0314    -674121.68747   -525289.52346                  22081147.9024
        23.5004         21.0004
 00  5  1 18 55  0.0000000  0  7G 4G 5G 6G 9G10G24G30
  22851980.8284    1211805.53846    944263.40546                  22851989.8914
        16.5004         13.7504
  20332690.1954     -14388.73448    -11212.63246                  20332698.0744
        28.5004         25.0004
  24065743.7974    -557840.05345   -373278.34945                  24065757.9804
        10.7504         10.0004
  23769179.5784    1163076.38945    906288.25945                  23769197.2074
        11.5004         11.2504
  22031409.8134    -683360.97447   -499884.21446                  22031421.5234
        21.0004         19.0004
  20569950.5314     621035.93448    474317.36846                  20569959.0084
        28.0004         25.5004
  22075197.0864    -705342.22547   -549617.19346                  22075206.8634
        23.2504         21.0004
 00  5  1 18 55 15.0000000  0  7G 4G 5G 6G 9G10G24G30
  22862640.9144    1267822.30346    987912.80246                  22862650.5394
        16.2504         14.0004
  20332889.9224     -13338.38548    -10394.18646                  20332897.7424
        28.5004         25.2504
  24060935.6254    -583107.42645   -392967.14045                  24060948.5084
        10.7504          9.7504
  23779394.3054    1216755.34445    948115.81346                  23779412.8014
        11.7504         12.0004
  22025705.6644    -713336.29447   -523241.52946                  22025717.6094
        20.5004         19.0004
  20575608.7734     650771.30848    497487.77847                  20575617.2854
        28.2504         25.7504
  22069270.5944    -736486.68647   -573885.56846                  22069280.3594
        23.2504         21.0004
 00  5  1 18 55 30.0000000  0  7G 4G 5G 6G 9G10G24G30
  22873306.4614    1323872.40546   1031588.17446                  22873315.8984
        16.0004         13.7504
  20333115.4144     -12154.12048     -9471.38046                  20333123.3754
        29.0004         25.2504
  24056128.0164    -608370.38245   -412652.47445                  24056140.3834
        10.7504         10.2504
  23789615.6484    1270467.11646    989968.94846                  23789633.5354
        12.7504         12.2504
  22020019.5314    -743217.57547   -546525.57246                  22020031.3834
        20.5004         19.2504
  20581286.3444     680606.23048    520735.75947                  20581294.5394
        28.0004         26.0004
  22063360.6724    -767542.77247   -598085.08346                  22063370.5084
        23.0004         21.0004
 00  5  1 18 55 45.0000000  0  7G 4G 5G 6G 9G10G24G30
  22883975.9614    1379940.28546   1075277.39446                  22883985.0004
        16.2504         13.7504
  20333363.1564     -10851.93548     -8456.69346                  20333370.8594
        28.2504         25.0004
  24051319.5474    -633640.61445   -432343.47845                  24051333.0864
        10.0004          9.7504
  23799840.3984    1324195.78746   1031835.24846                  23799858.2154
        13.0004         12.0004
  22014348.0084    -773020.81247   -569748.79146                  22014360.0594
        20.5004         19.5004
  20586979.7194     710524.68448    544048.82647                  20586987.9964
        28.0004         25.7504
  22057465.3444    -798523.05347   -622225.54346                  22057475.2274
        23.0004         21.0004
 00  5  1 18 56  0.0000000  0  7G 4G 5G 6G 9G10G24G30
  22894647.1414    1436019.10446   1118975.14746                  22894657.0704
        16.0004         14.0004
  20333632.0004      -9439.39448     -7356.02646                  20333639.5634
        28.5004         24.7504
  24046509.1024    -658920.99845   -452042.39045                  24046524.0234
        10.0004          9.7504
  23810066.0784    1377931.30546   1073706.89145                  23810084.7154
        13.0004         11.7504
  22008690.0704    -802752.32747   -592916.12446                  22008702.0514
        20.5004         19.5004
  20592687.5634     740519.69348    567421.55047                  20592695.8054
        28.2504         26.0004
  22051582.8524    -829435.67247   -646313.26946                  22051592.3244
        23.0004         21.0004
 00  5  1 18 56 15.0000000  0  7G 4G 5G 6G 9G10G24G30
  22905323.5394    1492122.48146   1162692.01246                  22905332.6954
        16.5004         14.0004
  20333924.6094      -7903.06548     -6158.89146                  20333932.0904
        28.7504         25.0004
  24041697.9384    -684197.99345   -471738.65945                  24041711.7584
        10.0004         10.2504
  23820294.6564    1431684.58646   1115592.37445                  23820312.8014
        12.2504         11.7504
  22003048.7974    -832398.58447   -616017.03146                  22003060.9774
        20.5004         19.5004
  20598412.5394     770604.58848    590864.31347                  20598420.9924
        28.5004         26.0004
  22045714.7424    -860273.74447   -670342.91146                  22045723.9104
        23.7504         21.2504
 00  5  1 18 56 30.0000000  0  7G 4G 5G 6G 9G10G24G30
  22916004.9774    1548254.21746   1206430.98746                  22916014.1684
        16.2504         13.5004
  20334241.5394      -6236.25648     -4860.07846                  20334249.1604
        29.0004         25.0004
  24036890.0234    -709465.22845   -491427.34245                  24036903.1174
        10.0004          9.2504
  23830527.5314    1485458.09946   1157493.60945                  23830545.9104
        12.0004         11.0004
  21997424.2504    -861954.15047   -639047.26046                  21997436.3364
        20.2504         19.0004
  20604154.8134     800780.38148    614377.90247                  20604163.4184
        28.7504         26.0004
  22039861.2734    -891034.49947   -694312.30546                  22039870.2424
        24.7504         21.0004
 00  5  1 18 56 45.0000000  0  7G 4G 5G 6G 9G10G24G30
  22926690.2424    1604404.16346   1250184.17946                  22926700.2074
        16.7504         13.7504
  20334581.9774      -4447.79348     -3466.48346                  20334589.6214
        28.5004         25.0004
  24032081.9774    -734731.22045   -511115.04445                  24032095.5864
         9.5004          9.2504
  23840762.6954    1539242.10945   1199403.05445                  23840780.6764
        11.7504         11.0004
  21991815.8834    -891427.43147   -662013.38046                  21991827.8524
        20.5004         19.0004
  20609912.2114     831035.33848    637953.18047                  20609920.5124
        28.5004         26.0004
  22034021.0004    -921723.41247   -718225.71346                  22034029.8874
        25.2504         21.2504
 00  5  1 18 57  0.0000000  0  7G 4G 5G 6G 9G10G24G30
  22937379.0784    1660575.47546   1293953.99146                  22937388.0004
        16.5004         13.5004
  20334945.3284      -2539.82548     -1979.76346                  20334953.1484
        29.0004         25.2504
  24027274.1024    -759997.12145   -530802.69945                  24027287.5474
         9.5004          9.5004
  23850999.3754    1593034.94246   1241319.32245                  23851017.9064
        12.2504         11.2504
  21986222.7114    -920817.94647   -684915.01046                  21986234.6454
        20.2504         19.2504
  20615684.5004     861368.89648    661589.70947                  20615692.7894
        28.2504         26.2504
  22028194.4924    -952341.50347   -742083.93946                  22028203.2384
        26.0004         21.5004
 00  5  1 18 57 15.0000000  0  7G 4G 5G 6G 9G10G24G30
  22948072.5314    1716769.00346   1337741.12146                  22948081.4774
        17.0004         13.5004
  20335331.5084       -509.56748      -397.75446                  20335339.2704
        29.5004         25.0004
  24022466.3284    -785262.08645   -550489.59245                  24022479.9384
         9.5004          9.7504
  23861237.4304    1646835.49246   1283241.66245                  23861255.8794
        12.2504         11.2504
  21980646.3984    -950122.93447   -707749.99246                  21980658.5904
        20.2504         19.2504
  20621471.7194     891781.39648    685287.75547                  20621479.9494
        28.5004         26.0004
  22022381.7194    -982887.66047   -765886.10946                  22022390.4304
        25.7504         21.5004
 00  5  1 18 57 30.0000000  0  7G 4G 5G 6G 9G10G24G30
  22958770.0474    1772984.97446   1381545.73646                  22958778.9924
        16.5004         13.2504
  20335740.9614       1643.15648      1279.69046                  20335748.5474
        29.7504         25.0004
  24017659.2584    -810526.69445   -570176.24045                  24017672.6214
        10.5004          9.5004
  23871476.2894    1700641.34746   1325168.08745                  23871493.6134
        12.2504         11.0004
  21975086.1644    -979340.71847   -730517.02346                  21975098.2854
        20.5004         19.5004
  20627273.7584     922271.24748    709046.07047                  20627281.7894
        28.5004         26.0004
  22016582.8754   -1013360.63447   -789631.24946                  22016591.6454
        25.0004         21.7504
 00  5  1 18 57 45.0000000  0  7G 4G 5G 6G 9G10G24G30
  22969470.5474    1829215.30446   1425361.53546                  22969479.1294
        16.7504         13.7504
  20336172.7194       3911.68948      3047.37046                  20336180.0004
        29.7504         25.2504
  24012849.1414    -835800.43345   -589869.94845                  24012863.6174
        10.0004          9.5004
  23881714.6954    1754443.32746   1367091.52645                  23881732.4774
        12.2504         11.0004
  21969541.4844   -1008478.97747   -753222.08646                  21969553.5234
        20.2504         19.5004
  20633088.9454     952830.00748    732858.07947                  20633097.3164
        28.7504         26.2504
  22010796.2114   -1043770.79147   -813327.45846                  22010805.1454
        25.0004         21.5004
 00  5  1 18 58  0.0000000  0  7G 4G 5G 6G 9G10G24G30
  22980172.1954    1885454.24146   1469184.05846                  22980180.8954
        16.5004         13.5004
  20336625.8984       6291.84948      4902.03746                  20336633.4384
        29.0004         25.2504
  24008036.5864    -861088.38945   -609574.80545                  24008050.8874
         9.7504          9.7504
  23891950.7584    1808235.78046   1409007.54045                  23891968.9024
        12.2504         11.2504
  21964010.3914   -1037543.31247   -775869.54046                  21964022.2894
        20.5004         20.0004
  20638916.2814     983454.31148    756721.16447                  20638924.7704
        29.0004         26.2504
  22005020.2894   -1074123.21147   -836978.66746                  22005029.2704
        25.2504         21.7504
 00  5  1 18 58 15.0000000  0  7G 4G 5G 6G 9G10G24G30
  22990876.9384    1941706.81646   1513017.20446                  22990885.8364
        16.5004         13.5004
  20337101.0474       8789.87848      6848.54146                  20337108.8204
        29.7504         25.2504
  24003222.6414    -886386.03145   -629287.13745                  24003237.3634
         9.7504         10.0004
  23902187.2424    1862027.85145   1450923.23245                  23902205.0004
        11.7504         11.0004
  21958495.3984   -1066525.07447   -798452.65346                  21958507.4144
        20.5004         19.7504
  20644757.9614    1014151.95648    780641.38947                  20644766.1914
        28.7504         26.0004
  21999256.9534   -1104410.08847   -860578.80046                  21999265.7814
        26.0004         21.7504
 00  5  1 18 58 30.0000000  0  7G 4G 5G 6G 9G10G24G30
  23001584.6884    1997975.92646   1556863.21746                  23001593.8444
        16.0004         13.2504
  20337600.0554      11411.80748      8891.59146                  20337607.6524
        30.0004         25.2504
  23998407.3204    -911690.15945   -649004.59245                  23998421.6684
         9.5004         10.2504
  23912425.0084    1915825.14645   1492843.00545                  23912442.8244
        11.2504         11.0004
  21952996.9774   -1095418.52747   -820966.95846                  21953008.7934
        20.5004         20.2504
  20650614.5784    1044927.73948    804622.50947                  20650623.1954
        28.7504         26.2504
  21993507.0864   -1134625.26247   -884123.06346                  21993515.8554
        25.5004         22.0004
 00  5  1 18 58 45.0000000  0  7G 4G 5G 6G 9G10G24G30
  23012295.4454    2054261.89446   1600722.38746                  23012303.6524
        16.2504         13.2504
  20338121.8754      14153.77948     11028.19046                  20338129.3914
        29.7504         25.2504
  23993590.9224    -937002.62245   -668728.50645                  23993604.1684
        10.0004         10.5004
  23922662.3134    1969624.20145   1534764.15145                  23922680.6094
        10.7504         10.7504
  21947515.8834   -1124222.29847   -843411.38246                  21947528.1094
        20.5004         20.2504
  20656485.5704    1075780.34748    828663.49247                  20656494.1174
        28.0004         26.2504
  21987771.4144   -1164766.06347   -907609.37646                  21987780.5124
        25.5004         22.0004
 00  5  1 18 59  0.0000000  0  7G 4G 5G 6G 9G10G24G30
  23023009.8674    2110565.93646   1644595.64946                  23023019.1644
        16.2504         13.5004
  20338665.7734      17012.00448     13255.37146                  20338673.1604
        29.5004         25.2504
  23988772.0234    -962324.41445   -688459.69945                  23988784.6134
        10.0004         10.2504
  23932900.6644    2023425.10545   1576686.73945                  23932918.9494
        10.5004         10.5004
  21942052.1334   -1152934.51847   -865784.46746                  21942064.2424
        20.7504         20.2504
  20662372.1414    1106714.41148    852767.95147                  20662380.7704
        28.2504         26.2504
  21982049.9224   -1194831.91047   -931037.27246                  21982058.7154
        25.5004         22.0004
 00  5  1 18 59 15.0000000  0  7G 4G 5G 6G 9G10G24G30
  23033726.5164    2166882.42446   1688478.56946                  23033735.4144
        16.7504         13.5004
  20339231.2664      19984.10148     15571.27846                  20339239.0394
        29.7504         25.5004
  23983951.5004    -987659.48445   -708201.22845                  23983965.4964
        10.0004         10.2504
  23943138.3444    2077222.89445   1618606.87245                  23943156.4654
        10.0004         10.0004
  21936605.2504   -1181557.93347   -888088.35146                  21936617.2664
        21.0004         20.2504
  20668273.9534    1137727.82548    876934.23447                  20668282.4884
        28.5004         26.0004
  21976341.4614   -1224828.76747   -954411.42846                  21976349.9964
        26.0004         22.0004
 00  5  1 18 59 30.0000000  0  7G 4G 5G 6G 9G10G24G30
  23044444.8524    2223208.36546   1732368.88546                  23044453.9844
        16.5004         13.0004
  20339819.0314      23071.75748     17977.23646                  20339826.8164
        30.2504         25.5004
  23979127.3134   -1013006.99745   -727952.45545                  23979141.6134
        10.0004         10.7504
  23953375.2194    2131017.51645   1660524.56945                  23953393.7034
        10.5004         10.7504
  21931175.1484   -1210092.65447   -910323.13346                  21931186.8364
        21.0004         20.2504
  20674190.4064    1168819.15748    901161.23647                  20674198.8364
        29.2504         26.0004
  21970646.9614   -1254756.43547   -977731.65546                  21970655.7774
        26.2504         22.2504
 00  5  1 18 59 45.0000000  0  7G 4G 5G 6G 9G10G24G30
  23055164.8364    2279541.92546   1776265.13246                  23055173.8284
        17.2504         13.5004
  20340428.2424      26273.42748     20472.03147                  20340436.2154
        30.0004         25.7504
  23974301.5394   -1038365.32845   -747712.09545                  23974316.3094
        10.5004         10.7504
  23963611.9384    2184810.60945   1702441.07445                  23963630.9494
        10.5004         11.2504
  21925762.1564   -1238538.11547   -932488.35846                  21925774.0434
        21.2504         20.5004
  20680121.3444    1199987.35648    925448.13447                  20680129.6914
        29.0004         26.0004
  21964964.4384   -1284616.30847  -1000999.05446                  21964973.4184
        26.2504         22.2504
 00  5  1 19  0  0.0000000  0  7G 4G 5G 6G 9G10G24G30
  23065885.8284    2335881.50746   1820166.05546                  23065894.9844
        16.2504         13.2504
  20341059.3754      29589.67948     23056.11446                  20341067.3484
        30.0004         25.5004
  23969474.4694   -1063731.91345   -767478.18845                  23969488.2304
        10.5004         11.0004
  23973848.6884    2238605.60745   1744359.02945                  23973867.1954
        10.2504         11.0004
  21920366.5004   -1266891.82247   -954582.08646                  21920378.6914
        21.2504         20.5004
  20686067.6254    1231234.13948    949796.26847                  20686075.8444
        28.7504         26.0004
  21959295.8134   -1314405.87347  -1024211.67846                  21959304.9224
        26.0004         22.2504
 00  5  1 19  0 15.0000000  0  7G 4G 5G 6G 9G10G24G30
  23076607.4534    2392223.23146   1864068.65946                  23076616.8094
        16.5004         13.0004
  20341711.6254      33017.61148     25727.22346                  20341719.3984
        30.0004         25.5004
  23964645.4774   -1089107.54445   -787251.32345                  23964659.0514
        10.5004         10.5004
  23984085.1884    2292400.39245   1786276.85945                  23984104.1414
        10.0004         11.5004
  21914988.7974   -1295151.89547   -976602.84946                  21915000.8834
        21.5004         20.7504
  20692028.0474    1262557.05448    974203.72647                  20692036.3364
        28.0004         26.0004
  21953640.0084   -1344126.03247  -1047370.21846                  21953649.1764
        24.7504         22.2504
 00  5  1 19  0 30.0000000  0  7G 4G 5G 6G 9G10G24G30
  23087329.0164    2448565.57446   1907971.74846                  23087338.3834
        16.0004         13.2504
  20342384.9844      36555.77448     28484.21847                  20342392.5354
        30.5004         25.7504
  23959814.6024   -1114494.91045   -807033.58845                  23959828.7974
        10.7504         11.2504
  23994321.9144    2346188.58845   1828189.50145                  23994339.7664
        10.7504         11.2504
  21909628.3204   -1323320.52547   -998552.36546                  21909639.9614
        22.2504         21.2504
  20698002.6174    1293954.06348    998668.91947                  20698011.0354
        28.2504         26.0004
  21947997.2974   -1373780.05647  -1070477.22746                  21948006.5704
        24.5004         22.2504
 00  5  1 19  0 45.0000000  0  7G 4G 5G 6G 9G10G24G30
  23098051.9614    2504914.19746   1951879.72246                  23098061.0124
        16.0004         13.0004
  20343079.8054      40207.34948     31329.59646                  20343087.1804
        30.5004         25.5004
  23954981.9304   -1139890.37145   -826822.18745                  23954995.4574
        11.5004         11.5004
  24004555.5944    2399968.66145   1870095.86045                  24004575.0864
        11.0004         11.2504
  21904285.7974   -1351396.71847  -1020429.84246                  21904297.4024
        22.2504         21.2504
  20703991.7814    1325426.17348   1023192.63647                  20704000.2114
        28.2504         26.2504
  21942367.4224   -1403365.55647  -1093530.84346                  21942376.7894
        24.7504         22.5004
 00  5  1 19  1  0.0000000  0  7G 4G 5G 6G 9G10G24G30
  23108775.9384    2561268.59746   1995792.19746                  23108784.9064
        15.0004         12.5004
  20343796.4534      43972.55148     34263.50646                  20343804.1914
        30.2504         25.5004
  23950148.2424   -1165292.50645   -846615.95945                  23950162.0274
        11.0004         11.2504
  24014788.1564    2453739.65545   1911995.13045                  24014806.2664
        11.2504         11.5004
  21898960.1804   -1379383.01747  -1042237.28646                  21898971.4804
        22.0004         21.0004
  20709995.2274    1356974.82748   1047775.98947                  20710003.7854
        28.5004         26.2504
  21936750.3284   -1432883.24047  -1116531.61146                  21936759.8594
        25.5004         22.5004
 00  5  1 19  1 15.0000000  0  7G 4G 5G 6G 9G10G24G30
  23119500.3444    2617624.63546   2039705.95946                  23119509.9924
        15.2504         13.0004
  20344535.0554      47853.97948     37287.98346                  20344542.7584
        30.5004         25.5004
  23945312.9224   -1190701.67945   -866415.24545                  23945327.5044
        11.0004         11.2504
  24025018.7814    2507500.33545   1953886.38145                  24025037.0904
        11.5004         11.7504
  21893650.8524   -1407281.95647  -1063976.64246                  21893662.5514
        22.2504         21.0004
  20716013.1254    1388599.05648   1072418.23847                  20716021.6484
        28.7504         26.2504
  21931145.1884   -1462336.29347  -1139482.01946                  21931154.5904
        25.2504         22.2504
 00  5  1 19  1 30.0000000  0  7G 4G 5G 6G 9G10G24G30
  23130224.1334    2673979.92746   2083619.14246                  23130233.3014
        15.0004         12.7504
  20345296.2274      51854.14348     40404.98546                  20345303.6024
        30.7504         25.5004
  23940475.9924   -1216119.63845   -886221.35745                  23940490.4694
        11.5004         11.2504
  24035247.0394    2561248.74245   1995768.03946                  24035265.6884
        11.7504         12.2504
  21888357.6884   -1435096.77547  -1085650.46146                  21888369.6334
        22.7504         21.0004
  20722044.4534    1420295.17548   1097116.49847                  20722052.9414
        28.5004         26.2504
  21925552.9844   -1491725.12747  -1162382.38946                  21925562.2814
        25.2504         23.0004
 00  5  1 19  1 45.0000000  0  7G 4G 5G 6G 9G10G24G30
  23140947.9454    2730334.27246   2127531.57246                  23140957.2304
        15.0004         12.0004
  20346079.5234      55971.06048     43612.96046                  20346086.8404
        31.0004         25.5004
  23935637.3834   -1241545.90546   -906033.95745                  23935650.4534
        12.0004         11.2504
  24045472.6954    2614985.66546   2037640.75146                  24045492.1294
        12.0004         12.0004
  21883080.7504   -1462828.05247  -1107259.17746                  21883092.3444
        22.2504         21.0004
  20728089.5474    1452062.72048   1121870.41947                  20728097.8954
        28.0004         26.0004
  21919973.2664   -1521047.58147  -1185231.02946                  21919982.4224
        26.0004         22.7504
 00  5  1 19  2  0.0000000  0  7G 4G 5G 6G 9G10G24G30
  23151672.1174    2786688.57346   2171443.99245                  23151680.6294
        14.7504         11.7504
  20346885.4384      60205.39548     46912.43346                  20346892.9884
        30.2504         25.5004
  23930796.8524   -1266984.50846   -925856.17345                  23930810.6724
        12.0004         11.7504
  24055696.1564    2668708.94846   2079502.83846                  24055715.2854
        12.0004         12.2504
  21877819.4224   -1490477.07347  -1128803.80146                  21877830.9804
        22.2504         20.7504
  20734148.4774    1483902.14647   1146680.36347                  20734156.9064
        27.5004         26.0004
  21914406.0474   -1550302.34847  -1208026.92746                  21914415.2504
        26.2504         22.7504
 00  5  1 19  2 15.0000000  0  7G 4G 5G 6G 9G10G24G30
  23162396.1804    2843045.79046   2215358.67046                  23162405.0204
        14.7504         12.2504
  20347714.4304      64561.56648     50306.84047                  20347722.1684
        30.2504         25.7504
  23925953.5314   -1292436.62145   -945688.89445                  23925967.2344
        11.7504         11.5004
  24065916.2664    2722416.91146   2121353.00646                  24065934.8914
        12.2504         12.0004
  21872573.4614   -1518042.90947  -1150283.61046                  21872584.7154
        21.7504         20.5004
  20740221.1094    1515813.56647   1171546.39047                  20740229.5864
        27.2504         25.7504
  21908852.5394   -1579486.67147  -1230767.93446                  21908861.9184
        26.5004         22.7504
 00  5  1 19  2 30.0000000  0  7G 4G 5G 6G 9G10G24G30
  23173121.8204    2899407.22246   2259276.63046                  23173131.5984
        14.2504         12.5004
  20348567.0634      69042.62248     53798.56046                  20348574.5664
        30.5004         25.5004
  23921106.6484   -1317904.60845   -965534.01045                  23921120.5274
        11.7504         11.5004
  24076134.1334    2776108.66446   2163190.51145                  24076153.6484
        12.2504         11.2504
  21867343.4304   -1545526.97947  -1171699.69646                  21867354.8014
        21.7504         20.5004
  20746306.9144    1547795.18047   1196467.11846                  20746315.3204
        27.7504         25.5004
  21903312.7894   -1608597.96947  -1253452.03746                  21903322.1684
        26.2504         23.0004
 00  5  1 19  2 45.0000000  0  7G 4G 5G 6G 9G10G24G30
  23183847.4614    2955773.39646   2303198.28346                  23183856.4884
        14.7504         12.0004
  20349443.8674      73650.23748     57388.90347                  20349451.3014
        30.5004         25.7504
  23916257.5704   -1343387.40745   -985390.66045                  23916272.0704
        11.5004         11.5004
  24086348.7424    2829787.85345   2205018.28245                  24086367.6484
        11.7504         11.2504
  21862129.4694   -1572926.80447  -1193050.13746                  21862140.4774
        22.7504         21.0004
  20752405.9064    1579845.75248   1221441.58346                  20752414.4064
        28.0004         25.2504
  21897787.5704   -1637632.22347  -1276076.10846                  21897797.0084
        26.2504         23.0004
 00  5  1 19  3  0.0000000  0  7G 4G 5G 6G 9G10G24G30
  23194573.8284    3012141.18446   2347121.19846                  23194582.4574
        14.0004         12.2504
  20350344.9304      78385.25948     61078.51847                  20350352.5744
        30.2504         26.0004
  23911405.5784   -1368883.53045  -1005257.68145                  23911419.0124
        11.7504         11.5004
  24096561.7274    2883457.24645   2246838.37445                  24096580.5394
        11.7504         10.7504
  21856931.8054   -1600241.44747  -1214334.21346                  21856943.0704
        23.0004         21.2504
  20758518.0314    1611965.19048   1246469.70646                  20758526.2384
        28.2504         25.2504
  21892277.5004   -1666587.65147  -1298638.75046                  21892286.9024
        25.7504         23.0004
 00  5  1 19  3 15.0000000  0  7G 4G 5G 6G 9G10G24G30
  23205300.2664    3068505.41046   2391041.31745                  23205309.8204
        13.2504         11.5004
  20351269.4144      83243.40148     64864.06247                  20351277.3754
        30.5004         26.2504
  23906550.3594   -1394397.06845  -1025138.31245                  23906563.8284
        11.2504         11.2504
  24106772.6804    2937115.81245   2288650.04545                  24106790.9884
        11.2504         10.5004
  21851749.8204   -1627471.95047  -1235552.72346                  21851761.1564
        22.7504         21.5004
  20764642.2034    1644147.62748   1271546.91846                  20764650.7154
        28.0004         25.2504
  21886781.7114   -1695468.06147  -1321142.94046                  21886791.2894
        26.2504         23.0004
 00  5  1 19  3 30.0000000  0  7G 4G 5G 6G 9G10G24G30
  23216026.1484    3124871.48246   2434962.90345                  23216035.3984
        13.5004         11.7504
  20352218.0554      88228.29148     68748.38247                  20352226.3094
        30.2504         26.5004
  23901693.0394   -1419924.39145  -1045029.65145                  23901707.4224
        11.0004         11.5004
  24116982.8834    2990767.25145   2330456.17145                  24117000.5124
        11.0004         10.2504
  21846585.0784   -1654612.90847  -1256701.45946                  21846596.2854
        22.2504         21.2504
  20770778.4844    1676393.58247   1296673.61746                  20770787.0084
        27.7504         25.2504
  21881301.7274   -1724266.00547  -1343582.87546                  21881311.1294
        26.2504         23.2504
 00  5  1 19  3 45.0000000  0  7G 4G 5G 6G 9G10G24G30
  23226752.5314    3181240.74046   2478886.95745                  23226761.5234
        14.0004         11.7504
  20353189.7274      93335.46148     72727.97847                  20353197.8874
        30.5004         26.2504
  23896832.7974   -1445465.20145  -1064931.50545                  23896846.1724
        11.7504         11.5004
  24127191.2504    3044413.48445   2372258.20045                  24127209.3714
        10.0004         10.2504
  21841437.2814   -1681664.73247  -1277780.73646                  21841449.1334
        21.7504         21.2504
  20776926.5234    1708701.24347   1321848.40746                  20776934.8014
        27.2504         25.2504
  21875837.7504   -1752979.61247  -1365957.08146                  21875847.0124
        26.2504         23.2504
 00  5  1 19  4  0.0000000  0  7G 4G 5G 6G 9G10G24G30
  23237481.0394    3237616.36546   2522815.97346                  23237491.1094
        14.2504         12.2504
  20354184.9694      98564.75548     76802.74047                  20354192.9304
        30.2504         26.0004
  23891970.5704   -1471016.57345  -1084841.58645                  23891984.0514
        11.7504         11.7504
  24137399.2584    3098056.97945   2414058.12245                  24137418.9024
         9.7504         10.2504
  21836306.4694   -1708625.10847  -1298788.74446                  21836318.5664
        22.2504         21.5004
  20783086.5004    1741073.03547   1347073.17346                  20783095.0354
        27.0004         25.5004
  21870389.6484   -1781609.00847  -1388265.67746                  21870398.8054
        26.2504         23.2504
 00  5  1 19  4 15.0000000  0  7G 4G 5G 6G 9G10G24G30
  23248209.7034    3293995.87446   2566748.04046                  23248219.7624
        13.7504         12.0004
  20355202.8524     103913.56348     80970.63047                  20355210.7774
        30.2504         26.2504
  23887105.2194   -1496579.47145  -1104760.65245                  23887118.7584
        11.7504         11.2504
  24147605.9534    3151693.83745   2455852.87645                  24147625.6094
         9.5004         10.5004
  21831193.7894   -1735494.14247  -1319725.59046                  21831205.0904
        22.7504         21.5004
  20789258.2664    1773505.44947   1372345.17546                  20789267.0124
        27.2504         25.5004
  21864956.9454   -1810157.05147  -1410510.87846                  21864965.9264
        26.5004         23.2504
 00  5  1 19  4 30.0000000  0  7G 4G 5G 6G 9G10G24G30
  23258938.4844    3350376.03946   2610680.58446                  23258948.3554
        13.7504         12.0004
  20356242.2664     109375.70248     85226.82947                  20356250.1334
        30.7504         26.5004
  23882238.8984   -1522152.22645  -1124687.39045                  23882252.8954
        11.0004         11.0004
  24157811.6254    3205323.88545   2497642.30545                  24157830.1214
         9.2504          9.5004
  21826097.7894   -1762272.74047  -1340591.97146                  21826108.9844
        23.0004         21.7504
  20795440.7504    1805995.59147   1397662.15246                  20795449.5554
        27.7504         25.5004
  21859539.2114   -1838628.45447  -1432696.36246                  21859548.3444
        26.7504         23.5004
 00  5  1 19  4 45.0000000  0  7G 4G 5G 6G 9G10G24G30
  23269667.7274    3406758.29746   2654614.77645                  23269678.1254
        13.5004         11.7504
  20357303.1334     114949.69648     89570.19147                  20357311.3404
        30.5004         26.0004
  23877371.6804   -1547730.83645  -1144618.70245                  23877386.2274
        11.2504         11.5004
  24168017.1884    3258951.56145   2539429.87145                  24168036.0824
         9.5004          9.5004
  21821019.8444   -1788958.14047  -1361385.73346                  21821031.1804
        22.7504         21.7504
  20801635.7114    1838549.55148   1423028.86246                  20801644.1294
        28.0004         25.2504
  21854136.2274   -1867021.96447  -1454821.14646                  21854145.3954
        27.0004         23.2504
 00  5  1 19  5  0.0000000  0  7G 4G 5G 6G 9G10G24G30
  23280396.9304    3463141.63846   2698549.81345                  23280406.7544
        14.0004         11.5004
  20358384.1094     120631.08648     93997.23247                  20358392.3874
        30.2504         26.2504
  23872502.6804   -1573315.69245  -1164554.88445                  23872518.1054
        10.5004         11.2504
  24178220.8524    3312572.96245   2581212.62245                  24178239.1954
         9.5004          8.5004
  21815958.6254   -1815554.68947  -1382110.24546                  21815970.1844
        22.2504         21.7504
  20807841.9844    1871165.19447   1448443.63246                  20807850.6724
        27.7504         25.2504
  21848746.4384   -1895344.38647  -1476890.54446                  21848755.4654
        26.7504         23.5004
 00  5  1 19  5 15.0000000  0  7G 4G 5G 6G 9G10G24G30
  23291127.5164    3519531.55646   2742489.97145                  23291138.1024
        12.7504         11.5004
  20359486.0314     126420.96048     98508.80947                  20359493.8164
        30.7504         26.2504
  23867633.1954   -1598907.04045  -1184496.10245                  23867646.6174
        11.0004         11.0004
  24188423.3364    3366187.15845   2622989.72345                  24188443.1684
         9.0004          9.0004
  21810914.0784   -1842061.56447  -1402764.88146                  21810925.5904
        22.2504         21.5004
  20814060.8284    1903843.99347   1473907.61746                  20814069.1174
        27.7504         25.2504
  21843370.5084   -1923596.07547  -1498904.82046                  21843379.4654
        26.5004         23.2504
 00  5  1 19  5 30.0000000  0  7G 4G 5G 6G 9G10G24G30
  23301860.2424    3575929.60746   2786436.46345                  23301870.5594
        13.2504         11.5004
  20360608.5784     132320.23148    103105.63347                  20360616.3054
        31.2504         26.0004
  23862761.0234   -1624508.80145  -1204445.47945                  23862774.8324
        10.7504         11.0004
  24198624.7504    3419795.49845   2664762.24745                  24198645.4534
         8.7504          8.7504
  21805887.1024   -1868479.08147  -1423349.89546                  21805898.4844
        22.2504         21.5004
  20820291.3134    1936584.50648   1499419.68846                  20820299.6134
        28.0004         25.5004
  21838007.7974   -1951777.25447  -1520864.16346                  21838016.5314
        26.7504         23.5004
 00  5  1 19  5 45.0000000  0  7G 4G 5G 6G 9G10G24G30
  23312593.6644    3632335.26746   2830388.89346                  23312603.5704
        13.0004         12.2504
  20361752.5084     138332.28548    107790.34047                  20361760.1054
        30.7504         26.0004
  23857886.8444   -1650122.10945  -1224403.80745                  23857901.6954
        10.5004         10.5004
  24208825.7974    3473399.72145   2706531.55745                  24208844.6334
         9.2504          9.0004
  21800877.4064   -1894806.56647  -1443864.75446                  21800888.7304
        22.7504         21.5004
  20826534.0084    1969389.96748   1524982.37146                  20826542.5434
        28.2504         25.5004
  21832658.6024   -1979886.97947  -1542767.82546                  21832667.4534
        27.0004         23.2504
 00  5  1 19  6  0.0000000  0  7G 4G 5G 6G 9G10G24G30
  23323328.3364    3688746.51746   2874345.67146                  23323338.7934
        12.7504         12.2504
  20362918.4774     144459.10948    112564.47647                  20362926.4734
        30.5004         26.2504
  23853009.8984   -1675748.33045  -1244372.19945                  23853023.2504
        11.2504         11.2504
  24219025.3834    3526999.14945   2748297.16745                  24219045.5204
         9.5004          9.5004
  21795884.8834   -1921041.49847  -1464307.50246                  21795896.3244
        23.0004         22.2504
  20832789.0864    2002261.31548   1550596.39847                  20832797.5164
        28.0004         25.7504
  21827322.5704   -2007928.79747  -1564618.56146                  21827331.4574
        27.0004         23.2504
 00  5  1 19  6 15.0000000  0  7G 4G 5G 6G 9G10G24G30
  23334063.4694    3745160.32446   2918304.43746                  23334073.2934
        13.0004         12.0004
  20364106.7664     150702.77448    117429.65347                  20364114.8094
        30.2504         26.0004
  23848130.2974   -1701391.64845  -1264353.94845                  23848143.7664
        10.7504         10.5004
  24229223.4844    3580586.53245   2790053.35745                  24229241.9804
         9.7504          9.5004
  21790910.1954   -1947183.73847  -1484678.02746                  21790921.4384
        22.5004         21.7504
  20839056.4774    2035194.46048   1576258.57847                  20839065.0004
        28.7504         25.7504
  21821998.4694   -2035905.18947  -1586418.33446                  21822007.3914
        27.2504         23.5004
 00  5  1 19  6 30.0000000  0  7G 4G 5G 6G 9G10G24G30
  23344798.9924    3801576.78446   2962265.29145                  23344808.9924
        12.5004         11.5004
  20365317.5394     157066.59048    122388.45547                  20365325.2774
        30.7504         26.2504
  23843246.9304   -1727053.47345  -1284350.07745                  23843260.1764
         9.7504         10.5004
  24239418.4384    3634161.34445   2831799.74145                  24239438.7274
        10.0004         10.2504
  21785952.9224   -1973233.57147  -1504976.54046                  21785964.1414
        22.2504         21.5004
  20845334.6884    2068187.91248   1601967.74146                  20845343.0234
        28.7504         25.5004
  21816687.4924   -2063814.82847  -1608166.08546                  21816696.1214
        27.7504         23.5004
 00  5  1 19  6 45.0000000  0  7G 4G 5G 6G 9G10G24G30
  23355535.3054    3857996.38646   3006228.57345                  23355546.2424
        13.0004         11.5004
  20366552.0784     163553.28648    127443.01747                  20366559.8984
        30.5004         26.2504
  23838359.9614   -1752735.57245  -1304362.01245                  23838374.7424
         9.7504         10.2504
  24249611.5634    3687724.72545   2873537.24345                  24249631.7114
        10.2504         10.7504
  21781012.7974   -1999193.71547  -1525205.16446                  21781024.4264
        22.7504         21.7504
  20851625.0864    2101243.85648   1627725.61047                  20851633.2584
        29.2504         25.7504
  21811389.6024   -2091655.94247  -1629860.43046                  21811398.5004
        27.5004         24.0004
 00  5  1 19  7  0.0000000  0  7G 4G 5G 6G 9G10G24G30
  23366272.9614    3914422.81446   3050197.15846                  23366283.4304
        12.5004         12.0004
  20367811.1564     170169.93448    132598.82647                  20367819.0004
        30.5004         26.2504
  23833469.6484   -1778434.83845  -1324387.34545                  23833483.2704
        10.5004         11.0004
  24259801.6644    3741275.65545   2915265.02945                  24259821.3324
        10.0004         10.5004
  21776090.5944   -2025060.93647  -1545361.38546                  21776102.1524
        22.7504         22.2504
  20857927.6254    2134364.22248   1653533.66547                  20857935.6564
        28.7504         25.7504
  21806106.0394   -2119421.57947  -1651495.97646                  21806115.1374
        27.7504         23.5004
 00  5  1 19  7 15.0000000  0  7G 4G 5G 6G 9G10G24G30
  23377012.0704    3970856.04646   3094171.07045                  23377022.1884
        13.0004         11.2504
  20369095.1094     176917.92048    137856.98147                  20369103.1524
        30.5004         26.0004
  23828575.4064   -1804153.18745  -1344427.59145                  23828597.0354
        10.5004          6.2504
  24269990.5314    3794813.08445   2956982.28045                  24270009.9414
        10.7504         10.7504
  21771186.3134   -2050832.20347  -1565442.82146                  21771197.6024
        23.2504         21.7504
  20864242.0864    2167546.29548   1679389.80946                  20864250.4224
        28.5004         25.5004
  21800837.1334   -2147109.62947  -1673071.05346                  21800846.0784
        27.7504         23.7504
 00  5  1 19  7 30.0000000  0  7G 4G 5G 6G 9G10G24G30
  23387751.4384    4027290.83246   3138146.18645                  23387761.8014
        13.0004         11.7504
  20370404.0864     183796.43548    143216.84747                  20370412.1994
        30.7504         26.5004
  23823676.6644   -1829893.95845  -1364485.20345                  23823692.6294
        10.7504          9.7504
  24280175.5554    3848336.82045   2998688.88945                  24280195.6334
        11.0004         11.0004
  21766300.3134   -2076508.51347  -1585450.28746                  21766311.3324
        22.7504         22.2504
  20870567.9844    2200790.13847   1705294.07946                  20870576.3324
        27.7504         25.5004
  21795583.3594   -2174719.01448  -1694584.83946                  21795592.3284
        28.0004         23.7504
 00  5  1 19  7 45.0000000  0  7G 4G 5G 6G 9G10G24G30
  23398490.2424    4083722.78146   3182119.07145                  23398499.3634
        13.5004         11.2504
  20371737.7194     190804.79048    148677.88947                  20371745.5864
        30.2504         26.2504
  23818775.1334   -1855653.62345  -1384557.59645                  23818789.2934
        10.2504         10.5004
  24290357.8834    3901844.24945   3040382.79745                  24290377.0594
        11.0004         10.5004
  21761431.8204   -2102090.15847  -1605383.97846                  21761443.1914
        22.7504         22.0004
  20876906.1174    2234096.16547   1731246.80847                  20876914.6764
        27.7504         25.7504
  21790344.3134   -2202249.12548  -1716036.85246                  21790353.2934
        28.5004         24.0004
 00  5  1 19  8  0.0000000  0  7G 4G 5G 6G 9G10G24G30
  23409228.9454    4140157.14846   3226093.89145                  23409239.2624
        12.7504         11.5004
  20373096.6804     197945.44048    154242.01647                  20373104.4534
        30.5004         26.2504
  23813871.0474   -1881422.21545  -1404636.94045                  23813884.4694
        10.7504         10.5004
  24300536.6644    3955336.06845   3082064.52445                  24300555.4774
        11.2504         10.7504
  21756582.9384   -2127572.41847  -1625240.21746                  21756594.4384
        22.5004         21.7504
  20883256.8914    2267470.77348   1757252.98147                  20883265.4494
        28.0004         25.7504
  21785121.6174   -2229694.50448  -1737422.83646                  21785130.6334
        28.5004         24.0004
 00  5  1 19  8 15.0000000  0  7G 4G 5G 6G 9G10G24G30
  23419968.1564    4196589.79746   3270067.33046                  23419978.3554
        13.2504         12.0004
  20374478.7894     205209.32548    159902.17447                  20374486.7384
        30.7504         26.5004
  23808965.1644   -1907204.38645  -1424726.86945                  23808978.9264
        11.5004         11.0004
  24310711.4224    4008802.63245   3123726.57445                  24310731.2424
        11.0004         10.5004
  21751751.0164   -2152964.42547  -1645026.14346                  21751762.1414
        22.2504         21.7504
  20889619.9454    2300907.00448   1783307.17347                  20889628.5044
        28.7504         26.0004
  21779914.4694   -2257058.81548  -1758745.64246                  21779923.3204
        28.2504         24.0004
 00  5  1 19  8 30.0000000  0  7G 4G 5G 6G 9G10G24G30
  23430707.9614    4253028.98646   3314045.87245                  23430718.6174
        13.7504         11.7504
  20375885.5784     212601.02348    165661.92347                  20375893.7384
        30.7504         26.2504
  23804057.9384   -1932990.35045  -1444819.75545                  23804070.9264
        11.0004         10.7504
  24320882.6954    4062253.42545   3165376.35745                  24320902.7034
        10.5004         10.7504
  21746936.9534   -2178261.46047  -1664738.06346                  21746948.2424
        22.0004         21.7504
  20895995.9774    2334413.24048   1809415.90847                  20896004.4654
        29.2504         26.2504
  21774724.0164   -2284331.98647  -1779997.44446                  21774733.0204
        27.2504         24.0004
 00  5  1 19  8 45.0000000  0  7G 4G 5G 6G 9G10G24G30
  23441448.0634    4309468.90246   3358024.99045                  23441457.9574
        13.0004         11.0004
  20377314.8834     220112.48848    171514.99747                  20377323.2774
        30.0004         26.2504
  23799149.7274   -1958783.49945  -1464918.23445                  23799162.6564
        11.2504         11.2504
  24331050.8674    4115686.23245   3207012.10845                  24331070.8404
        10.0004         11.0004
  21742140.2504   -2203468.76747  -1684380.06346                  21742151.4574
        22.2504         22.0004
  20902385.1024    2367988.83648   1835578.69147                  20902393.5664
        29.7504         26.2504
  21769551.1174   -2311517.33047  -1801180.81246                  21769560.1334
        27.2504         24.0004
 00  5  1 19  9  0.0000000  0  7G 4G 5G 6G 9G10G24G30
  23452187.5084    4365904.10146   3402000.42445                  23452197.3094
        13.5004         11.5004
  20378766.0394     227738.05848    177456.98447                  20378773.8014
        30.5004         26.0004
  23794239.5634   -1984585.99145  -1485024.00845                  23794253.0664
        11.5004         11.5004
  24341214.8444    4169097.06945   3248630.74645                  24341235.4774
        10.2504         10.2504
  21737361.0634   -2228583.97747  -1703950.31046                  21737372.3404
        22.7504         22.5004
  20908786.8444    2401630.18548   1861792.71247                  20908795.2854
        29.5004         26.0004
  21764394.3914   -2338616.76347  -1822297.22646                  21764403.1604
        27.5004         24.0004
 00  5  1 19  9 15.0000000  0  7G 4G 5G 6G 9G10G24G30
  23462926.0864    4422336.71046   3445973.84545                  23462936.3794
        13.2504         11.7504
  20380238.8444     235477.79148    183487.93447                  20380246.5004
        30.5004         26.0004
  23789328.1954   -2010396.09445  -1505135.69445                  23789341.5124
        11.2504         11.2504
  24351374.9304    4222486.85845   3290232.93845                  24351396.4654
        10.0004         11.2504
  21732599.7584   -2253603.02147  -1723445.60746                  21732611.0354
        22.5004         22.5004
  20915201.5004    2435338.00648   1888058.53047                  20915209.9414
        29.0004         26.0004
  21759253.8364   -2365629.78147  -1843346.30446                  21759262.9804
        27.2504         24.0004
 00  5  1 19  9 30.0000000  0  7G 4G 5G 6G 9G10G24G30
  23473664.3444    4478764.80746   3489943.76245                  23473675.1054
        13.2504         11.7504
  20381732.8914     243329.61548    189606.22647                  20381740.9104
        30.5004         26.0004
  23784414.9844   -2036213.53946  -1525253.12645                  23784427.8794
        12.2504         11.7504
  24361531.2814    4275859.29945   3331821.66645                  24361551.9384
         9.7504         10.0004
  21727856.9844   -2278525.26247  -1742865.47846                  21727868.3914
        23.0004         22.5004
  20921628.3754    2469112.86248   1914376.58447                  20921636.7814
        28.7504         26.0004
  21754129.5944   -2392558.33747  -1864329.57546                  21754138.4804
        27.0004         24.0004
 00  5  1 19  9 45.0000000  0  7G 4G 5G 6G 9G10G24G30
  23484400.6724    4535185.63846   3533907.99846                  23484411.3634
        12.7504         12.0004
  20383247.3674     251288.69148    195808.08547                  20383255.6914
        30.0004         26.0004
  23779500.4924   -2062040.55046  -1545377.97645                  23779512.3444
        12.7504         11.2504
  24371683.5314    4329209.32845   3373392.89245                  24371704.4694
         9.0004         10.2504
  21723132.0314   -2303356.49347  -1762214.43146                  21723143.4964
        23.0004         22.2504
  20928067.3524    2502949.32648   1940742.64747                  20928075.7814
        28.5004         26.0004
  21749020.2734   -2419406.99547  -1885250.58246                  21749029.3014
        27.2504         24.0004
 00  5  1 19 10  0.0000000  0  7G 4G 5G 6G 9G10G24G30
  23495136.7734    4591602.32246   3577869.00246                  23495146.7504
        12.7504         12.0004
  20384782.5394     259354.43248    202093.06347                  20384790.8284
        30.2504         26.2504
  23774584.1174   -2087876.43346  -1565509.77445                  23774596.6724
        12.2504         11.5004
  24381831.6254    4382535.35145   3414945.41045                  24381852.7624
         8.7504         10.2504
  21718424.5234   -2328093.53747  -1781490.00046                  21718435.5664
        23.5004         22.2504
  20934517.4924    2536845.90348   1967155.54947                  20934526.0274
        28.2504         26.0004
  21743926.2194   -2446176.36247  -1906109.80746                  21743935.1764
        27.0004         24.0004
 00  5  1 19 10 15.0000000  0  7G 4G 5G 6G 9G10G24G30
  23505872.0314    4648019.10146   3621830.09346                  23505882.1484
        13.7504         12.0004
  20386338.4454     267531.28048    208464.61647                  20386346.3364
        30.2504         26.2504
  23769666.1884   -2113721.23046  -1585648.50346                  23769678.7774
        12.7504         12.2504
  24391976.1334    4435842.85945   3456483.50145                  24391997.3874
         9.0004         10.2504
  21713735.9614   -2352731.99847  -1800688.74246                  21713746.8054
        23.7504         22.2504
  20940979.9534    2570807.14448   1993618.83347                  20940988.6764
        28.2504         26.0004
  21738847.9534   -2472863.24947  -1926904.76246                  21738856.8404
        26.5004         23.7504
 00  5  1 19 10 30.0000000  0  7G 4G 5G 6G 9G10G24G30
  23516608.0944    4704432.95746   3665788.89045                  23516618.1764
        13.2504         11.5004
  20387915.4384     275818.10348    214921.86847                  20387923.2114
        30.7504         26.0004
  23764745.4614   -2139578.78646  -1605797.19546                  23764757.8874
        13.2504         12.2504
  24402116.7584    4489133.91745   3498008.81245                  24402138.6334
         9.2504          9.7504
  21709066.7974   -2377269.48347  -1819808.81446                  21709077.4414
        23.7504         22.2504
  20947454.5554    2604831.37548   2020131.20547                  20947463.2304
        28.0004         26.0004
  21733784.7664   -2499470.27047  -1947637.49146                  21733793.9574
        26.5004         24.0004
 00  5  1 19 10 45.0000000  0  7G 4G 5G 6G 9G10G24G30
  23527341.3524    4760840.90846   3709743.10545                  23527351.8914
        13.2504         11.5004
  20389513.6884     284216.67248    221466.19447                  20389521.6374
        30.0004         26.0004
  23759822.4694   -2165450.41946  -1625956.84346                  23759834.5664
        13.0004         12.5004
  24412254.7894    4542409.20145   3539521.79045                  24412275.2194
         9.2504         10.0004
  21704417.8444   -2401700.50747  -1838845.92346                  21704428.3244
        24.0004         22.5004
  20953941.3284    2638918.23748   2046692.37447                  20953950.1914
        28.2504         26.0004
  21728736.1954   -2526000.67547  -1968310.51946                  21728745.2584
        27.0004         24.0004
 00  5  1 19 11  0.0000000  0  7G 4G 5G 6G 9G10G24G30
  23538074.7194    4817244.04546   3753693.53945                  23538084.7774
        13.2504         11.7504
  20391133.8134     292731.12648    228100.81447                  20391142.1374
        29.7504         26.2504
  23754896.3914   -2191334.85546  -1646126.45746                  23754909.2034
        13.0004         12.0004
  24422389.7274    4595667.25645   3581021.40145                  24422410.5124
         9.7504          9.7504
  21699789.6644   -2426020.86547  -1857796.79246                  21699800.6254
        24.0004         22.5004
  20960439.3914    2673066.81048   2073301.63747                  20960448.1954
        28.0004         26.0004
  21723702.4924   -2552453.84847  -1988923.36046                  21723711.3204
        27.5004         24.0004
 00  5  1 19 11 15.0000000  0  7G 4G 5G 6G 9G10G24G30
  23548806.8914    4873641.05446   3797639.21345                  23548816.9024
        13.2504         11.5004
  20392776.3754     301362.59748    234826.62047                  20392784.8054
        30.5004         26.2504
  23749967.7584   -2217233.22346  -1666306.91746                  23749980.1134
        12.7504         12.0004
  24432520.7114    4648904.97245   3622505.12145                  24432542.2584
         9.2504          9.2504
  21695182.0084   -2450233.73647  -1876663.91046                  21695192.9454
        24.2504         23.2504
  20966948.3754    2707271.29847   2099954.46547                  20966957.3554
        27.5004         25.7504
  21718682.3984   -2578832.99547  -2009478.51946                  21718691.2034
        27.2504         24.0004
 00  5  1 19 11 30.0000000  0  7G 4G 5G 6G 9G10G24G30
  23559538.4224    4930034.91646   3841582.43945                  23559548.2704
        13.2504         11.5004
  20394441.2584     310112.55848    241644.75747                  20394449.3484
        30.5004         26.2504
  23745037.7034   -2243143.71846  -1686496.86846                  23745049.6254
        12.5004         12.2504
  24442647.4064    4702124.17645   3663974.43945                  24442668.9064
         9.0004          9.5004
  21690594.1954   -2474342.09647  -1895449.59046                  21690605.1334
        24.2504         23.2504
  20973468.0164    2741533.54947   2126652.30747                  20973477.1024
        27.2504         25.7504
  21713676.8674   -2605137.84047  -2029975.78746                  21713685.9414
        27.2504         24.2504
 00  5  1 19 11 45.0000000  0  7G 4G 5G 6G 9G10G24G30
  23570268.2504    4986422.43646   3885520.73545                  23570278.4144
        13.0004         11.2504
  20396128.7344     318979.92848    248554.37947                  20396136.8714
        30.0004         26.2504
  23740104.2894   -2269068.93946  -1706698.26246                  23740116.8444
        13.0004         12.5004
  24452771.5234    4755321.44345   3705426.60845                  24452792.0984
         9.0004          9.5004
  21686025.4534   -2498349.99947  -1914157.00146                  21686036.5204
        23.5004         23.0004
  20979998.3204    2775849.94447   2153392.34347                  20980007.3484
        27.5004         26.0004
  21708685.1484   -2631369.91447  -2050416.34646                  21708694.1644
        27.2504         24.5004
 00  5  1 19 12  0.0000000  0  7G 4G 5G 6G 9G10G24G30
  23580997.9534    5042806.32646   3929456.18345                  23581007.6724
        13.5004         11.7504
  20397839.8444     327971.36548    255560.67947                  20397848.2034
        30.0004         26.2504
  23735168.0554   -2295006.33846  -1726909.18046                  23735180.3984
        12.7504         12.7504
  24462890.3914    4808495.67845   3746860.87145                  24462911.5394
         9.0004          9.5004
  21681476.8444   -2522254.35647  -1932783.72046                  21681487.6764
        24.2504         23.0004
  20986539.5784    2810223.58647   2180176.98047                  20986548.3014
        27.7504         26.0004
  21703708.0554   -2657524.80848  -2070796.76546                  21703717.1524
        28.0004         24.7504
 00  5  1 19 12 15.0000000  0  7G 4G 5G 6G 9G10G24G30
  23591726.3524    5099182.69646   3973385.78045                  23591736.5744
        13.5004         11.5004
  20399574.5944     337087.30648    262664.00047                  20399582.8014
        30.0004         26.2504
  23730230.1484   -2320955.79246  -1747129.45246                  23730242.8444
        13.2504         12.7504
  24473004.6644    4861646.17145   3788276.61645                  24473024.6844
         9.2504          9.0004
  21676947.7664   -2546054.72047  -1951329.40946                  21676959.0434
        23.7504         23.2504
  20993091.9614    2844656.44947   2207007.77047                  20993101.0004
        27.7504         26.0004
  21698745.5634   -2683601.36247  -2091116.13346                  21698754.6484
        27.5004         25.0004
 00  5  1 19 12 30.0000000  0  7G 4G 5G 6G 9G10G24G30
  23602452.4844    5155548.63246   4017307.24345                  23602462.3094
        13.5004         10.7504
  20401332.5784     346325.74648    269862.76247                  20401340.9384
        30.0004         26.2504
  23725289.8204   -2346917.59446
        13.0004
  24483114.0084    4914772.35745   3829673.46845                  24483135.0274
         9.0004          8.7504
  21672437.9224   -2569753.48347  -1969795.92046                  21672449.4224
        23.7504         23.2504
  20999655.2814    2879146.16047   2233882.85747                  20999664.1094
        27.7504         26.2504
  21693798.5314   -2709598.79547  -2111373.84346                  21693807.4774
        27.2504         24.7504
 00  5  1 19 12 45.0000000  0  7G 4G 5G 6G 9G10G24G30
  23613176.1094    5211901.86546   4061218.80145                  23613186.6024
        13.5004         11.0004
  20403113.0864     355683.46448    277154.48047                  20403121.4224
        29.7504         26.2504
  23720346.8364   -2372892.11046
        13.0004
  24493218.4064    4967868.21145   3871046.63945                  24493237.5594
         9.0004          8.5004
  21667946.4694   -2593356.12147  -1988187.53346                  21667957.6174
        24.0004         23.5004
  21006227.7734    2913685.73047   2260796.79547                  21006236.7304
        27.2504         26.2504
  21688866.0084   -2735519.56648  -2131571.84846                  21688875.1294
        28.2504         25.0004
 00  5  1 19 13  0.0000000  0  7G 4G 5G 6G 9G10G24G30
  23623898.0394    5268245.77646   4105123.10845                  23623908.3204
        13.2504         11.2504
  20404917.2344     365163.70048    284541.65547                  20404925.5474
        29.7504         26.0004
  23715402.7504   -2398873.99946
        12.5004
  24503316.2194    5020932.39845   3912395.18245                  24503337.1804
         9.5004          8.2504
  21663473.0164   -2616864.61947  -2006505.79246                  21663484.0124
        23.7504         23.2504
  21012810.3674    2948277.60447   2287751.48847                  21012819.4654
        27.2504         26.0004
  21683949.0314   -2761357.51448  -2151705.28946                  21683958.0234
        29.0004         25.0004
 00  5  1 19 13 15.0000000  0  7G 4G 5G 6G 9G10G24G30
  23634618.4844    5324581.45846   4149021.00345                  23634628.9414
        13.5004         11.0004
  20406744.2504     374764.16248    292022.52047                  20406752.6804
        29.7504         26.2504
  23710457.6414   -2424861.80646
        13.0004
  24513407.6954    5073965.42245   3953719.43745                  24513428.0434
         9.5004          8.7504
  21659016.5554   -2640282.33347  -2024753.30646                  21659027.5514
        23.7504         23.0004
  21019402.7424    2982921.24147   2314746.51747                  21019411.8874
        27.0004         26.0004
  21679048.6024   -2787110.20648  -2171772.29146                  21679057.5824
        29.2504         25.0004
 00  5  1 19 13 30.0000000  0  7G 4G 5G 6G 9G10G24G30
  23645337.8284    5380911.38646   4192914.41945                  23645347.8284
        14.0004         11.0004
  20408594.0004     384485.36148    299597.46547                  20408602.4304
        29.7504         26.0004
  23705511.0164   -2450854.58746     -5400.98256                  23705523.7464
        13.5004         12.7504
  24523494.6254    5126971.03545   3995022.28945                  24523515.7854
         9.5004          9.0004
  21654577.8444   -2663608.05047  -2042929.13146                  21654588.6764
        23.7504         23.0004
  21026006.3594    3017622.90047   2341786.75247                  21026015.6684
        27.0004         25.7504
  21674164.9774   -2812774.08548  -2191770.10046                  21674174.1334
        28.7504         25.2504
 00  5  1 19 13 45.0000000  0  7G 4G 5G 6G 9G10G24G30
  23656055.0944    5437232.53946   4236800.97345                  23656065.0474
        13.0004         11.2504
  20410466.0004     394322.69148    307262.90447                  20410474.0434
        29.7504         26.0004
  23700563.2194   -2476855.94446    -25661.71946                  23700576.1484
        13.2504         12.5004
  24533575.8834    5179946.28045   4036301.47745                  24533596.4184
         9.7504          9.5004
  21650156.8134   -2686841.03747  -2061032.69246                  21650167.4344
        24.5004         23.5004
  21032620.6094    3052380.67247   2368870.72047                  21032629.9184
        26.7504         25.7504
  21669297.7504   -2838350.87248  -2211700.04746                  21669306.8484
        28.7504         25.2504
 00  5  1 19 14  0.0000000  0  7G 4G 5G 6G 9G10G24G30
  23666770.6174    5493542.39746   4280678.72345                  23666780.6524
        12.2504         10.5004
  20412360.3914     404277.00848    315019.49847                  20412368.3634
        30.0004         26.0004
  23695613.5864   -2502865.73346    -45929.04046                  23695625.8834
        12.5004         12.5004
  24543650.9614    5232891.19945   4077557.06445                  24543672.6954
        10.2504          9.5004
  21645753.6644   -2709978.75347  -2079062.02946                  21645764.3204
        24.2504         23.5004
  21039245.0234    3087193.06147   2395997.24047                  21039254.5904
        26.7504         25.7504
  21664447.0474   -2863841.38148  -2231562.75446                  21664455.9924
        29.0004         25.5004
 00  5  1 19 14 15.0000000  0  7G 4G 5G 6G 9G10G24G30
  23677484.1644    5549842.00846   4324548.51345                  23677494.4574
        12.7504         10.2504
  20414276.5864     414347.14248    322866.34147                  20414284.6414
        30.2504         26.2504
  23690662.9534   -2528882.32846    -66201.63646                  23690675.3554
        12.5004         12.5004
  24553721.2424    5285807.90845   4118790.67045                  24553742.3444
        10.0004          9.7504
  21641369.5314   -2733017.04747  -2097013.88946                  21641380.3284
        23.2504         23.2504
  21045880.8284    3122063.53647   2423169.03147                  21045890.0904
        26.7504         25.7504
  21659613.1804   -2889243.91448  -2251356.91946                  21659622.1484
        29.7504         25.5004
 00  5  1 19 14 30.0000000  0  7G 4G 5G 6G 9G10G24G30
  23688195.7194    5606132.53446   4368411.22145                  23688205.6604
        12.7504         11.5004
  20416214.5164     424530.19748    330801.17447                  20416222.7114
        30.0004         26.2504
  23685710.1094   -2554907.63346    -86481.04046                  23685723.4264
        12.2504         12.0004
  24563786.1414    5338697.36145   4160003.00545                  24563806.3834
         9.7504         10.0004
  21637004.0704   -2755957.30247  -2114889.35446                  21637015.1844
        23.7504         23.2504
  21052527.1334    3156990.46247   2450384.80947                  21052536.1954
        27.0004         25.7504
  21654795.7814   -2914558.65148  -2271082.66946                  21654804.9734
        29.5004         25.5004
 00  5  1 19 14 45.0000000  0  7G 4G 5G 6G 9G10G24G30
  23698906.2584    5662417.47446   4412269.58545                  23698916.4104
        12.2504         11.0004
  20418174.6174     434830.08748    338827.04647                  20418182.9774
        30.0004         26.2504
  23680756.3134   -2580939.76746   -106765.75746                  23680768.6804
        12.5004         12.7504
  24573845.9534    5391562.40345   4201196.35845                  24573867.2074
         9.5004         10.2504
  21632657.9844   -2778795.23147  -2132685.09846                  21632668.6764
        23.7504         23.2504
  21059184.4844    3191974.86147   2477645.36947                  21059193.5704
        27.5004         26.0004
  21649995.7424   -2939784.68648  -2290739.30946                  21650004.9104
        29.7504         25.5004
 00  5  1 19 15  0.0000000  0  7G 4G 5G 6G 9G10G24G30
  23709616.1804    5718697.18245   4456123.84845                  23709626.3674
        11.7504         10.5004
  20420157.4534     445249.56548    346946.09947                  20420165.6484
        30.0004         26.2504
  23675801.1334   -2606980.83146   -127057.43946                  23675813.5594
        13.0004         12.2504
  24583901.9844    5444404.14145   4242371.50145                  24583923.9884
         9.2504          9.5004
  21628332.4224   -2801528.05547  -2150398.93846                  21628342.9384
        24.5004         23.5004
  21065853.1954    3227019.82547   2504953.12047                  21065862.1174
        27.7504         26.0004
  21645212.6334   -2964920.33748  -2310325.51246                  21645221.7424
        29.7504         25.5004
 00  5  1 19 15 15.0000000  0  7G 4G 5G 6G 9G10G24G30
  23720323.8444    5774966.30645   4499969.83645                  23720334.6994
        11.7504         10.5004
  20422162.4384     455786.55548    355156.72647                  20422170.5164
        29.7504         26.0004
  23670842.0314   -2633036.91546   -147360.82346                  23670855.0434
        12.7504         12.2504
  24593952.7664    5497222.66645   4283528.60145                  24593975.0864
         9.2504          9.7504
  21624026.2424   -2824155.59547  -2168030.74246                  21624037.1214
        24.2504         24.0004
  21072533.2584    3262121.92048   2532305.38947                  21072542.2384
        28.0004         26.0004
  21640445.6484   -2989970.09548  -2329844.79146                  21640454.7344
        29.7504         25.5004
 00  5  1 19 15 30.0000000  0  7G 4G 5G 6G 9G10G24G30
  23731029.7034    5831224.74945   4543807.56645                  23731040.6524
        11.7504         10.7504
  20424190.0004     466442.58048    363460.10747                  20424198.1254
        29.5004         26.2504
  23665880.8984   -2659110.14146   -167677.56846                  23665893.3834
        12.5004         12.2504
  24604000.5234    5550022.33345   4324670.99345                  24604022.1884
         9.7504          9.7504
  21619741.4614   -2846673.27347  -2185576.92446                  21619752.7974
        24.5004         24.2504
  21079223.6884    3297281.94247   2559702.79547                  21079232.5634
        27.7504         26.0004
  21635694.9774   -3014934.87048  -2349297.84246                  21635703.9574
        29.7504         25.5004
 00  5  1 19 15 45.0000000  0  7G 4G 5G 6G 9G10G24G30
  23741733.8914    5887475.12045   4587638.96945                  23741743.5984
        11.2504         10.2504
  20426241.4144     477222.41648    371859.95747                  20426249.8094
        29.7504         26.0004
  23660916.2814   -2685198.48346   -188006.08246                  23660929.3984
        12.5004         12.2504
  24614044.5474    5602802.80145   4365798.40845                  24614065.1804
         9.5004         10.2504
  21615478.4924   -2869075.41447  -2203033.08246                  21615489.4414
        24.7504         24.0004
  21085925.9384    3332500.32847   2587145.68347                  21085934.9304
        27.7504         26.0004
  21630960.3914   -3039814.76448  -2368684.76346                  21630969.1954
        29.7504         25.5004
 00  5  1 19 16  0.0000000  0  7G 4G 5G 6G 9G10G24G30
  23752435.6724    5943715.99645   4631462.96445                  23752446.4344
        11.5004         10.7504
  20428316.6334     488126.83848    380356.88947                  20428325.2384
        29.5004         26.2504
  23655948.6484   -2711303.27446   -208347.41846                  23655962.1414
        12.5004         12.5004
  24624084.7894    5655564.46245   4406911.20945                  24624106.4304
         9.2504          9.7504
  21611237.4694   -2891361.87847  -2220399.10046                  21611248.5004
        24.5004         24.0004
  21092637.8914    3367772.40847   2614630.41047                  21092646.9414
        27.2504         25.7504
  21626242.1254   -3064608.59148  -2388004.60946                  21626250.9064
        29.7504         25.5004
 00  5  1 19 16 15.0000000  0  7G 4G 5G 6G 9G10G24G30
  23763136.1334    5999946.33345   4675278.76345                  23763146.7304
        11.5004         10.2504
  20430415.2274     499155.22548    388950.42247                  20430423.7734
        29.7504         26.5004
  23650977.2194   -2737427.46446   -228703.88746                  23650989.9264
        12.0004         12.2504
  24634120.7974    5708303.65445   4448006.48045                  24634142.3554
         9.0004          9.2504
  21607017.4844   -2913535.58147  -2237677.26046                  21607028.2814
        24.5004         23.7504
  21099360.0164    3403098.47547   2642157.20446                  21099369.0554
        26.7504         25.5004
  21621540.8134   -3089315.34048  -2407256.60946                  21621549.5944
        29.5004         25.5004
 00  5  1 19 16 30.0000000  0  7G 4G 5G 6G 9G10G24G30
  23773835.8914    6056172.12545   4719091.03245                  23773846.9224
        11.2504         10.2504
  20432538.6804     510314.15048    397645.66847                  20432547.3444
        29.7504         26.5004
  23646003.2814   -2763568.94146   -249073.81746                  23646017.5124
        12.2504         12.5004
  24644152.8674    5761022.34045   4489085.76145                  24644174.3324
         8.0004          9.0004
  21602819.7814   -2935596.14747  -2254867.25546                  21602830.2274
        24.2504         23.2504
  21106092.6174    3438478.60647   2669726.13146                  21106101.7624
        27.2504         25.5004
  21616856.8754   -3113929.38148  -2426436.36346                  21616865.4454
        28.7504         25.5004
 00  5  1 19 16 45.0000000  0  7G 4G 5G 6G 9G10G24G30
  23784533.7894    6112390.58845   4762897.56845                  23784543.6604
        10.7504          9.7504
  20434687.1334     521603.53048    406442.56647                  20434695.9494
        29.2504         26.7504
  23641024.3134   -2789729.98346   -269458.97146                  23641036.8204
        12.7504         12.2504
  24654179.9534    5813717.35644   4530146.59745                  24654202.8244
         7.2504          9.0004
  21598642.6254   -2957545.51947  -2271970.60746                  21598653.1994
        24.2504         23.7504
  21112834.5234    3473908.15747   2697333.56046                  21112843.7154
        27.2504         25.5004
  21612189.9534   -3138453.19648  -2445545.81546                  21612198.6644
        29.5004         25.5004
 00  5  1 19 17  0.0000000  0  7G 4G 5G 6G 9G10G24G30
  23795229.9534    6168599.94045   4806697.01245                  23795240.7974
        11.0004         10.0004
  20436860.1174     533023.04548    415340.86547                  20436869.0394
        30.0004         26.7504
  23636042.5004   -2815910.98146   -289859.67246                  23636055.8054
        12.7504         12.5004
  24664203.2194    5866388.24044   4571188.61945                  24664226.5824
         6.7504          8.5004
  21594487.1484   -2979383.43047  -2288987.10746                  21594497.9574
        24.2504         23.7504
  21119585.8444    3509386.90847   2724979.33346                  21119594.9414
        27.2504         25.5004
  21607540.8204   -3162885.36148  -2464583.85046                  21607549.6604
        29.5004         25.2504
 00  5  1 19 17 15.0000000  0  7G 4G 5G 6G 9G10G24G30
  23805923.9454    6224796.11945   4850486.19845                  23805934.7304
        11.0004         10.0004
  20439057.4534     544569.85448    424338.36047                  20439066.3634
        30.0004         26.7504
  23631056.0394   -2842113.66146   -310277.30046                  23631068.8164
        13.0004         12.7504
  24674221.1564    5919029.64444   4612207.68245                  24674244.0514
         7.2504          8.2504
  21590351.3524   -3001116.61347  -2305921.99246                  21590362.3134
        23.7504         24.2504
  21126346.0704    3544911.44547   2752660.78147                  21126355.1214
        27.0004         25.7504
  21602908.4144   -3187228.44748  -2483552.46846                  21602917.1254
        29.2504         25.2504
 00  5  1 19 17 30.0000000  0  7G 4G 5G 6G 9G10G24G30
  23816616.3364    6280983.96545   4894268.87645                  23816627.2034
        11.2504         10.0004
  20441279.0634     556245.04848    433435.89247                  20441287.6914
        29.7504         26.7504
  23626066.6024   -2868332.05946   -330707.16446                  23626079.1214
        12.5004         12.7504
  24684232.5394    5971642.86745   4653204.81145                  24684253.2544
         8.0004          8.2504
  21586236.1644   -3022741.73547  -2322772.68246                  21586247.1374
        24.5004         24.2504
  21133115.6094    3580484.23548   2780379.83147                  21133124.6844
        28.0004         25.7504
  21598293.4774   -3211480.02748  -2502449.79046                  21598302.4104
        28.5004         25.2504
 00  5  1 19 17 45.0000000  0  7G 4G 5G 6G 9G10G24G30
  23827306.7814    6337163.39045   4938044.99845                  23827316.4534
        11.0004         10.2504
  20443524.8754     568046.10748    442631.50447                  20443533.3054
        29.7504         26.7504
  23621074.6724   -2894567.07646   -351149.97446                  23621088.2234
        12.5004         12.5004
  24694238.8984    6024222.40745   4694175.63845                  24694261.3594
         7.7504          8.7504
  21582140.9844   -3044261.84647  -2339541.55046                  21582151.7344
        24.2504         24.0004
  21139893.9924    3616104.31148   2808135.72647                  21139902.8094
        28.7504         26.0004
  21593695.6334   -3235640.55448  -2521276.16046                  21593704.5904
        29.0004         25.2504
 00  5  1 19 18  0.0000000  0  7G 4G 5G 6G 9G10G24G30
  23837995.1724    6393331.89345   4981812.62345                  23838004.6804
        10.5004         10.0004
  20445793.9694     579971.60348    451924.08047                  20445802.7624
        29.7504         26.5004
  23616079.2274   -2920818.95946   -371605.93146                  23616092.0984
        13.0004         12.5004
  24704237.4924    6076764.34245   4735117.23645                  24704260.3284
         8.0004          9.0004
  21578065.1414   -3065681.15447  -2356231.86646                  21578075.7974
        24.2504         23.7504
  21146680.5474    3651768.93648   2835926.33447                  21146689.4574
        28.7504         26.0004
  21589115.5234   -3259709.79448  -2540031.39146                  21589124.4574
        28.5004         25.2504
 00  5  1 19 18 15.0000000  0  7G 4G 5G 6G 9G10G24G30
  23848681.4614    6449488.65245   5025571.07845                  23848691.1564
        10.7504          9.7504
  20448087.1724     592021.92148    461313.91647                  20448095.8364
        29.5004         26.7504
  23611080.8364   -2947084.56646   -392072.59746                  23611093.5664
        13.5004         13.0004
  24714228.4384    6129270.13645   4776030.61045                  24714251.8484
         8.0004          9.2504
  21574007.9774   -3087000.69547  -2372844.44846                  21574018.9144
        23.7504         24.2504
  21153476.4534    3687481.81348   2863754.53847                  21153485.3634
        28.7504         25.7504
  21584553.5314   -3283683.42548  -2558712.12846                  21584562.5824
        28.0004         25.2504
 00  5  1 19 18 30.0000000  0  7G 4G 5G 6G 9G10G24G30
  23859365.2424    6505631.22645   5069318.50445                  23859375.3244
        10.5004          9.5004
  20450403.6644     604195.23848    470799.59247                  20450412.4694
        29.5004         26.2504
  23606080.1804   -2973361.87346   -412548.34646                  23606093.2854
        14.0004         13.2504
  24724213.6254    6181737.48545   4816914.06445                  24724236.0984
         8.7504          9.2504
  21569969.7814   -3108222.59747  -2389380.94246                  21569980.4964
        24.5004         24.2504
  21160281.6484    3723242.47548   2891619.97647                  21160290.6524
        28.5004         26.2504
  21580009.0554   -3307564.75848  -2577320.95046                  21580017.8594
        28.0004         25.2504
 00  5  1 19 18 45.0000000  0  7G 4G 5G 6G 9G10G24G30
  23870045.9064    6561759.87745   5113055.07645                  23870054.8754
        10.0004          9.5004
  20452743.5314     616491.24448    480380.87747                  20452752.1024
        29.7504         26.2504
  23601078.4384   -2999645.66446   -433029.17346                  23601091.6254
        13.5004         13.0004
  24734191.5004    6234170.98445   4857771.12245                  24734212.6724
         8.5004          9.2504
  21565950.5704   -3129342.25747  -2405837.76846                  21565961.2274
        24.5004         24.5004
  21167096.6024    3759055.64748   2919526.33747                  21167105.4534
        28.7504         25.7504
  21575482.1094   -3331353.49748  -2595857.61246                  21575490.5984
        28.5004         25.0004
 00  5  1 19 19  0.0000000  0  7G 4G 5G 6G 9G10G24G30
  23880724.3914    6617873.44745   5156779.89545                  23880733.8984
        10.0004          9.2504
  20455105.8444     628905.39848    490054.22847                  20455114.0984
        29.2504         26.2504
  23596075.7114   -3025934.49346   -453513.92346                  23596089.6024
        13.0004         13.2504
  24744163.2344    6286573.13345   4898603.76645                  24744185.6484
         9.0004          9.5004
  21561951.5864   -3150356.93347  -2422212.79146                  21561962.5234
        24.2504         24.2504
  21173922.2584    3794925.67948   2947477.00147                  21173931.3914
        28.5004         26.0004
  21570973.0004   -3355049.53248  -2614322.03446                  21570981.5704
        28.0004         25.2504
 00  5  1 19 19 15.0000000  0  7G 4G 5G 6G 9G10G24G30
  23891399.0314    6673969.46045   5200491.00145                  23891410.0044
         9.7504          9.2504
  20457490.1414     641434.05448    499816.79447                  20457498.5474
        29.5004         26.2504
  23591072.3444   -3052227.90846   -474002.24746                  23591085.6134
        13.0004         13.2504
  24754129.2274    6338942.01745   4939410.49145                  24754150.9024
         9.2504          9.0004
  21557971.8834   -3171269.84247  -2438508.50946                  21557982.9844
        23.7504         24.0004
  21180758.6724    3830850.75048   2975470.55847                  21180767.7114
        28.5004         25.7504
  21566480.7734   -3378655.79548  -2632716.51546                  21566489.5664
        28.5004         25.5004
 00  5  1 19 19 30.0000000  0  7G 4G 5G 6G 9G10G24G30
  23902070.6414    6730050.46545   5244190.44145                  23902081.7424
        10.0004          8.5004
  20459896.0394     654076.87348    509668.31847                  20459904.6334
        29.2504         26.5004
  23586068.1174   -3078525.48046   -494493.80746                  23586081.2584
        13.2504         13.5004
  24764088.6334    6391276.50345   4980190.41445                  24764110.8134
         9.7504          8.7504
  21554012.1724   -3192078.06547  -2454722.66046                  21554023.1334
        24.5004         24.0004
  21187605.1564    3866829.44448   3003505.89047                  21187614.1134
        28.0004         25.7504
  21562005.5944   -3402173.51348  -2651041.99846                  21562014.4224
        29.2504         25.5004
 00  5  1 19 19 45.0000000  0  7G 4G 5G 6G 9G10G24G30
  23912740.1724    6786118.34145   5287879.64245                  23912752.2114
        10.0004          8.7504
  20462323.9844     666835.85248    519610.35947                  20462332.5204
        29.5004         26.5004
  23581063.3134   -3104826.60046   -514988.13146                  23581076.4774
        13.2504         13.5004
  24774041.3594    6443578.86545   5020945.30245                  24774061.9804
        10.5004          8.7504
  21550073.5084   -3212776.66647  -2470851.39246                  21550084.1524
        24.7504         24.2504
  21194462.1414    3902862.20748   3031583.35046                  21194471.0394
        28.2504         25.5004
  21557547.6414   -3425600.51548  -2669296.78447                  21557556.5634
        29.5004         25.7504
 00  5  1 19 20  0.0000000  0  7G 4G 5G 6G 9G10G24G30
  23923406.8754    6842169.93845   5331556.16845                  23923416.8404
        10.0004          8.7504
  20464774.1254     679711.42148    529643.25147                  20464782.4494
        29.7504         26.2504
  23576056.8754   -3131133.36946   -535486.86046                  23576070.0394
        13.5004         13.5004
  24783988.3364    6495848.36145   5061674.57345                  24784009.7894
        10.7504          9.5004
  21546155.5394   -3233367.37647  -2486896.04746                  21546165.9734
        25.0004         24.2504
  21201328.6884    3938946.19248   3059700.73146                  21201337.7274
        28.2504         25.5004
  21553106.7274   -3448936.49548  -2687480.65247                  21553115.6484
        28.5004         25.7504
 00  5  1 19 20 15.0000000  0  7G 4G 5G 6G 9G10G24G30
  23934070.0004    6898204.95045   5375219.76445                  23934079.2624
        10.0004          8.2504
  20467246.4844     692703.52848    539766.95447                  20467254.9144
        29.5004         26.5004
  23571050.4384   -3157443.15046   -555987.92746                  23571063.1684
        14.0004         13.0004
  24793929.0864    6548087.49045   5102380.19445                  24793950.5984
        11.0004          9.0004
  21542257.9534   -3253847.21547  -2502854.31846                  21542268.4804
        24.5004         24.2504
  21208205.4694    3975083.31948   3087859.52546                  21208214.2274
        28.2504         25.5004
  21548683.9064   -3472179.00948  -2705591.68947                  21548693.0164
        29.0004         26.0004
 00  5  1 19 20 30.0000000  0  7G 4G 5G 6G 9G10G24G30
  23944730.2424    6954226.36945   5418872.76045                  23944739.4924
        10.7504          9.0004
  20469740.8204     705810.54848    549980.19347                  20469749.4614
        30.0004         26.7504
  23566042.7894   -3183758.46446   -576493.30546                  23566054.8164
        13.7504         13.5004
  24803864.5864    6600296.80345   5143062.57145                  24803884.3364
        11.5004          8.5004
  21538382.7344   -3274212.90547  -2518723.63146                  21538393.4264
        24.2504         24.0004
  21215092.3204    4011274.70648   3116060.59346                  21215101.2774
        28.5004         25.5004
  21544278.1954   -3495331.04148  -2723632.22547                  21544287.2464
        29.0004         26.0004
 00  5  1 19 20 45.0000000  0  7G 4G 5G 6G 9G10G24G30
  23955389.2194    7010236.99345   5462517.39745                  23955400.0984
        10.7504          8.5004
  20472256.6724     719031.78848    560282.43547                  20472265.6054
        29.7504         27.0004
  23561033.3054   -3210082.79446   -597005.71946                  23561045.9884
        13.5004         13.5004
  24813793.9774    6652476.19045   5183721.66945                  24813815.6764
        11.2504          9.0004
  21534528.8134   -3294463.69547  -2534503.42346                  21534539.6804
        24.7504         24.2504
  21221989.2344    4047517.47048   3144301.69246                  21221997.9104
        28.5004         25.2504
  21539889.1954   -3518395.19848  -2741604.27547                  21539898.2464
        29.2504         26.0004
 00  5  1 19 21  0.0000000  0  7G 4G 5G 6G 9G10G24G30
  23966046.8204    7066242.75945   5506158.15945                  23966057.6884
        11.0004          9.2504
  20474794.5164     732368.96748    570675.01947                  20474803.5084
        29.2504         27.0004
  23556022.3364   -3236416.14646   -617525.13746                  23556035.6994
        13.5004         13.5004
  24823718.8594    6704629.09845   5224360.14045                  24823740.4304
        10.7504          9.0004
  21530697.8364   -3314595.82247  -2550190.74646                  21530708.4804
        24.7504         24.5004
  21228895.3524    4083809.78248   3172581.39846                  21228904.1914
        28.2504         25.5004
  21535517.6644   -3541367.66648  -2759504.89047                  21535526.3874
        29.7504         26.0004
 00  5  1 19 21 15.0000000  0  8G 4G 5G 6G17G 9G10G24G30
  23976703.8444    7122247.12245   5549797.87345                  23976714.6054
        11.2504          9.5004
  20477355.9144     745827.80448    581162.40047                  20477364.7894
        29.2504         27.0004
  23551009.8054   -3262756.34346   -638049.92146                  23551023.4144
        13.0004         13.5004
  25250668.4534      -5073.78553
         5.0004
  24833638.3834    6756757.71845   5264979.62945                  24833660.6214
         9.7504          8.7504
  21526889.6174   -3334608.07247  -2565784.66146                  21526900.4024
        24.5004         24.5004
  21235810.6954    4120150.48548   3200898.81946                  21235819.4304
        28.2504         25.5004
  21531164.6174   -3564244.35048  -2777330.86247                  21531173.2234
        30.5004         26.0004
 00  5  1 19 21 30.0000000  0  8G 4G 5G 6G17G 9G10G24G30
  23987359.8754    7178245.61245   5593433.01745                  23987370.4384
        11.2504          9.7504
  20479939.8444     759407.47948    591743.94147                  20479948.6724
        29.5004         27.0004
  23545994.9844   -3289109.89646   -658585.10446                  23546008.0204
        14.2504         13.2504
  25243426.3444     -43131.89342
         4.7504
  24843552.9694    6808855.58345   5305575.16245                  24843574.8094
         9.0004          7.5004
  21523102.7504   -3354506.40547  -2581289.81246                  21523113.4064
        24.5004         24.5004
  21242733.9384    4156533.43247   3229249.15946                  21242742.9304
        27.7504         25.2504
  21526828.6334   -3587029.78048  -2795085.72247                  21526837.4844
        29.7504         26.2504
 00  5  1 19 21 45.0000000  0  8G 4G 5G 6G17G 9G10G24G30
  23998015.1884    7234238.07145   5637063.47245                  23998027.5554
        11.5004          9.5004
  20482547.0474     773108.87248    602420.33047                  20482555.9924
        29.5004         26.7504
  23540976.5554   -3315481.01346   -679133.96446                  23540988.1484
        14.2504         13.5004
  25236188.6414     -81167.37443
         5.2504
  24853459.9144    6860922.33245   5346146.47245                  24853481.6134
         8.0004          7.2504
  21519338.0704   -3374290.94847  -2596706.29046                  21519348.5164
        24.5004         24.2504
  21249665.4144    4192957.30447   3257631.37946                  21249674.4184
        27.7504         25.5004
  21522510.2034   -3609722.68948  -2812768.49847                  21522518.9614
        29.5004         26.5004
 00  5  1 19 22  0.0000000  0  8G 4G 5G 6G17G 9G10G24G30
  24008668.8674    7290225.27645   5680689.79245                  24008680.1094
        11.5004         10.0004
  20485177.8444     786934.15648    613193.25547                  20485186.9184
        29.0004         26.7504
  23535955.5634   -3341865.95646   -699693.60446                  23535967.7664
        14.2504         13.5004
  25228954.5784    -119173.80343
         5.2504
  24863363.0394    6912964.08744   5386698.29245                  24863386.8364
         7.2504          8.0004
  21515594.9614   -3393960.81347  -2612033.40746                  21515605.4064
        25.0004         24.5004
  21256605.4144    4229427.47447   3286049.67746                  21256614.3954
        27.7504         25.2504
  21518210.5004   -3632318.14948  -2830375.34347                  21518219.2584
        30.5004         26.5004
 00  5  1 19 22 15.0000000  0  8G 4G 5G 6G17G 9G10G24G30
  24019322.2194    7346205.29845   5724310.54545                  24019332.0554
        11.7504          9.7504
  20487831.4774     800877.60248    624058.25447                  20487840.4804
        29.2504         26.7504
  23530931.3984   -3368267.63146   -720266.27646                  23530943.5554
        13.5004         13.5004
  25221729.0864    -157153.72043
         5.0004
  24873261.0554    6964978.47944   5427228.78845                  24873284.4774
         7.2504          8.0004
  21511873.1724   -3413519.79147  -2627274.12446                  21511883.6994
        25.0004         24.2504
  21263553.7504    4265941.41847   3314502.08746                  21263562.7664
        27.7504         25.2504
  21513928.3204   -3654821.24848  -2847910.20347                  21513937.0314
        31.0004         26.5004
 00  5  1 19 22 30.0000000  0  8G 4G 5G 6G17G 9G10G24G30
  24029973.5944    7402179.28346   5767926.58245                  24029984.7304
        12.2504         10.0004
  20490506.9224     814937.22548    635013.78347                  20490515.7154
        29.5004         27.0004
  23525904.5634   -3394686.44246   -740852.30746                  23525917.3984
        13.7504         13.5004
  25214504.5704    -195109.66142     -1969.43755                  25214532.4694
         4.5004          5.2504
  24883153.2424    7016963.04944   5467736.05345                  24883177.4614
         6.7504          7.5004
  21508171.7034   -3432969.22947  -2642429.48746                  21508181.9144
        25.0004         24.2504
  21270510.0864    4302497.40247   3342987.25646                  21270518.9844
        27.7504         25.5004
  21509663.2664   -3677234.43948  -2865375.00647                  21509671.9184
        30.5004         26.7504
 00  5  1 19 22 45.0000000  0  8G 4G 5G 6G17G 9G10G24G30
  24040624.0474    7458147.97245   5811538.51345                  24040634.1884
        11.7504         10.0004
  20493205.0554     829117.19748    646063.09147                  20493213.5784
        29.5004         26.7504
  23520873.8444   -3421121.38946   -761450.92046                  23520887.0084
        14.0004         13.5004
  25207286.8674    -233039.97243    -31525.25645                  25207308.1914
         5.0004          5.5004
  24893040.8594    7068918.53144   5508220.60945                  24893065.6294
         6.2504          7.5004
  21504491.7504   -3452307.99847  -2657498.60846                  21504502.0784
        25.0004         24.2504
  21277474.8914    4339095.63848   3371505.34146                  21277483.7424
        28.0004         25.5004
  21505415.7814   -3699554.03848  -2882766.89547                  21505424.3164
        30.5004         27.0004
 00  5  1 19 23  0.0000000  0  8G 4G 5G 6G17G 9G10G24G30
  24051273.6024    7514110.96746   5855145.99045                  24051283.2734
        12.2504         10.5004
  20495927.0944     843420.06848    657208.16047                  20495936.1094
        29.0004         26.7504
  23515841.3674   -3447568.43446   -782058.95046                  23515854.1214
        14.5004         13.0004
  25200074.6484    -270944.23843    -61060.96945                  25200098.9384
         5.5004          6.0004
  24902922.2424    7120845.06545   5548682.64845                  24902948.2894
         7.5004          7.0004
  21500833.0004   -3471534.87647  -2672480.54946                  21500843.7974
        25.0004         24.5004
  21284447.0704    4375736.00348   3400056.26046                  21284455.9104
        28.0004         25.5004
  21501187.8914   -3721772.53148  -2900079.99147                  21501196.4964
        30.7504         27.0004
 00  5  1 19 23 15.0000000  0  8G 4G 5G 6G17G 9G10G24G30
  24061920.3834    7570059.34846   5898742.09145                  24061930.8524
        12.7504         10.7504
  20498671.7194     857844.28048    668447.78447                  20498680.9104
        29.0004         26.5004
  23510805.4774   -3474030.55046   -802678.72446                  23510817.9384
        14.7504         14.0004
  25192865.8674    -308825.96543    -90578.96845                  25192893.5204
         6.0004          6.5004
  24912797.5314    7172734.97845   5589116.16545                  24912821.8324
         7.7504          8.2504
  21497194.8444   -3490653.20947  -2687377.90146                  21497205.3134
        25.0004         24.5004
  21291427.2114    4412417.36448   3428639.12347                  21291435.9574
        28.5004         26.0004
  21496978.8284   -3743890.99548  -2917315.14247                  21496987.6214
        30.7504         27.0004
 00  5  1 19 23 30.0000000  0  8G 4G 5G 6G17G 9G10G24G30
  24072563.7584    7625991.26046   5942325.34545                  24072573.7704
        12.7504         10.7504
  20501440.3594     872392.75348    679784.22647                  20501449.0004
        29.7504         26.5004
  23505766.6804   -3500505.95546   -823308.82546                  23505778.9184
        14.0004         14.0004
  25185661.6564    -346683.13644   -120077.94545                  25185688.1134
         6.2504          6.5004
  24922664.2734    7224585.87145   5629519.27645                  24922690.9884
         7.5004          8.0004
  21493577.7734   -3509660.07047  -2702188.40046                  21493588.4184
        24.7504         24.5004
  21298416.2344    4449143.60548   3457256.95647                  21298425.2384
        28.7504         25.7504
  21492788.8204   -3765909.64348  -2934472.51847                  21492797.5554
        30.5004         27.2504
 00  5  1 19 23 45.0000000  0  8G 4G 5G 6G17G 9G10G24G30
  24083204.9694    7681909.75346   5985898.12445                  24083214.9344
        13.0004         10.7504
  20504232.8284     887066.63748    691218.40347                  20504241.1054
        29.7504         26.5004
  23500726.4064   -3526993.06346   -843948.07346                  23500738.1174
        14.0004         13.5004
  25178462.4224    -384512.58444   -149555.27045                  25178488.8914
         6.5004          6.5004
  24932523.7734    7276397.76445   5669891.96845                  24932548.0864
         7.5004          8.5004
  21489983.3984   -3528549.31447  -2716907.24646                  21489993.8094
        25.0004         24.5004
  21305414.1644    4485917.74348   3485912.10847                  21305423.1684
        28.2504         25.7504
  21488618.3914   -3787825.78648  -2951550.02047                  21488627.0554
        30.2504         27.0004
 00  5  1 19 24  0.0000000  0  8G 4G 5G 6G17G 9G10G24G30
  24093843.5394    7737814.47946   6029460.23345                  24093854.0204
        12.2504         10.2504
  20507048.9304     901865.42448    702749.90547                  20507057.4184
        29.5004         26.5004
  23495685.0704   -3553489.05146   -864594.25846                  23495697.8014
        14.0004         13.2504
  25171269.8364    -422312.71044   -179009.70745                  25171293.4924
         6.5004          6.7504
  24942376.0634    7328170.80444   5710234.40045                  24942399.4384
         7.2504          8.7504
  21486412.0314   -3547317.07447  -2731531.43046                  21486422.3484
        25.2504         24.2504
  21312421.5944    4522742.38248   3514606.61847                  21312430.7274
        28.0004         25.7504
  21484467.2274   -3809639.54848  -2968547.74647                  21484476.1254
        30.5004         27.0004
 00  5  1 19 24 15.0000000  0  8G 4G 5G 6G17G 9G10G24G30
  24104478.2974    7793703.13045   6073009.76245                  24104488.4264
        11.5004         10.0004
  20509888.7114     916787.90348    714377.78547                  20509897.4454
        30.0004         26.7504
  23490641.4064   -3579992.43946   -885246.19146                  23490653.8674
        14.5004         14.0004
  25164082.1414    -460083.66144   -208441.46745                  25164108.2114
         7.0004          7.0004
  24952219.1884    7379900.23044   5750542.85345                  24952243.1604
         7.2504          8.7504
  21482863.7894   -3565962.80347  -2746060.53146                  21482874.1884
        25.2504         24.7504
  21319438.7344    4559616.91947   3543340.00546                  21319447.9494
        27.7504         25.5004
  21480335.2974   -3831352.77148  -2985467.12847                  21480344.1254
        30.2504         27.0004
 00  5  1 19 24 30.0000000  0  8G 4G 5G 6G17G 9G10G24G30
  24115109.9144    7849571.59745   6116543.60645                  24115122.1174
        10.7504          9.5004
  20512751.8524     931835.23048    726102.95247                  20512760.8094
        30.2504         27.0004
  23485596.1334   -3606505.48146   -905905.63546                  23485608.2664
        14.5004         13.7504
  25156899.5314    -497830.02245   -237854.05445                  25156927.2664
         7.5004          7.0004
  24962054.0394    7431580.15344   5790812.73345                  24962077.0514
         7.2504          8.5004
  21479338.5234   -3584488.23047  -2760495.88846                  21479348.7234
        25.2504         25.0004
  21326464.3674    4596538.60847   3572110.13246                  21326473.7234
        27.2504         25.5004
  21476222.1954   -3852967.17648  -3002309.50947                  21476231.1994
        29.7504         27.2504
 00  5  1 19 24 45.0000000  0  8G 4G 5G 6G17G 9G10G24G30
  24125737.5164    7905421.44245   6160062.89245                  24125747.3284
        11.2504         10.0004
  20515640.1724     947012.16248    737929.11147                  20515648.8134
        30.0004         27.0004
  23480549.0474   -3633026.94946   -926571.66646                  23480561.5434
        14.0004         14.0004
  25149720.8364    -535549.34545   -267245.59045                  25149743.6254
         7.7504          7.7504
  24971879.6564    7483214.08845   5831046.74545                  24971904.8484
         7.7504          8.7504
  21475836.5704   -3602890.33647  -2774835.14846                  21475847.0164
        25.0004         24.7504
  21333500.1094    4633512.11147   3600920.64246                  21333509.4884
        27.2504         25.2504
  21472128.9454   -3874477.47548  -3019070.77047                  21472137.9734
        30.2504         27.0004
 00  5  1 19 25  0.0000000  0  8G 4G 5G 6G17G 9G10G24G30
  24136360.6564    7961247.08545   6203563.32145                  24136370.5394
        10.2504          9.5004
  20518552.7274     962317.44748    749855.28447                  20518561.3094
        29.7504         26.7504
  23475500.1484   -3659558.56646   -947245.58046                  23475512.4574
        14.5004         13.7504
  25142548.0004    -573244.22245   -296618.05945                  25142570.4144
         7.7504          7.7504
  24981696.4304    7534799.06945   5871242.63845                  24981720.6844
         8.2504          9.2504
  21472357.5864   -3621172.55647  -2789080.98646                  21472368.0204
        25.2504         24.7504
  21340546.1024    4670537.41947   3629771.51246                  21340555.5514
        27.2504         25.2504
  21468055.0784   -3895886.34248  -3035752.99047                  21468064.1644
        30.0004         26.7504
 00  5  1 19 25 15.0000000  0  8G 4G 5G 6G17G 9G10G24G30
  24146978.4844    8017045.74945   6247042.75145                  24146989.2934
         9.7504          9.5004
  20521489.2504     977748.84848    761879.72947                  20521497.7384
        29.7504         26.7504
  23470448.7814   -3686101.76246   -967928.53246                  23470461.0204
        14.0004         13.5004
  25135379.6564    -610915.36045   -325972.03745                  25135403.4654
         8.0004          8.7504
  24991503.9454    7586334.29245   5911399.76645                  24991526.9224
         8.2504          9.0004
  21468901.3284   -3639335.59047  -2803233.96146                  21468911.7384
        25.2504         24.7504
  21347601.6094    4707615.00247   3658663.11447                  21347610.8834
        27.7504         25.7504
  21463999.2734   -3917198.85948  -3052360.13847                  21464008.4654
        30.0004         27.0004
 00  5  1 19 25 30.0000000  0  8G 4G 5G 6G17G 9G10G24G30
  24157591.3364    8072817.26645   6290500.99345                  24157603.0474
         8.7504          8.7504
  20524449.6804     993306.59148    774002.62347                  20524458.2384
        30.0004         27.0004
  23465396.7734   -3712654.01646   -988618.56246                  23465409.2114
        14.0004         13.5004
  25128215.3984    -648562.38045   -355307.25945                  25128241.5744
         7.7504          8.7504
  25001301.6884    7637822.03645   5951519.90345                  25001324.8054
         8.5004          8.7504
  21465467.8524   -3657377.72947  -2817292.72946                  21465478.2624
        25.7504         24.7504
  21354667.2814    4744745.73248   3687596.13546                  21354676.5434
        28.0004         25.5004
  21459961.3984   -3938418.45248  -3068894.87047                  21459970.4844
        30.2504         27.0004
 00  5  1 19 25 45.0000000  0  8G 4G 5G 6G17G 9G10G24G30
  24168201.1254    8128567.76345   6333942.89845                  24168211.0784
         9.2504          8.5004
  20527434.6954    1008992.89248    786225.69047                  20527443.5234
        29.7504         26.7504
  23460342.6094   -3739211.93746  -1009312.98546                  23460354.7894
        14.2504         13.7504
  25121055.6564    -686182.02045   -384621.06545                  25121081.3634
         7.5004          8.0004
  25011091.3914    7689269.14445   5991608.34445                  25011115.8674
         8.5004          8.7504
  21462057.9694   -3675296.70847  -2831255.52846                  21462068.4264
        25.2504         24.7504
  21361743.8674    4781931.70148   3716572.20147                  21361753.0234
        28.5004         25.7504
  21455941.9614   -3959540.93448  -3085353.93447                  21455950.9884
        30.0004         27.0004
 00  5  1 19 26  0.0000000  0  8G 4G 5G 6G17G 9G10G24G30
  24178805.3284    8184293.99045   6377365.89245                  24178815.3054
         9.0004          8.5004
  20530442.5394    1024800.32248    798543.14347                  20530451.5784
        29.2504         26.7504
  23455287.1174   -3765779.02646  -1030014.55146                  23455299.6954
        14.2504         13.5004
  25113900.9534    -723782.77844   -413920.19945                  25113926.7774
         6.5004          8.2504
  25020873.4224    7740672.56545   6031662.79945                  25020896.4224
         8.5004          9.2504
  21458669.8984   -3693100.95747  -2845128.92946                  21458680.1454
        25.0004         24.7504
  21368829.3984    4819166.82248   3745586.55847                  21368838.4144
        28.7504         26.0004
  21451939.9614   -3980571.63548  -3101741.48447                  21451949.0234
        30.2504         27.0004
 00  5  1 19 26 15.0000000  0  8G 4G 5G 6G17G 9G10G24G30
  24189405.9304    8240001.15145   6420774.00745                  24189415.5664
         8.7504          8.7504
  20533474.5634    1040732.16748    810957.54347                  20533483.5664
        29.7504         26.7504
  23450230.9614   -3792348.17546  -1050717.72446                  23450243.2704
        14.2504         14.2504
  25106749.0554    -761362.13144   -443202.63145                  25106774.4574
         6.2504          7.7504
  25030648.8284    7792039.20445   6071688.52645                  25030670.9024
         8.7504          8.0004
  21455303.3594   -3710790.11547  -2858912.64446                  21455313.7234
        25.2504         25.0004
  21375925.1094    4856454.07648   3774641.54647                  21375934.2424
        29.0004         26.0004
  21447956.4144   -4001505.49848  -3118053.56447                  21447965.3484
        30.5004         26.7504
 00  5  1 19 26 30.0000000  0  8G 4G 5G 6G17G 9G10G24G30
  24200003.1024    8295688.50745   6464166.69645                  24200012.9734
         8.2504          8.2504
  20536529.7894    1056787.69848    823468.32147                  20536538.5354
        29.5004         26.7504
  23445174.3984   -3818920.99046  -1071423.75146                  23445187.2814
        14.7504         14.0004
  25099601.3054    -798923.36344   -472470.94145                  25099626.0514
         6.2504          7.7504
  25040415.3364    7843368.07345   6111684.89145                  25040438.8754
         8.0004          8.2504
  21451958.8674   -3728366.18847  -2872608.25446                  21451969.1844
        25.7504         25.2504
  21383029.7584    4893789.26448   3803733.88047                  21383038.8554
        28.7504         26.5004
  21443991.5234   -4022341.09948  -3134289.08047                  21444000.4804
        29.7504         27.2504
 00  5  1 19 26 45.0000000  0  8G 4G 5G 6G17G 9G10G24G30
  24210596.2974    8351357.91345   6507545.42845                  24210608.6294
         8.7504          8.7504
  20539608.2504    1072965.40648    836074.30347                  20539616.9144
        29.7504         26.5004
  23440116.5474   -3845499.54846  -1092134.25946                  23440129.0434
        14.2504         14.2504
  25092457.1174    -836467.66443   -501726.10945                  25092482.8014
         5.7504          7.5004
  25050177.1884    7894661.37545   6151653.51345                  25050200.9844
         7.7504          7.5004
  21448635.8054   -3745829.72447  -2886216.16346                  21448646.0864
        25.7504         25.2504
  21390143.1254    4931170.30648   3832861.94847                  21390152.3524
        28.7504         26.0004
  21440044.9924   -4043079.65548  -3150448.97947                  21440053.8914
        30.2504         27.0004
 00  5  1 19 27  0.0000000  0  8G 4G 5G 6G17G 9G10G24G30
  24221186.7034    8407010.27845   6550910.81145                  24221196.4694
         9.0004          8.2504
  20542709.7424    1089264.46548    848774.84747                  20542718.6174
        29.5004         26.7504
  23435057.5234   -3872082.55646  -1112848.23046                  23435069.8444
        14.5004         14.0004
  25085316.7664    -873993.30843   -530966.66245                  25085343.6564
         5.2504          7.2504
  25059931.2664    7945920.16744   6191595.22745                  25059955.5314
         7.2504          7.5004
  21445334.5164   -3763178.00247  -2899734.26346                  21445344.8674
        26.0004         25.5004
  21397264.9694    4968595.87048   3862024.70947                  21397274.1134
        28.5004         26.0004
  21436117.0704   -4063720.86648  -3166533.02847                  21436125.7704
        30.7504         26.7504
 00  5  1 19 27 15.0000000  0  8G 4G 5G 6G17G 9G10G24G30
  24231772.8444    8462644.13645   6594261.82245                  24231783.4414
         9.2504          8.2504
  20545834.4774    1105684.55048    861569.69147                  20545843.2464
        29.7504         26.7504
  23429998.2114   -3898669.94746  -1133565.63346                  23430010.0274
        14.5004         13.7504
  25078179.6484    -911499.87943   -560192.45145                  25078207.3834
         5.0004          7.0004
  25069679.2734    7997143.38744   6231509.22345                  25069705.1914
         7.2504          7.5004
  21442055.5634   -3780409.09947  -2913161.04947                  21442065.8674
        25.5004         25.7504
  21404394.2814    5006061.26048   3891218.49747                  21404403.4024
        28.7504         26.0004
  21432207.2974   -4084265.36448  -3182541.70247                  21432216.0554
        30.2504         26.7504
 00  5  1 19 27 30.0000000  0  8G 4G 5G 6G17G 9G10G24G30
  24242357.3134    8518261.63845   6637600.08345                  24242368.2624
         9.5004          8.0004
  20548981.6024    1122222.31048    874456.23447                  20548990.1604
        30.2504         27.0004
  23424937.6254   -3925264.03546  -1154288.22546                  23424949.8284
        14.5004         14.2504
  25071044.2114    -948987.66443   -589403.54045                  25071070.8674
         5.0004          6.7504
  25079420.1254    8048332.64345   6271396.76645                  25079445.9964
         7.7504          7.7504
  21438799.1174   -3797522.59747  -2926496.20746                  21438809.5394
        25.7504         25.5004
  21411530.6884    5043562.52348   3920440.24047                  21411539.9614
        28.7504         25.7504
  21428316.6094   -4104712.42148  -3198474.46547                  21428325.3444
        30.0004         26.7504
 00  5  1 19 27 45.0000000  0  8G 4G 5G 6G17G 9G10G24G30
  24252938.6804    8573867.51245   6680929.31445                  24252949.6174
         8.5004          7.7504
  20552151.8364    1138880.52748    887436.64147                  20552160.5824
        30.5004         27.2504
  23419875.6254   -3951864.67246  -1175015.94646                  23419886.7974
        15.0004         14.2504
  25063914.3674    -986454.85642   -618598.58045                  25063940.4614
         4.7504          6.5004
  25089154.9774    8099490.54744   6311259.92845                  25089178.5394
         7.0004          7.2504
  21435565.0784   -3814516.01947  -2939737.80146                  21435575.2194
        25.2504         25.2504
  21418673.5234    5081098.87448   3949689.32647                  21418682.7384
        28.5004         25.7504
  21424445.0394   -4125057.69748  -3214327.91847                  21424453.7854
        30.0004         26.7504
 00  5  1 19 28  0.0000000  0  8G 4G 5G 6G17G 9G10G24G30
  24263518.6564    8629461.56745   6724249.30745                  24263530.4844
         9.5004          8.0004
  20555344.5084    1155658.50948    900510.36847                  20555353.3244
        30.0004         27.2504
  23414811.4924   -3978477.00046  -1195752.75746                  23414823.7424
        15.0004         13.7504
  25056789.1884   -1023900.90942   -647777.14045                  25056811.6844
         4.5004          7.2504
  25098883.9064    8150616.82644   6351098.33645                  25098907.2704
         7.2504          7.5004
  21432354.0474   -3831390.42447  -2952886.65046                  21432364.3054
        25.7504         25.2504
  21425823.3134    5118670.32148   3978965.75946                  21425832.5164
        28.2504         25.5004
  21420592.8984   -4145301.40848  -3230102.21947                  21420601.5394
        30.7504         26.7504
 00  5  1 19 28 15.0000000  0  8G 4G 5G 6G17G 9G10G24G30
  24274094.2734    8685039.80745   6767556.97345                  24274105.6454
        10.5004          9.0004
  20558560.1024    1172556.49848    913677.60447                  20558568.7894
        30.5004         27.2504
  23409744.5944   -4005102.49746  -1216499.84146                  23409756.9264
        14.7504         14.2504
  25049666.6334   -1061324.67743   -676938.32345                  25049690.3014
         5.0004          7.0004
  25108607.5474    8201709.64844   6390910.77945                  25108631.2384
         7.2504          7.0004
  21429165.8134   -3848144.84647  -2965942.00846                  21429176.3054
        25.7504         25.5004
  21432979.4844    5156276.77648   4008269.46547                  21432988.6054
        28.7504         25.7504
  21416759.8364   -4165443.21548  -3245797.11947                  21416768.4774
        30.2504         26.7504
 00  5  1 19 28 30.0000000  0  8G 4G 5G 6G17G 9G10G24G30
  24284665.9774    8740597.06845   6810848.23745                  24284678.0044
         9.5004          8.5004
  20561799.1414    1189578.15848    926941.21347                  20561807.5944
        30.5004         27.0004
  23404674.4384   -4031745.45146  -1237260.53046                  23404686.4414
        15.2504         14.5004
  25042549.8674   -1098725.22543   -706081.45845                  25042573.2304
         5.5004          6.7504
  25118323.7034    8252764.82145   6430693.84245                  25118348.8484
         7.7504          7.0004
  21426000.7344   -3864777.37147  -2978902.38546                  21426011.1334
        26.0004         25.5004
  21440142.6804    5193918.92448   4037600.98647                  21440151.8594
        29.5004         25.7504
  21412947.1414   -4185479.50048  -3261409.79847                  21412955.5354
        30.5004         26.7504
 00  5  1 19 28 45.0000000  0  8G 4G 5G 6G17G 9G10G24G30
  24295234.8914    8796133.90745   6854123.67345                  24295246.1564
         9.5004          8.2504
  20565062.6024    1206727.61448    940304.40647                  20565071.2664
        30.0004         26.7504
  23399601.4224   -4058406.07646  -1258034.99546                  23399613.6724
        15.0004         14.2504
  25035438.2664   -1136098.51744   -735203.34445                  25035460.0594
         6.2504          6.0004
  25128031.2974    8303783.87744   6470448.80345                  25128057.2624
         7.0004          6.7504
  21422859.2814   -3881285.08747  -2991765.50446                  21422869.5984
        25.2504         25.5004
  21447313.4694    5231601.56048   4066964.06647                  21447322.4844
        29.5004         26.0004
  21409154.9224   -4205407.16848  -3276937.83547                  21409163.5274
        30.5004         26.7504
 00  5  1 19 29  0.0000000  0  8G 4G 5G 6G17G 9G10G24G30
  24305798.6804    8851646.48445   6897380.18545                  24305809.0314
        10.0004          8.7504
  20568349.8984    1224003.07448    953765.77547                  20568358.8094
        30.2504         27.0004
  23394524.5004   -4085086.47446  -1278824.84746                  23394536.4344
        14.7504         14.7504
  25028331.0864   -1173445.05244   -764304.38945                  25028354.2274
         6.2504          7.0004
  25137732.3674    8354766.03844   6510175.00645                  25137754.7934
         6.5004          6.5004
  21419741.5704   -3897669.28147  -3004532.37046                  21419751.8754
        25.5004         25.2504
  21454491.8984    5269324.86548   4096358.82847                  21454500.9964
        28.7504         26.0004
  21405383.1174   -4225228.93048  -3292383.35747                  21405391.4064
        30.5004         26.5004
 00  5  1 19 29 15.0000000  0  8G 4G 5G 6G17G 9G10G24G30
  24316358.2664    8907135.17445   6940618.08945                  24316367.7274
        10.2504          9.0004
  20571661.8364    1241406.41848    967326.80347                  20571670.8874
        30.0004         27.0004
  23389443.8834   -4111783.75246  -1299627.86846                  23389455.9694
        15.2504         14.5004
  25021229.5864   -1210761.85144   -793382.25845                  25021251.8834
         7.2504          6.7504
  25147428.2664    8405711.68644   6549872.63145                  25147446.7384
         6.5004          6.0004
  21416647.4844   -3913928.89547  -3017202.16346                  21416657.5664
        25.5004         25.2504
  21461678.5704    5307090.44848   4125786.53347                  21461687.5044
        29.0004         26.0004
  21401631.9454   -4244941.06648  -3307743.44747                  21401640.2934
        30.7504         27.0004
 00  5  1 19 29 30.0000000  0  8G 4G 5G 6G17G 9G10G24G30
  24326913.1334    8962603.42845   6983840.03045                  24326924.9844
        10.2504          8.7504
  20574997.7584    1258937.17048    980987.10447                  20575006.6334
        29.7504         26.7504
  23384360.2974   -4138497.02246  -1320443.35946                  23384372.0664
        15.2504         15.0004
  25014134.5004   -1248047.88045   -822436.15845                  25014157.8634
         7.5004          7.2504
  25157115.7814    8456620.58044   6589541.75445                  25157140.1884
         6.5004          6.5004
  21413576.9384   -3930064.01347  -3029774.95046                  21413586.9264
        26.0004         25.5004
  21468873.2344    5344899.32348   4155247.97647                  21468882.0744
        29.2504         25.7504
  21397902.1334   -4264541.26048  -3323016.31747                  21397910.4454
        30.7504         27.0004
 00  5  1 19 29 45.0000000  0  8G 4G 5G 6G17G 9G10G24G30
  24337465.0314    9018052.65045   7027047.17745                  24337475.4774
        10.2504          8.0004
  20578358.2664    1276595.41648    994746.75347                  20578366.6954
        29.7504         26.7504
  23379274.0474   -4165227.07746  -1341271.90746                  23379285.4414
        15.7504         14.2504
  25007045.4224   -1285303.52945   -851466.36245                  25007066.7584
         7.5004          7.0004
  25166795.9384    8507489.62544   6629179.86345                  25166823.3324
         6.2504          5.7504
  21410529.8204   -3946076.42547  -3042252.12447                  21410539.9494
        25.2504         25.7504
  21476076.4144    5382752.68148   4184744.08147                  21476085.4184
        29.2504         26.0004
  21394193.8284   -4284027.59948  -3338200.46647                  21394201.9654
        31.2504         26.7504
 00  5  1 19 30  0.0000000  0  8G 4G 5G 6G17G 9G10G24G30
  24348013.3524    9073484.11145   7070240.45845                  24348023.6454
        10.5004          8.0004
  20581743.8204    1294387.47148   1008610.67347                  20581752.2154
        30.2504         26.7504
  23374185.0084   -4191968.41946  -1362109.26846                  23374196.4844
        15.5004         15.0004
  24999962.0784   -1322525.13645   -880470.09745                  24999982.8754
         8.2504          7.5004
  25176468.2194    8558317.35243   6668785.64045                  25176492.1094
         6.0004          6.0004
  21407506.6174   -3961963.22847  -3054631.40547                  21407516.9924
        25.5004         25.7504
  21483288.9304    5420654.11148   4214277.64547                  21483297.6764
        29.0004         25.7504
  21390507.6094   -4303399.43948  -3353295.39647                  21390515.8164
        31.2504         26.7504
 00  5  1 19 30 15.0000000  0  8G 4G 5G 6G17G 9G10G24G30
  24358557.4614    9128893.50245   7113416.59845                  24358568.7034
        10.5004          8.7504
  20585154.1884    1312308.69048   1022575.23847                  20585162.8284
        29.7504         26.7504
  23369094.5234   -4218720.98346  -1382955.36546                  23369106.3984
        15.7504         14.7504
  24992884.1954   -1359718.16045   -909451.49245                  24992905.0634
         8.2504          7.2504
  25186131.2814    8609094.31144   6708351.94145                  25186156.4144
         6.2504          6.2504
  21404506.3984   -3977730.02147  -3066917.17647                  21404516.9844
        25.7504         26.0004
  21490509.6804    5458599.60748   4243845.54647                  21490518.4614
        28.5004         25.7504
  21386842.3524   -4322659.31948  -3368303.08047                  21386850.7704
        30.5004         26.7504
 00  5  1 19 30 30.0000000  0  8G 4G 5G 6G17G 9G10G24G30
  24369097.3204    9184283.74445   7156577.81945                  24369108.6564
         8.7504          8.2504
  20588588.7504    1330357.43548   1036639.16747                  20588597.4024
        30.0004         26.7504
  23364002.2584   -4245479.39446  -1403806.02346                  23364014.4144
        15.7504         15.0004
  24985812.4924   -1396882.64945   -938410.70145                  24985835.3874
         8.7504          7.0004
  25195783.6484    8659818.28244   6747876.92545                  25195807.9024
         6.2504          6.7504
  21401528.6094   -3993377.52647  -3079110.00447                  21401539.1844
        25.7504         26.0004
  21497738.4614    5496586.90248   4273446.01646                  21497747.4184
        28.2504         25.2504
  21383199.1174   -4341805.41048  -3383222.10847                  21383207.5594
        30.2504         27.0004
 00  5  1 19 30 45.0000000  0  8G 4G 5G 6G17G 9G10G24G30
  24379635.6564    9239659.46945   7199727.59445                  24379646.6054
         8.7504          7.2504
  20592046.6954    1348529.80148   1050799.42847                  20592055.3134
        30.5004         27.0004
  23358909.4144   -4272241.34546  -1424659.45446                  23358921.4184
        15.5004         15.0004
  24978745.2584   -1434020.19145   -967348.87545                  24978766.1724
         8.7504          7.5004
  25205425.9144    8710489.22444   6787360.58145                  25205453.7424
         6.5004          6.5004
  21398573.8834   -4008905.18747  -3091209.44347                  21398584.0234
        25.5004         26.0004
  21504974.4144    5534612.98748   4303076.71246                  21504983.5594
        28.2504         25.2504
  21379576.4304   -4360842.52048  -3398056.20947                  21379584.9184
        31.0004         27.0004
 00  5  1 19 31  0.0000000  0  8G 4G 5G 6G17G 9G10G24G30
  24390171.4384    9295023.29745   7242868.20945                  24390182.7274
         9.2504          7.7504
  20595527.3914    1366820.89248   1065052.20747                  20595535.8324
        29.7504         27.0004
  23353816.6804   -4299006.38646  -1445515.26146                  23353828.5664
        16.2504         15.0004
  24971683.5004   -1471131.28245   -996266.45845                  24971706.3014
         8.2504          8.2504
  25215058.5474    8761108.36944   6826803.88845                  25215084.3954
         6.5004          7.2504
  21395641.6954   -4024313.08547  -3103215.56546                  21395652.0124
        25.2504         25.5004
  21512217.3054    5572674.12848   4332734.72446                  21512226.3554
        28.0004         24.7504
  21375973.4534   -4379776.49048  -3412809.93647                  21375981.8954
        30.5004         26.7504
 00  5  1 19 31 15.0000000  0  8G 4G 5G 6G17G 9G10G24G30
  24400703.3594    9350374.25545   7285998.84145                  24400714.5904
         8.2504          8.0004
  20599029.7194    1385225.79248   1079393.66047                  20599038.3364
        30.2504         27.0004
  23348722.1174   -4325775.37646  -1466374.16246                  23348733.9104
        16.5004         15.2504
  24964624.9774   -1508221.01645  -1025167.40545                  24964647.8484
         7.7504          7.7504
  25224679.9534    8811668.29744   6866201.06245                  25224706.0004
         6.5004          6.2504
  21392731.8054   -4039603.92147  -3115130.46647                  21392742.2974
        25.5004         25.7504
  21519465.4384    5610762.43847   4362413.90546                  21519474.6414
        27.7504         24.7504
  21372389.6174   -4398610.20548  -3427485.54747                  21372398.0594
        30.2504         26.7504
 00  5  1 19 31 30.0000000  0  8G 4G 5G 6G17G 9G10G24G30
  24411235.2034    9405716.74045   7329122.76445                  24411246.5274
         8.7504          8.0004
  20602554.5474    1403748.32148   1093826.77547                  20602563.3284
        30.5004         27.2504
  23343628.4844   -4352544.62446  -1487233.27246                  23343640.1844
        16.2504         15.2504
  24957571.1804   -1545287.67244  -1054050.33345                  24957594.6134
         7.2504          7.5004
  25234289.6024    8862170.38943   6905553.16245                  25234316.0704
         6.0004          7.2504
  21389845.0234   -4054774.86347  -3126951.94247                  21389855.4344
        25.5004         26.0004
  21526718.8134    5648879.23048   4392115.28346                  21526727.9344
        28.0004         24.7504
  21368825.2894   -4417339.55548  -3442079.83647                  21368833.6844
        31.0004         27.0004
 00  5  1 19 31 45.0000000  0  8G 4G 5G 6G17G 9G10G24G30
  24421764.9844    9461051.01045   7372240.28545                  24421777.2234
         8.5004          7.5004
  20606102.1724    1422390.55248   1108353.16547                  20606110.8954
        30.2504         27.0004
  23338534.3984   -4379313.38746  -1508091.98646                  23338546.4144
        16.2504         15.0004
  24950521.1954   -1582331.61345  -1082915.54945                  24950546.8794
         7.5004          7.5004
  25243889.5704    8912616.73943   6944861.82945                  25243916.1684
         6.0004          6.5004
  21386981.1414   -4069824.22847  -3138678.68347                  21386991.6094
        25.2504         25.7504
  21533977.8054    5687026.49947   4421840.40646                  21533987.0084
        27.5004         24.7504
  21365281.2114   -4435963.77148  -3456592.19747                  21365289.7704
        30.2504         27.2504
 00  5  1 19 32  0.0000000  0  8G 4G 5G 6G17G 9G10G24G30
  24432292.0704    9516372.10445   7415347.56345                  24432302.6094
         8.7504          7.7504
  20609672.2424    1441151.96448   1122972.41747                  20609681.0594
        30.2504         27.0004
  23333440.0084   -4406083.45646  -1528951.72746                  23333452.4574
        16.0004         15.5004
  24943476.4534   -1619354.65545  -1111764.49145                  24943499.7584
         7.5004          8.2504
  25253479.1484    8963007.58044   6984127.22945                  25253503.5904
         6.2504          7.0004
  21384140.3524   -4084753.01947  -3150311.47646                  21384150.7274
        25.0004         25.2504
  21541243.2034    5725205.18747   4451590.01446                  21541252.1484
        27.2504         24.7504
  21361756.5864   -4454486.75548  -3471025.68047                  21361765.3094
        29.7504         27.2504
 00  5  1 19 32 15.0000000  0  8G 4G 5G 6G17G 9G10G24G30
  24442816.5004    9571674.34545   7458440.21345                  24442828.9734
         8.5004          7.7504
  20613264.0004    1460027.37248   1137680.50747                  20613272.6994
        30.0004         27.0004
  23328345.1724   -4432858.04646  -1549815.00946                  23328357.5984
        16.2504         15.0004
  24936434.2344   -1656361.64345  -1140600.90645                  24936454.7934
         7.7504          8.2504
  25263057.9844    9013340.55544   7023347.57045                  25263083.6914
         6.7504          7.2504
  21381321.9384   -4099564.05747  -3161852.50546                  21381332.0084
        25.0004         25.2504
  21548513.8204    5763412.50747   4481361.93446                  21548522.9304
        27.7504         25.0004
  21358250.6954   -4472911.08048  -3485382.29647                  21358259.5234
        30.2504         27.2504
 00  5  1 19 32 30.0000000  0  7G 4G 5G 6G17G10G24G30
  24453335.8444    9626959.59845   7501519.52945                  24453346.0784
         8.5004          7.7504
  20616877.9534    1479017.74748   1152478.17247                  20616886.9224
        29.7504         27.2504
  23323249.3134   -4459636.66746  -1570681.41646                  23323260.8954
        16.2504         15.7504
  24929395.4614   -1693347.93945  -1169421.21845                  24929416.9494
         8.0004          8.2504
  21378526.5864   -4114251.94747  -3173297.58146                  21378536.8094
        25.5004         25.5004
  21555790.6094    5801651.65447   4511158.65346                  21555799.6954
        27.7504         24.7504
  21354764.1804   -4491232.13148  -3499658.42447                  21354773.0084
        30.7504         27.2504
 00  5  1 19 32 45.0000000  0  7G 4G 5G 6G17G10G24G30
  24463853.1094    9682227.06345   7544585.03845                  24463862.1134
         9.0004          7.5004
  20620514.0004    1498125.90048   1167367.61547                  20620522.8634
        30.5004         27.2504
  23318152.4534   -4486420.63946  -1591552.00346                  23318164.1174
        16.5004         15.5004
  24922361.8284   -1730310.86944  -1198223.35245                  24922384.3364
         7.2504          8.2504
  21375756.5234   -4128810.02747  -3184641.50046                  21375766.9804
        25.5004         25.5004
  21563074.2344    5839927.46248   4540983.93946                  21563083.2624
        28.0004         24.5004
  21351297.5084   -4509449.62448  -3513853.86247                  21351306.3364
        30.7504         27.2504
 00  5  1 19 33  0.0000000  0  7G 4G 5G 6G17G10G24G30
  24474366.1724    9737471.99745   7587633.02245                  24474375.8444
         9.2504          8.2504
  20624173.0164    1517354.33348   1182350.78847                  20624181.6804
        30.2504         27.2504
  23313053.4694   -4513214.10646  -1612429.97146                  23313065.3204
        16.0004         15.7504
  24915332.2424   -1767250.95244  -1227007.65145                  24915353.5314
         6.7504          8.7504
  21373010.9924   -4143237.18547  -3195883.40246                  21373021.4024
        25.5004         25.5004
  21570364.9144    5878242.17547   4570839.53946                  21570374.0004
        27.7504         24.5004
  21347850.9844   -4527562.40548  -3527967.70247                  21347859.7074
        30.5004         27.5004
 00  5  1 19 33 15.0000000  0  7G 4G 5G 6G17G10G24G30
  24484874.5004    9792691.34045   7630661.01745                  24484886.3054
         9.5004          8.0004
  20627856.1564    1536708.17048   1197431.67547                  20627864.9024
        29.5004         27.0004
  23307953.3914   -4540016.18746  -1633314.66146                  23307965.3484
        16.0004         15.5004
  24908307.2814   -1804164.72743  -1255771.41145                  24908329.3674
         6.0004          8.0004
  21370290.7504   -4157532.20347  -3207022.34246                  21370301.0084
        25.7504         25.5004
  21577664.0084    5916598.56347   4600727.61446                  21577672.9304
        27.7504         24.5004
  21344425.6564   -4545561.59648  -3541993.03847                  21344434.2974
        30.7504         27.5004
 00  5  1 19 33 30.0000000  0  7G 4G 5G 6G17G10G24G30
  24495375.5474    9847878.77945   7673664.16745                  24495385.3484
         8.2504          7.5004
  20631562.2974    1556183.90048   1212607.54447                  20631570.9144
        30.5004         27.5004
  23302850.7734   -4566831.89746  -1654209.98846                  23302862.6024
        15.7504         15.7504
  24901286.9304   -1841055.88643  -1284517.57145                  24901310.1884
         6.0004          8.0004
  21367594.9064   -4171699.40347  -3218061.68047                  21367605.0594
        25.5004         25.7504
  21584970.6414    5954994.72447   4630646.68246                  21584979.7154
        27.7504         24.2504
  21341021.5634   -4563449.92748  -3555931.98847                  21341030.1914
        31.2504         27.7504
 00  5  1 19 33 45.0000000  0  7G 4G 5G 6G17G10G24G30
  24505871.4384    9903030.63645   7716639.59645                  24505880.9224
         8.7504          8.0004
  20635291.3054    1575780.27648   1227877.42347                  20635300.1914
        31.0004         27.5004
  23297744.4224   -4593665.47346  -1675119.21046                  23297756.4734
        16.0004         15.5004
  24894270.5474   -1877923.51843  -1313245.43045                  24894295.5164
         5.2504          7.5004
  21364923.4064   -4185737.74047  -3229000.60846                  21364933.6414
        25.5004         25.5004
  21592284.9614    5993431.48347   4660597.38146                  21592293.9774
        27.7504         24.2504
  21337638.4614   -4581228.32748  -3569785.27347                  21337647.1954
        31.5004         27.7504
 00  5  1 19 34  0.0000000  0  7G 4G 5G 6G17G10G24G30
  24516360.1954    9958145.84745   7759586.50145                  24516372.0944
        10.0004          8.0004
  20639043.0704    1595494.81048   1243239.37347                  20639052.0164
        30.2504         27.7504
  23292634.1724   -4620518.18746  -1696043.35646                  23292645.4384
        16.0004         15.7504
  24887260.2894   -1914766.75443  -1341954.22145                  24887283.6174
         5.5004          7.7504
  21362276.5004   -4199647.72547  -3239839.51746                  21362286.7234
        25.7504         25.5004
  21599606.9844    6031908.70748   4690579.61346                  21599616.0944
        28.0004         24.5004
  21334275.9614   -4598898.78548  -3583554.44747                  21334284.8134
        31.2504         27.7504
 00  5  1 19 34 15.0000000  0  7G 4G 5G 6G17G10G24G30
  24526841.8364   10013231.49045   7802510.33145                  24526852.8794
         9.7504          8.0004
  20642818.5704    1615335.57748   1258699.67947                  20642827.3164
        30.2504         27.7504
  23287522.1414   -4647381.86046  -1716976.04746                  23287533.6174
        16.0004         15.7504
  24880254.5944   -1951578.12043  -1370638.17445                  24880278.9304
         6.0004          8.2504
  21359655.0554   -4213422.64647  -3250573.18746                  21359665.2194
        26.2504         25.5004
  21606937.6954    6070431.05748   4720597.00646                  21606946.5944
        28.0004         24.2504
  21330935.2504   -4616454.39248  -3597234.13247                  21330944.0904
        31.2504         27.7504
 00  5  1 19 34 30.0000000  0  7G 4G 5G 6G17G10G24G30
  24537318.5394   10068288.20245   7845411.58245                  24537328.5744
         9.5004          8.7504
  20646617.7814    1635300.51648   1274256.74947                  20646626.5044
        30.2504         27.5004
  23282408.2814   -4674255.55846  -1737916.54246                  23282420.0984
        16.0004         15.5004
  24873255.4844   -1988356.94644  -1399296.76745                  24873279.8094
         6.5004          8.7504
  21357058.6564   -4227065.41947  -3261203.89047                  21357068.8674
        25.7504         25.7504
  21614276.0784    6108994.88248   4750646.72146                  21614285.0824
        28.2504         24.5004
  21327616.2274   -4633895.21148  -3610824.37247                  21327624.9614
        31.5004         27.7504
 00  5  1 19 34 45.0010000  0  7G 4G 5G 6G17G10G24G30
  24547791.1614   10123318.92045   7888292.62345                  24547801.1964
         9.7504          8.2504
  20650440.3564    1655388.53548   1289909.72347                  20650449.2204
        29.7504         27.5004
  23277292.0364   -4701142.15846  -1758867.09546                  23277303.7244
        16.5004         15.2504
  24866262.7314   -2025106.66845  -1427932.73145                  24866286.6814
         7.5004          9.5004
  21354487.1464   -4240579.34247  -3271734.17947                  21354497.3334
        26.0004         25.7504
  21621622.7244    6147601.62848   4780729.88746                  21621631.6924
        28.0004         24.7504
  21324318.6304   -4651224.33748  -3624327.57147                  21324327.0834
        30.7504         27.5004
 00  5  1 19 35  0.0010000  0  7G 4G 5G 6G17G10G24G30
  24558257.3174   10178322.34745   7931152.41445                  24558267.7984
         9.7504          8.2504
  20654287.0994    1675602.26048   1305660.64547                  20654296.0564
        30.2504         27.5004
  23272174.7714   -4728034.07546  -1779821.77946                  23272186.7284
        16.5004         16.0004
  24859276.1924   -2061820.74345  -1456540.88845                  24859300.3644
         7.7504          8.2504
  21351940.7944   -4253960.86647  -3282161.30547                  21351951.0404
        27.0004         25.7504
  21628976.6924    6186247.82347   4810843.78346                  21628985.9424
        27.7504         24.5004
  21321043.6464   -4668434.40748  -3637738.00647                  21321052.0994
        31.2504         27.7504
 00  5  1 19 35 15.0010000  0  7G 4G 5G 6G17G10G24G30
  24568720.2004   10233304.50645   7973995.65645                  24568730.6694
         9.0004          8.2504
  20658157.9114    1695943.56348   1321510.98747                  20658166.8334
        30.2504         27.7504
  23267055.9664   -4754932.10246  -1800781.22246                  23267067.8174
        16.0004         15.5004
  24852295.8884   -2098498.77045  -1485120.96345                  24852319.4854
         8.0004          8.7504
  21349418.7944   -4267213.67647  -3292488.13747                  21349428.6304
        26.7504         26.0004
  21636338.0754    6224932.27647   4840987.49546                  21636347.1144
        27.7504         24.7504
  21317791.1384   -4685526.22348  -3651056.29147                  21317799.6854
        31.2504         27.7504
 00  5  1 19 35 30.0010000  0  7G 4G 5G 6G17G10G24G30
  24579178.6534   10288265.99145   8016822.70245                  24579190.1304
         9.0004          8.0004
  20662052.5604    1716410.88148   1337459.51447                  20662061.6224
        29.5004         27.5004
  23261936.5284   -4781835.72246  -1821745.03746                  23261948.4154
        16.0004         15.7504
  24845323.0524   -2135142.45145  -1513674.27845                  24845345.6884
         8.0004          8.7504
  21346920.8804   -4280340.30547  -3302716.64247                  21346930.7864
        26.5004         26.0004
  21643706.7004    6263654.12247   4871160.34546                  21643715.9154
        27.7504         24.5004
  21314559.7784   -4702505.85048  -3664287.15947                  21314568.5484
        30.7504         27.7504
 00  5  1 19 35 45.0010000  0  7G 4G 5G 6G17G10G24G30
  24589634.5834   10343210.57145   8059636.61645                  24589646.9744
         9.0004          7.7504
  20665971.4974    1737005.06048   1353506.89547                  20665980.4194
        30.2504         27.5004
  23256816.4114   -4808741.70546  -1842710.68346                  23256827.9584
        16.0004         15.7504
  24838356.8564   -2171749.97845  -1542199.45045                  24838377.5604
         8.2504          9.2504
  21344447.3494   -4293339.10847  -3312845.54747                  21344457.2204
        26.2504         25.7504
  21651082.4974    6302415.15547   4901363.72946                  21651091.7824
        27.5004         24.5004
  21311350.2864   -4719373.61248  -3677430.86447                  21311359.0094
        30.7504         27.7504
 00  5  1 19 36  0.0010000  0  7G 4G 5G 6G17G10G24G30
  24600087.5834   10398139.03145   8102437.99945                  24600099.8454
         9.5004          8.5004
  20669914.9504    1757727.42848   1369654.16647                  20669923.7314
        30.2504         27.5004
  23251696.0214   -4835649.15146  -1863677.46646                  23251708.0714
        16.5004         15.7504
  24831396.7784   -2208321.65045  -1570696.61245                  24831419.2634
         8.2504          9.0004
  21341997.8564   -4306210.82047  -3322875.41147                  21342007.7634
        26.5004         25.7504
  21658466.4504    6341216.85747   4931598.80546                  21658475.8534
        27.2504         24.2504
  21308161.8024   -4736128.79548  -3690486.84047                  21308170.6534
        30.7504         27.5004
 00  5  1 19 36 15.0010000  0  7G 4G 5G 6G17G10G24G30
  24610536.7634   10453046.39945   8145222.88745                  24610546.6574
         9.5004          8.0004
  20673882.3564    1778575.02248   1385899.01747                  20673891.2084
        29.7504         27.5004
  23246575.0284   -4862559.71246  -1884646.69546                  23246586.5404
        17.0004         15.7504
  24824443.3334   -2244862.89045  -1599170.12145                  24824466.2514
         8.7504          9.0004
  21339571.5524   -4318961.66247  -3332811.10146                  21339581.3534
        26.5004         25.5004
  21665856.9664    6380054.91647   4961862.20346                  21665866.3924
        27.7504         24.2504
  21304993.9194   -4752776.11348  -3703458.76747                  21305002.6534
        30.5004         27.7504
 00  5  1 19 36 30.0010000  0  7G 4G 5G 6G17G10G24G30
  24620981.5524   10507935.02145   8187993.22445                  24620991.1424
         8.2504          7.0004
  20677872.9114    1799546.76648   1402240.59547                  20677881.8454
        31.0004         27.7504
  23241453.5914   -4889472.94446  -1905617.99046                  23241465.3024
        17.0004         16.2504
  24817496.0214   -2281371.19045  -1627617.91845                  24817517.3564
         8.7504          9.0004
  21337168.7004   -4331588.66047  -3342650.28546                  21337178.4314
        26.7504         25.5004
  21673255.1774    6418931.39347   4992155.54446                  21673264.5914
        27.7504         24.5004
  21301847.1614   -4769312.57248  -3716344.31247                  21301855.8724
        30.2504         27.5004
 00  5  1 19 36 45.0010000  0  7G 4G 5G 6G17G10G24G30
  24631422.8494   10562804.76945   8230748.81245                  24631433.8454
         7.7504          7.0004
  20681887.2474    1820641.49648   1418678.03047                  20681895.9354
        30.7504         27.7504
  23236331.0604   -4916390.28046  -1926592.48546                  23236342.8644
        16.5004         15.7504
  24810555.2474   -2317845.67545  -1656039.40445                  24810575.4664
         9.2504          9.5004
  21334789.6464   -4344090.26747  -3352391.76446                  21334799.3644
        26.5004         25.5004
  21680660.5214    6457847.79747   5022479.99646                  21680669.8534
        27.7504         24.2504
  21298721.6694   -4785738.11448  -3729143.43047                  21298730.5914
        30.2504         27.7504
 00  5  1 19 37  0.0010000  0  7G 4G 5G 6G17G10G24G30
  24641860.6464   10617657.90445   8273491.44045                  24641871.5714
         7.7504          7.2504
  20685925.2634    1841861.63648   1435213.17247                  20685933.9624
        30.2504         27.7504
  23231208.4974   -4943310.66946  -1947569.36346                  23231220.2784
        16.0004         16.2504
  24803620.6924   -2354285.49645  -1684433.89745                  24803641.8994
         9.2504          9.5004
  21332435.4034   -4356460.98947  -3362031.25546                  21332445.1574
        26.5004         25.5004
  21688073.9114    6496805.15847   5052836.36746                  21688083.1264
        27.7504         24.5004
  21295616.9584   -4802052.64848  -3741856.05147                  21295625.7744
        30.5004         27.7504
 00  5  1 19 37 15.0010000  0  7G 4G 5G 6G17G10G24G30
  24652294.2474   10672490.03545   8316217.77045                  24652305.3964
         7.5004          7.5004
  20689986.6384    1863204.19648   1451843.70147                  20689995.4074
        30.5004         28.0004
  23226084.7004   -4970237.63546  -1968551.36646                  23226096.2474
        16.5004         16.0004
  24796691.9894   -2390694.16045  -1712804.09645                  24796714.2284
         8.7504          9.0004
  21330105.7314   -4368703.72847  -3371571.01947                  21330115.6964
        26.2504         26.0004
  21695494.3494    6535797.93448   5083220.32746                  21695503.6814
        28.2504         24.5004
  21292532.6464   -4818261.22148  -3754486.09947                  21292541.4274
        30.7504         27.7504
 00  5  1 19 37 30.0010000  0  7G 4G 5G 6G17G10G24G30
  24662725.1534   10727301.15145   8358927.66945                  24662739.5484
         7.5004          7.5004
  20694071.2864    1884669.34648   1468569.76247                  20694080.3374
        31.2504         28.0004
  23220960.1144   -4997166.30246  -1989534.69146                  23220971.4384
        17.0004         16.0004
  24789770.1384   -2427069.36645  -1741148.19545                  24789792.8334
         8.7504          8.7504
  21327801.2864   -4380814.12547  -3381007.65047                  21327811.4744
        26.2504         26.2504
  21702921.9424    6574831.31948   5113635.93046                  21702931.2044
        28.2504         24.5004
  21289468.9354   -4834360.47148  -3767030.96147                  21289477.8454
        30.2504         28.0004
 00  5  1 19 37 45.0010000  0  7G 4G 5G 6G17G10G24G30
  24673150.3964   10782089.63144   8401619.94545                  24673162.8454
         6.7504          7.0004
  20698178.4504    1906252.87148   1485388.06647                  20698187.5604
        30.5004         28.2504
  23215835.0604   -5024097.21646  -2010519.76246                  23215845.9744
        17.2504         16.2504
  24782853.5054   -2463414.48145  -1769468.84945                  24782874.9584
         8.5004          8.2504
  21325521.8724   -4392790.27347  -3390339.68047                  21325531.8724
        26.5004         25.7504
  21710357.1304    6613904.44747   5144082.50846                  21710366.6854
        27.5004         24.5004
  21286426.5754   -4850348.58948  -3779489.23947                  21286435.3214
        30.5004         27.7504
 00  5  1 19 38  0.0010000  0  7G 4G 5G 6G17G10G24G30
  24683572.1064   10836851.06244   8444291.10345                  24683585.0364
         6.7504          6.7504
  20702307.2394    1927949.40148   1502294.41647                  20702316.1734
        30.5004         27.7504
  23210708.4584   -5051037.51746  -2031512.16046                  23210720.0284
        16.7504         16.0004
  24775941.7004   -2499736.24045  -1797771.33345                  24775963.5634
         8.7504          8.2504
  21323268.4114   -4404634.28247  -3399568.74947                  21323278.4584
        26.7504         26.0004
  21717798.8254    6653009.61447   5174554.04646                  21717808.1104
        27.7504         24.0004
  21283404.6144   -4866228.12748  -3791862.90047                  21283413.2434
        31.0004         27.7504
 00  5  1 19 38 15.0010000  0  7G 4G 5G 6G17G10G24G30
  24693987.9424   10891590.45445   8486945.11645                  24693999.3134
         7.7504          7.7504
  20706458.8104    1949765.71248   1519294.11547                  20706467.7904
        30.0004         27.7504
  23205581.1534   -5077981.92946  -2052507.74746                  23205592.8534
        16.2504         16.2504
  24769035.0754   -2536029.94045  -1826051.96445                  24769055.4464
         8.2504          7.7504
  21321041.0364   -4416338.56947  -3408688.94247                  21321051.1064
        26.5004         26.2504
  21725247.3494    6692152.57948   5205055.04146                  21725256.9154
        28.0004         24.0004
  21280404.8964   -4881992.94048  -3804147.16247                  21280413.6184
        30.7504         27.7504
 00  5  1 19 38 30.0010000  0  7G 4G 5G 6G17G10G24G30
  24704401.2474   10946307.38244   8529581.66445                  24704412.1384
         7.2504          7.0004
  20710632.0364    1971696.15548   1536382.73647                  20710641.0634
        30.0004         28.0004
  23200452.2784   -5104932.60246  -2073508.23646                  23200463.8494
        16.7504         16.2504
  24762133.2554   -2572298.83645  -1854313.24645                  24762154.3564
         8.2504          7.7504
  21318839.8254   -4427905.89847  -3417702.40947                  21318849.8024
        26.7504         26.2504
  21732702.4114    6731329.35947   5235582.38146                  21732711.8844
        27.7504         23.7504
  21277426.3564   -4897645.78048  -3816344.17947                  21277435.1854
        31.5004         28.0004
 00  5  1 19 38 45.0010000  0  7G 4G 5G 6G17G10G24G30
  24714808.6384   11001004.62844   8572202.81945                  24714819.3764
         7.2504          7.0004
  20714827.5834    1993743.09348   1553562.13147                  20714836.8924
        30.5004         28.2504
  23195323.2244   -5131887.42846  -2094511.93646                  23195334.5364
        17.2504         16.0004
  24755235.8564   -2608542.76145  -1882555.08445                  24755257.7434
         7.7504          8.2504
  21316665.3334   -4439334.15747  -3426607.51047                  21316675.2864
        26.7504         26.5004
  21740164.1224    6770540.65647   5266136.61746                  21740173.5484
        27.0004         23.7504
  21274469.1614   -4913184.75848  -3828452.46747                  21274478.0954
        31.2504         28.0004
 00  5  1 19 39  0.0010000  0  7G 4G 5G 6G17G10G24G30
  24725213.5134   11055680.28045   8614807.20545                  24725226.4314
         7.5004          7.2504
  20719045.4424    2015908.49648   1570833.84247                  20719054.7284
        30.5004         28.2504
  23190193.0214   -5158846.24346  -2115518.75846                  23190204.3104
        16.7504         16.2504
  24748343.0134   -2644763.39545  -1910778.78045                  24748364.6304
         8.0004          8.0004
  21314516.5834   -4450625.18547  -3435405.67947                  21314526.4894
        27.0004         26.2504
  21747631.5364    6809781.73647   5296714.06446                  21747641.0444
        27.0004         23.2504
  21271533.4504   -4928610.87048  -3840472.80847                  21271542.3604
        30.7504         27.7504
 00  5  1 19 39 15.0010000  0  7G 4G 5G 6G17G10G24G30
  24735615.3174   11110336.22045   8657396.15445                  24735625.5284
         8.2504          7.7504
  20723287.0914    2038197.82048   1588202.11047                  20723296.2474
        30.2504         28.2504
  23185062.1464   -5185807.07246  -2136527.14346                  23185073.2004
        16.2504         16.2504
  24741455.5604   -2680958.38145  -1938982.47745                  24741477.3884
         8.0004          7.7504
  21312394.4504   -4461776.76747  -3444095.19147                  21312404.3334
        27.2504         26.5004
  21755104.9894    6849054.74347   5327316.38946                  21755114.2284
        26.5004         23.5004
  21268620.7944   -4943917.83748  -3852400.31647                  21268629.7744
        31.2504         28.0004
 00  5  1 19 39 30.0010000  0  7G 4G 5G 6G17G10G24G30
  24746012.7394   11164973.91745   8699970.99745                  24746022.4934
         9.5004          8.2504
  20727553.1534    2060617.00248   1605671.57047                  20727562.0174
        30.7504         28.0004
  23179932.6384   -5212766.56546  -2157534.49446                  23179943.9274
        16.7504         16.0004
  24734573.1614   -2717123.26144  -1967162.73045                  24734596.8174
         6.7504          8.0004
  21310298.9744   -4472787.39447  -3452674.87447                  21310309.1854
        27.0004         26.5004
  21762585.6144    6888365.28447   5357947.96046                  21762594.8994
        26.2504         23.2504
  21265732.0284   -4959098.59048  -3864229.46647                  21265740.6814
        30.7504         27.7504
 00  5  1 19 39 45.0010000  0  7G 4G 5G 6G17G10G24G30
  24756403.9504   11219585.68145   8742525.56245                  24756415.1464
         9.0004          7.5004
  20731843.0284    2083159.49948   1623237.12047                  20731851.7634
        30.2504         28.2504
  23174800.8174   -5239731.96246  -2178546.43346                  23174812.2474
        16.5004         16.2504
  24727694.7784   -2753265.92444  -1995325.64745                  24727715.8454
         6.2504          7.7504
  21308229.1924   -4483664.40047  -3461150.42647                  21308239.0754
        26.5004         26.0004
  21770071.8804    6927706.36947   5388603.33446                  21770081.6464
        26.0004         23.0004
  21262865.9114   -4974160.48648  -3875966.00747                  21262874.5994
        30.7504         28.0004
 00  5  1 19 40  0.0010000  0  7G 4G 5G 6G17G10G24G30
  24766793.6854   11274178.53645   8785065.38145                  24766805.7474
         8.7504          8.2504
  20736157.9584    2105834.23748   1640905.70947                  20736167.1144
        30.7504         28.2504
  23169669.2314   -5266698.85846  -2199559.55646                  23169681.0134
        16.5004         16.2504
  24720822.5054   -2789380.01544  -2023466.26845                  24720844.4154
         6.2504          8.2504
  21306185.7554   -4494403.39147  -3469518.43947                  21306195.6964
        27.0004         26.2504
  21777564.7474    6967081.46947   5419285.20646                  21777574.1494
        26.0004         23.0004
  21260022.8644   -4989100.09648  -3887607.26047                  21260031.5284
        31.5004         27.7504
 00  5  1 19 40 15.0010000  0  7G 4G 5G 6G17G10G24G30
  24777177.3414   11328746.94545   8827586.16145                  24777189.4974
        10.2504          8.2504
  20740497.6534    2128638.84748   1658675.50047                  20740506.9624
        31.2504         28.5004
  23164536.2714   -5293671.58546  -2220577.21146                  23164547.6184
        17.0004         16.2504
  24713955.4664   -2825467.45444  -2051586.15945                  24713977.3764
         6.5004          7.7504
  21304166.8334   -4505011.95347  -3477784.82347                  21304176.5284
        27.0004         26.0004
  21785063.2164    7006487.04047   5449990.83046                  21785072.4664
        26.0004         22.7504
  21257202.1534   -5003923.10648  -3899157.64647                  21257210.7594
        31.2504         27.7504
 00  5  1 19 40 30.0010000  0  7G 4G 5G 6G17G10G24G30
  24787558.0834   11383294.86545   8870091.01745                  24787568.9384
        11.2504          8.2504
  20744862.2864    2151575.49048   1676548.17547                  20744871.4314
        30.5004         28.5004
  23159403.6534   -5320643.74246  -2241594.41946                  23159414.8844
        17.7504         16.5004
  24707094.5524   -2861520.47944  -2079679.21345                  24707117.4354
         6.5004          8.2504
  21302173.2474   -4515488.53147  -3485948.36247                  21302183.1654
        26.7504         25.7504
  21792568.2474    7045926.65247   5480722.97446                  21792577.5564
        25.7504         23.0004
  21254404.2164   -5018624.82548  -3910613.52747                  21254412.8684
        30.7504         27.7504
 00  5  1 19 40 45.0010000  0  7G 4G 5G 6G17G10G24G30
  24797933.3724   11437820.89345   8912578.77845                  24797946.0094
        10.7504          8.7504
  20749252.3104    2174644.92648   1694524.31947                  20749261.3254
        31.0004         28.2504
  23154271.6774   -5347613.77346  -2262609.98146                  23154282.6034
        17.0004         16.0004
  24700241.5914   -2897536.28144  -2107743.28845                  24700265.6694
         6.7504          8.5004
  21300204.4744   -4525835.10847  -3494010.60147                  21300214.4274
        26.7504         25.7504
  21800079.5524    7085397.92847   5511479.78746                  21800088.9424
        26.0004         23.0004
  21251630.2084   -5033203.67348  -3921973.66247                  21251638.9314
        30.5004         27.5004
 00  5  1 19 41  0.0010000  0  7G 4G 5G 6G17G10G24G30
  24808304.7004   11492323.10045   8955047.98345                  24808315.6734
        11.2504          8.2504
  20753668.3334    2197851.73248   1712607.51547                  20753677.2674
        30.7504         28.0004
  23149139.5834   -5374581.59646  -2283623.80946                  23149151.0014
        17.0004         16.2504
  24693395.6774   -2933508.60544  -2135773.52845                  24693416.6384
         7.2504          8.5004
  21298260.6694   -4536048.83847  -3501969.32047                  21298270.4584
        26.7504         26.0004
  21807596.8174    7124901.05147   5542261.42246                  21807606.2434
        26.2504         23.0004
  21248879.9114   -5047657.01348  -3933236.00247                  21248888.5054
        30.2504         27.5004
 00  5  1 19 41 15.0010000  0  7G 4G 5G 6G17G10G24G30
  24818671.2244   11546798.57945   8997496.35245                  24818681.4354
        11.0004          8.7504
  20758109.7784    2221191.81248   1730794.55247                  20758118.5954
        30.7504         28.2504
  23144007.6224   -5401550.07646  -2304638.16646                  23144019.0994
        17.5004         16.7504
  24686557.9744   -2969438.68344  -2163770.78845                  24686579.2744
         7.0004          8.7504
  21296342.1694   -4546130.20047  -3509824.90247                  21296351.9354
        26.5004         26.0004
  21815120.1854    7164436.74147   5573068.42546                  21815129.6344
        26.2504         23.0004
  21246153.1694   -5061985.31648  -3944400.91147                  21246161.4934
        31.2504         27.5004
 00  5  1 19 41 30.0010000  0  7G 4G 5G 6G17G10G24G30
  24829032.8724   11601248.09445   9039924.50645                  24829044.1734
        11.7504          9.2504
  20762576.1694    2244661.30248   1749082.43247                  20762585.2314
        31.2504         28.2504
  23138875.6924   -5428519.19046  -2325653.01446                  23138886.9464
        17.5004         16.2504
  24679729.0134   -3005326.71744  -2191735.28245                  24679750.3964
         7.2504          8.5004
  21294448.8174   -4556080.73747  -3517578.54047                  21294458.5604
        26.7504         26.0004
  21822650.2944    7204007.22547   5603902.54546                  21822659.8604
        26.2504         23.0004
  21243450.0674   -5076189.65748  -3955469.21347                  21243458.3804
        31.0004         27.5004
 00  5  1 19 41 45.0010000  0  7G 4G 5G 6G17G10G24G30
  24839388.4584   11655670.20145   9082331.30145                  24839398.2004
        11.0004          8.0004
  20767065.3724    2268253.37248   1767465.82947                  20767074.2944
        30.7504         28.2504
  23133743.4894   -5455488.26646  -2346667.83046                  23133754.8724
        17.5004         16.7504
  24672907.4974   -3041172.19744  -2219666.64945                  24672928.9744
         7.2504          8.7504
  21292580.1614   -4565899.82147  -3525229.74647                  21292589.7284
        27.0004         26.0004
  21830186.2714    7243609.67847   5634761.58146                  21830195.7904
        26.2504         23.0004
  21240770.2084   -5090273.27648  -3966443.46047                  21240778.4504
        30.5004         27.7504
 00  5  1 19 42  0.0010000  0  7G 4G 5G 6G17G10G24G30
  24849739.4744   11710070.17845   9124720.87945                  24849748.4314
         9.5004          6.7504
  20771577.8724    2291966.64548   1785943.66347                  20771586.8064
        30.7504         28.5004
  23128611.3174   -5482457.12746  -2367682.46346                  23128622.3494
        18.0004         16.7504
  24666094.0994   -3076972.03244  -2247562.45045                  24666115.6104
         7.2504          9.5004
  21290737.3564   -4575584.18147  -3532775.97447                  21290747.0284
        26.7504         26.2504
  21837728.1464    7283242.39247   5665644.19646                  21837737.5604
        26.0004         23.0004
  21238113.0604   -5104236.34648  -3977323.77447                  21238121.4784
        30.7504         27.5004
 00  5  1 19 42 15.0010000  0  7G 4G 5G 6G17G10G24G30
  24860086.9034   11764444.28945   9167090.24145                  24860096.5874
         9.2504          6.5004
  20776112.4354    2315795.34748   1804511.44747                  20776121.5444
        31.5004         28.5004
  23123478.6614   -5509429.16546  -2388699.59446                  23123489.5174
        18.0004         16.5004
  24659291.1144   -3112726.87945  -2275423.17545                  24659313.1424
         8.5004          9.7504
  21288919.5284   -4585136.69847  -3540219.46347                  21288929.3884
        26.7504         26.2504
  21845275.3104    7322900.91547   5696546.91546                  21845284.8884
        26.0004         22.7504
  21235478.8024   -5118080.33548  -3988111.29447                  21235487.3844
        30.5004         27.5004
 00  5  1 19 42 30.0010000  0  7G 4G 5G 6G17G10G24G30
  24870431.6774   11818795.49645   9209441.83845                  24870441.9704
         9.7504          6.2504
  20780669.3564    2339742.23648   1823171.32647                  20780678.4194
        30.5004         28.5004
  23118346.4974   -5536399.19346  -2409715.15446                  23118357.5874
        17.2504         16.7504
  24652496.5674   -3148430.35745  -2303243.86645                  24652518.1854
         9.2504         10.0004
  21287127.4194   -4594554.10347  -3547557.68047                  21287137.3024
        26.7504         26.2504
  21852827.4744    7362589.05547   5727472.71946                  21852836.9354
        26.2504         22.7504
  21232868.3174   -5131798.23348  -3998800.55947                  21232876.6064
        31.2504         27.7504
 00  5  1 19 42 45.0010000  0  7G 4G 5G 6G17G10G24G30
  24880768.4744   11873121.08245   9251773.44245                  24880778.4504
         9.0004          6.5004
  20785248.6064    2363806.13548   1841922.37747                  20785257.6224
        30.7504         28.5004
  23113214.3494   -5563368.81046  -2430730.39046                  23113225.8964
        17.0004         16.7504
  24645710.9034   -3184087.73045  -2331028.67345                  24645730.9584
         9.5004         10.0004
  21285360.9274   -4603837.37147  -3554791.36847                  21285370.6574
        26.7504         26.5004
  21860384.9504    7402304.30947   5758419.65346                  21860394.7744
        26.0004         23.0004
  21230281.3884   -5145391.67348  -4009392.84347                  21230289.5834
        31.0004         27.5004
 00  5  1 19 43  0.0010000  0  7G 4G 5G 6G17G10G24G30
  24891100.6384   11927418.04645   9294082.75245                  24891115.0214
         8.0004          6.2504
  20789850.0364    2387986.60348   1860764.26747                  20789858.9234
        31.2504         28.5004
  23108081.7784   -5590341.89446  -2451748.33246                  23108093.5244
        17.2504         17.0004
  24638933.1224   -3219704.56745  -2358781.86745                  24638954.3414
         9.2504          9.7504
  21283619.9424   -4612985.69847  -3561919.91147                  21283629.7904
        26.2504         26.5004
  21867947.8024    7442047.46347   5789388.32146                  21867957.3334
        26.2504         22.5004
  21227717.9274   -5158864.05648  -4019890.79847                  21227726.0754
        31.0004         27.7504
 00  5  1 19 43 15.0010000  0  7G 4G 5G 6G17G10G24G30
  24901427.2784   11981689.30244   9336372.01345                  24901435.4384
         6.7504          4.7504
  20794473.4664    2412282.79348   1879696.32947                  20794482.6464
        30.5004         28.7504
  23102948.0754   -5617318.86646  -2472769.29546                  23102959.5174
        18.2504         17.0004
  24632162.3414   -3255284.06745  -2386505.95445                  24632183.7124
         9.2504          9.7504
  21281905.5524   -4621993.95947  -3568939.30647                  21281915.3994
        26.2504         26.5004
  21875516.3564    7481819.77447   5820379.71246                  21875525.6774
        26.0004         22.5004
  21225176.8494   -5172217.01248  -4030295.69947                  21225185.1384
        31.0004         27.7504
 00  5  1 19 43 30.0010000  0  7G 4G 5G 6G17G10G24G30
  24911750.4034   12035938.50744   9378644.07345                  24911759.3964
         6.2504          5.7504
  20799119.2634    2436696.57948   1898720.01447                  20799128.7474
        30.2504         28.7504
  23097814.4974   -5644296.24046  -2493790.57346                  23097825.9384
        18.2504         17.2504
  24625398.6224   -3290828.33545  -2414202.60645                  24625419.7124
         9.5004         10.2504
  21280218.3724   -4630860.57947  -3575848.33047                  21280228.1264
        26.5004         26.2504
  21883090.5674    7521622.73547   5851394.98446                  21883099.9934
        26.2504         22.5004
  21222658.6534   -5185450.07148  -4040607.16747                  21222667.0244
        31.2504         27.7504
 00  5  1 19 43 45.0010000  0  7G 4G 5G 6G17G10G24G30
  24922070.0754   12090164.65143   9420898.11845                  24922090.0014
         5.5004          5.5004
  20803787.8334    2461229.63348   1917836.63947                  20803797.3534
        30.7504         28.7504
  23092680.2784   -5671275.67546  -2514813.46246                  23092691.3454
        17.7504         17.2504
  24618641.4194   -3326336.88345  -2441871.41945                  24618662.7554
         9.5004          9.7504
  21278557.6144   -4639588.24747  -3582649.08947                  21278567.4854
        26.7504         26.2504
  21890669.9194    7561451.87647   5882430.65346                  21890679.3804
        27.0004         22.7504
  21220162.9504   -5198565.52448  -4050826.99647                  21220171.2634
        31.5004         27.7504
 00  5  1 19 44  0.0010000  0  7G 4G 5G 6G17G10G24G30
  24932384.3254   12144364.25943
         5.5004
  20808478.9114    2485880.68848   1937045.21347                  20808488.2904
        30.2504         28.7504
  23087545.2554   -5698259.55146  -2535839.81546                  23087556.5794
        17.7504         16.5004
  24611890.1854   -3361816.05745  -2469517.33645                  24611911.2984
         9.7504          9.7504
  21276922.6224   -4648179.58647  -3589343.61947                  21276932.5524
        26.5004         26.2504
  21898253.6384    7601303.19547   5913483.61146                  21898263.2394
        27.0004         22.7504
  21217689.2784   -5211564.75848  -4060956.27047                  21217697.4154
        30.7504         28.0004
 00  5  1 19 44 15.0010000  0  7G 4G 5G 6G17G10G24G30
  24942692.8334   12198534.98543
         5.7504
  20813192.6304    2510652.03248   1956347.51947                  20813201.8924
        30.5004         28.5004
  23082409.2784   -5725249.69346  -2556871.04146                  23082420.6384
        17.5004         17.2504
  24605143.1534   -3397270.84145  -2497144.25645                  24605164.2784
         9.5004          9.5004
  21275312.8414   -4656639.63047  -3595935.83147                  21275322.7824
        26.2504         26.5004
  21905841.0054    7641175.09647   5944552.60346                  21905850.6064
        26.7504         23.0004
  21215237.4894   -5224448.71448  -4070995.71347                  21215245.6034
        30.7504         27.5004
 00  5  1 19 44 30.0010000  0  7G 4G 5G 6G17G10G24G30
  24952994.9114   12252674.95342
         4.7504
  20817929.5834    2535545.08648   1975744.66647                  20817938.8104
        30.2504         28.5004
  23077272.5444   -5752242.63546  -2577904.45346                  23077283.5174
        17.7504         17.5004
  24598400.2554   -3432703.57245  -2524753.98645                  24598421.6264
         9.0004          9.5004
  21273727.7944   -4664968.37947  -3602425.74347                  21273737.7944
        26.7504         26.5004
  21913432.9354    7681070.86747   5975640.19446                  21913442.5834
        27.2504         23.0004
  21212807.9744   -5237215.10048  -4080943.54047                  21212816.2984
        31.5004         27.7504
 00  5  1 19 44 45.0010000  0  7G 4G 5G 6G17G10G24G30
  24963291.8964   12306787.31042
         4.5004
  20822690.0054    2560560.73948   1995237.34547                  20822699.2674
        30.5004         28.5004
  23072136.2084   -5779236.77846  -2598938.79746                  23072147.3214
        18.2504         17.5004
  24591661.2244   -3468116.07345  -2552347.95845                  24591682.3844
         8.2504          8.7504
  21272168.8254   -4673161.32747  -3608809.83947                  21272178.5914
        26.5004         26.5004
  21921029.9194    7720994.66047   6006749.62446                  21921039.3334
        27.5004         23.0004
  21210401.3564   -5249863.02748  -4090799.06447                  21210409.9624
        31.5004         27.7504
 00  5  1 19 45  0.0010000  0  7G 4G 5G 6G17G10G24G30
  24973583.9584   12360875.28142     19662.26455                  24973600.0994
         4.2504          5.0004
  20827473.4194    2585697.64848   2014824.50447                  20827482.6104
        30.7504         28.5004
  23066998.7714   -5806232.26446  -2619974.18846                  23067009.8604
        18.7504         17.5004
  24584925.7084   -3503510.53045  -2579927.86845                  24584945.9274
         8.2504          8.7504
  21270636.2164   -4681214.50547  -3615085.02047                  21270646.0054
        26.7504         26.2504
  21928632.8884    7760948.04947   6037882.11446                  21928642.3964
        27.0004         23.2504
  21208016.8334   -5262393.43348  -4100563.01547                  21208025.3334
        31.2504         27.7504
 00  5  1 19 45 15.0010000  0  7G 4G 5G 6G17G10G24G30
  24983874.1464   12414936.04343     61787.54245                  24983890.5794
         5.7504          5.5004
  20832278.5754    2610948.38948   2034500.36947                  20832287.7204
        31.0004         28.5004
  23061860.3884   -5833233.64346  -2641014.17646                  23061871.5134
        18.5004         17.7504
  24578193.2714   -3538886.17745  -2607493.12045                  24578213.9974
         8.2504          8.5004
  21269130.2004   -4689130.09247  -3621252.98447                  21269139.8724
        26.7504         26.2504
  21936240.6224    7800926.73747   6069034.31646                  21936250.0954
        26.7504         23.2504
  21205654.5134   -5274807.89148  -4110236.61947                  21205663.1424
        30.7504         27.7504
 00  5  1 19 45 30.0010000  0  7G 4G 5G 6G17G10G24G30
  24994155.7714   12468975.96343    103896.50145                  24994171.7594
         5.5004          5.2504
  20837105.9194    2636316.35448   2054267.57747                  20837114.9464
        30.5004         28.5004
  23056722.1464   -5860234.58846  -2662053.82646                  23056733.1064
        17.7504         17.5004
  24571467.3254   -3574234.14545  -2635036.80445                  24571489.8924
         8.2504          8.5004
  21267650.2314   -4696906.13847  -3627312.21847                  21267660.0564
        26.7504         26.2504
  21943853.9034    7840935.06747   6100209.61746                  21943863.6224
        26.2504         23.0004
  21203315.7314   -5287097.55048  -4119812.97347                  21203324.2314
        31.2504         28.0004
 00  5  1 19 45 45.0010000  0  6G 5G 6G17G10G24G30
  20841956.0284    2661803.40748   2074127.58047                  20841964.9274
        30.5004         28.0004
  23051584.5834   -5887233.71546  -2683092.05746                  23051595.8494
        18.0004         17.5004
  24564746.8254   -3609548.80645  -2662554.50945                  24564768.2434
         8.2504          8.5004
  21266196.6774   -4704544.53147  -3633264.19747                  21266206.5014
        26.7504         26.5004
  21951473.2784    7880974.77147   6131409.35946                  21951483.0794
        26.0004         22.7504
  21201002.2244   -5299255.26348  -4129286.51647                  21201010.6424
        31.7504         28.0004
 00  5  1 19 46  0.0010000  0  6G 5G 6G17G10G24G30
  20846827.4194    2687403.73648   2094075.85147                  20846836.6814
        30.2504         28.0004
  23046446.1854   -5914235.76246  -2704132.57046                  23046456.7824
        18.5004         17.5004
  24558031.1384   -3644833.80745  -2690049.13345                  24558051.0524
         8.2504          8.7504
  21264768.6774   -4712048.43247  -3639111.37047                  21264778.2314
        26.5004         26.2504
  21959097.8884    7921043.15847   6162631.45446                  21959107.7824
        26.0004         22.7504
  21198713.6464   -5311281.94348  -4138657.94947                  21198722.1574
        31.5004         28.0004
 00  5  1 19 46 15.0010000  0  6G 5G 6G17G10G24G30
  20851720.7554    2713117.95848   2114112.86647                  20851729.8064
        30.0004         28.0004
  23041307.5994   -5941238.60746  -2725173.70446                  23041318.1144
        18.7504         17.7504
  24551323.2634   -3680085.99245  -2717518.16345                  24551343.6694
         8.0004          8.7504
  21263367.0754   -4719413.01847  -3644849.98847                  21263376.7124
        26.2504         26.2504
  21966728.4584    7961141.98447   6193877.26746                  21966738.3174
        25.7504         22.7504
  21196450.3024   -5323176.56148  -4147926.48347                  21196458.9784
        31.2504         28.2504
 00  5  1 19 46 30.0010000  0  6G 5G 6G17G10G24G30
  20856635.9664    2738946.73948   2134239.14947                  20856645.0874
        30.2504         28.0004
  23036169.2634   -5968241.90846  -2746215.18246                  23036179.9314
        18.7504         17.5004
  24544622.0284   -3715300.50945  -2744957.82345                  24544641.5564
         7.7504          8.0004
  21261993.1304   -4726634.29047  -3650476.93547                  21262002.8844
        26.2504         26.2504
  21974365.4034    8001273.43247   6225148.50146                  21974375.0524
        26.0004         22.5004
  21194212.1534   -5334937.54448  -4157090.88347                  21194220.9704
        31.2504         28.2504
 00  5  1 19 46 45.0010000  0  6G 5G 6G17G10G24G30
  20861572.2244    2764887.67648   2154452.82747                  20861581.2164
        29.5004         28.0004
  23031029.4664   -5995249.37746  -2767259.92046                  23031040.8254
        19.2504         17.5004
  24537927.6224   -3750476.67445  -2772367.65745                  24537946.3644
         8.0004          8.5004
  21260645.9034   -4733713.04247  -3655992.82347                  21260655.7514
        26.2504         26.0004
  21982008.0834    8041436.33847   6256444.24346                  21982017.8254
        26.0004         22.7504
  21191998.4504   -5346569.58648  -4166154.81747                  21192007.2084
        31.5004         28.2504
 00  5  1 19 47  0.0010000  0  6G 5G 6G17G10G24G30
  20866531.1064    2790947.03048   2174758.77547                  20866540.2984
        29.7504         27.7504
  23025889.7314   -6022259.11346  -2788306.41046                  23025900.9854
        18.7504         18.0004
  24531243.0994   -3785608.62845  -2799743.02245                  24531261.6304
         8.2504          8.7504
  21259326.4274   -4740646.61447  -3661395.58047                  21259336.1224
        26.2504         26.0004
  21989656.7864    8081629.88347   6287763.86646                  21989666.3884
        25.7504         22.2504
  21189810.1384   -5358070.17848  -4175116.31147                  21189819.0014
        31.2504         28.2504
 00  5  1 19 47 15.0010000  0  6G 5G 6G17G10G24G30
  20871512.8334    2817125.35448   2195157.42347                  20871522.0834
        30.0004         28.0004
  23020748.7784   -6049275.20946  -2809357.86846                  23020759.9504
        18.2504         17.7504
  24524566.2784   -3820693.44245  -2827081.64145                  24524587.0284
         9.2504          9.2504
  21258033.9584   -4747439.61947  -3666688.81147                  21258043.5954
        26.2504         26.0004
  21997310.1854    8121848.99947   6319103.41246                  21997319.9274
        26.0004         22.5004
  21187646.4424   -5369440.71648  -4183976.47447                  21187655.1304
        31.2504         28.2504
 00  5  1 19 47 30.0010000  0  6G 5G 6G17G10G24G30
  20876517.4274    2843424.40848   2215650.14747                  20876526.7124
        29.7504         28.0004
  23015606.5914   -6076298.49546  -2830414.93346                  23015617.3884
        18.7504         18.0004
  24517899.1064   -3855730.63745  -2854383.13945                  24517919.5244
         9.2504          9.2504
  21256767.3964   -4754095.18947  -3671874.95247                  21256777.2204
        26.2504         26.2504
  22004968.1384    8162092.17247   6350461.71046                  22004977.7984
        25.5004         22.5004
  21185507.5604   -5380681.20048  -4192735.29247                  21185516.0714
        31.2504         28.2504
 00  5  1 19 47 45.0010000  0  6G 5G 6G17G10G24G30
  20881546.4744    2869851.47948   2236242.63247                  20881555.6774
        30.0004         28.2504
  23010462.9424   -6103327.34546  -2851476.32146                  23010473.9624
        19.2504         17.5004
  24511239.2554   -3890722.17245  -2881649.08645                  24511259.1814
         9.0004          9.5004
  21255526.5834   -4760614.77447  -3676955.12447                  21255536.3374
        26.2504         26.2504
  22012631.0214    8202360.08347   6381839.28246                  22012640.7514
        25.2504         22.2504
  21183392.9894   -5391792.74248  -4201393.63747                  21183401.5714
        31.2504         28.2504
 00  5  1 19 48  0.0010000  0  6G 5G 6G17G10G24G30
  20886601.2784    2896414.06948   2256940.71347                  20886610.3884
        30.0004         28.2504
  23005319.4584   -6130357.47946  -2872538.70446                  23005330.3844
        18.7504         17.7504
  24504590.5134   -3925664.66845  -2908876.80245                  24504611.7204
         9.0004          9.7504
  21254313.2164   -4766990.26047  -3681923.01347                  21254323.0874
        26.5004         26.2504
  22020299.0364    8242657.30347   6413239.69246                  22020308.6854
        25.2504         22.2504
  21181302.5524   -5402777.44248  -4209953.14247                  21181311.1924
        31.5004         28.2504
 00  5  1 19 48 15.0010000  0  6G 5G 6G17G10G24G30
  20891680.2244    2923105.49848   2277739.18447                  20891689.6614
        30.0004         28.7504
  23000174.2004   -6157392.79346  -2893605.13646                  23000184.8684
        18.5004         17.7504
  24497949.1854   -3960566.75345  -2936073.05445                  24497968.0094
         9.2504         10.0004
  21253126.6224   -4773225.99147  -3686782.00947                  21253136.1654
        26.5004         26.5004
  22027971.7314    8282976.99847   6444657.61246                  22027981.2514
        25.2504         22.2504
  21179234.0054   -5413647.52548  -4218423.33747                  21179242.5874
        31.7504         28.2504
 00  5  1 19 48 30.0010000  0  6G 5G 6G17G10G24G30
  20896785.1304    2949930.19548   2298641.49647                  20896794.7204
        30.0004         28.5004
  22995029.5674   -6184429.49846  -2914672.65246                  22995040.6924
        18.7504         18.0004
  24491315.0364   -3995426.96445  -2963236.64745                  24491335.3024
        10.0004         10.2504
  21251967.2394   -4779317.77747  -3691528.82947                  21251976.9934
        26.2504         26.2504
  22035648.9814    8323321.87447   6476095.15946                  22035658.6304
        25.2504         22.2504
  21177187.9274   -5424400.04948  -4226801.92747                  21177196.7314
        31.5004         28.5004
 00  5  1 19 48 45.0010000  0  6G 5G 6G17G10G24G30
  20901914.3174    2976884.65448   2319644.93147                  20901923.8604
        29.7504         28.5004
  22989883.8174   -6211470.35546  -2935743.40646                  22989894.8254
        18.5004         17.7504
  24484688.5214   -4030250.79745  -2990371.92645                  24484709.0324
        10.5004         10.7504
  21250834.5444   -4785271.40447  -3696167.99647                  21250844.4034
        27.0004         26.5004
  22043331.0134    8363689.24347   6507550.23346                  22043340.4034
        25.5004         22.0004
  21175163.5284   -5435039.11148  -4235092.10647                  21175172.0284
        31.5004         28.0004
 00  5  1 19 49  0.0010000  0  6G 5G 6G17G10G24G30
  20907069.1534    3003972.71848   2340752.46947                  20907078.4154
        29.7504         28.2504
  22984738.1534   -6238511.11646  -2956814.08546                  22984749.1144
        18.5004         18.0004
  24478069.0134   -4065035.56645  -3017476.74745                  24478089.5244
        10.2504         10.7504
  21249728.3254   -4791084.53947  -3700697.69247                  21249738.0094
        26.5004         26.2504
  22051017.4354    8404081.04847   6539024.34246                  22051027.0244
        25.5004         22.2504
  21173161.5834   -5445558.61148  -4243289.11847                  21173170.0134
        32.0004         28.2504
 00  5  1 19 49 15.0010000  0  6G 5G 6G17G10G24G30
  20912247.9114    3031188.49348   2361959.52647                  20912257.3024
        29.5004         28.2504
  22979591.8964   -6265555.12746  -2977887.28646                  22979602.7514
        19.5004         18.0004
  24471456.0994   -4099785.91645  -3044554.76545                  24471476.0714
        10.0004         11.0004
  21248648.3724   -4796759.82847  -3705119.97247                  21248657.8684
        26.5004         26.2504
  22058707.9814    8444496.17747   6570516.63146                  22058717.5244
        26.0004         22.0004
  21171182.4894   -5455959.46748  -4251393.67847                  21171190.9314
        31.7504         28.0004
 00  5  1 19 49 30.0010000  0  6G 5G 6G17G10G24G30
  20917451.1694    3058531.61248   2383265.80947                  20917460.7354
        29.0004         27.7504
  22974446.0054   -6292596.17246  -2998958.17646                  22974456.6614
        19.7504         18.0004
  24464848.6924   -4134501.94645  -3071606.01045                  24464869.3134
        10.5004         11.0004
  21247595.0444   -4802293.99547  -3709432.28847                  21247604.6464
        26.5004         26.2504
  22066403.9504    8484939.44947   6602030.85546                  22066413.4354
        25.2504         21.7504
  21169226.2944   -5466238.39248  -4259403.22747                  21169234.9354
        31.5004         28.0004
 00  5  1 19 49 45.0010000  0  6G 5G 6G17G10G24G30
  20922678.3964    3085999.57848   2404669.37347                  20922687.7744
        29.2504         27.7504
  22969300.8104   -6319633.56246  -3020026.22846                  22969311.3844
        19.0004         18.0004
  24458248.0444   -4169192.26645  -3098637.24545                  24458269.8964
        10.5004         11.7504
  21246568.5054   -4807689.98047  -3713636.93047                  21246578.1184
        26.7504         26.2504
  22074105.4194    8525409.21647   6633565.71146                  22074114.9744
        25.2504         21.7504
  21167292.5444   -5476400.76948  -4267321.96247                  21167301.2084
        31.5004         28.0004
 00  5  1 19 50  0.0010000  0  6G 5G 6G17G10G24G30
  20927928.8414    3113590.99248   2426169.13347                  20927938.2084
        29.2504         27.7504
  22964157.1694   -6346663.89046  -3041088.77546                  22964168.4234
        18.5004         18.0004
  24451651.3724   -4203854.86345  -3125646.86945                  24451671.7204
        10.0004         11.0004
  21245569.0444   -4812941.68547  -3717729.14647                  21245578.5054
        26.7504         26.2504
  22081812.0134    8565908.42647   6665123.51446                  22081821.7084
        25.5004         22.0004
  21165381.0444   -5486444.45548  -4275148.20747                  21165389.7084
        31.2504         28.0004
 00  5  1 19 50 15.0010000  0  6G 5G 6G17G10G24G30
  20933201.3254    3141298.50548   2447759.36347                  20933210.6574
        28.7504         27.5004
  22959014.8494   -6373688.30246  -3062146.71746                  22959026.1264
        19.2504         18.0004
  24445060.4034   -4238491.04945  -3152635.92445                  24445080.0244
        10.5004         11.0004
  21244597.2474   -4818048.30447  -3721708.30647                  21244606.9664
        26.7504         26.2504
  22089524.4664    8606436.16947   6696703.55246                  22089534.0564
        25.2504         21.7504
  21163492.9974   -5496366.97048  -4282880.03847                  21163501.6034
        31.0004         28.0004
 00  5  1 19 50 30.0010000  0  6G 5G 6G17G10G24G30
  20938496.2314    3169123.66948   2469441.26247                  20938505.6694
        29.0004         27.5004
  22953873.8104   -6400704.74746  -3083198.43946                  22953884.9704
        19.5004         18.0004
  24438475.4814   -4273096.87245  -3179601.31945                  24438495.2674
        10.2504         11.0004
  21243653.4274   -4823008.25147  -3725573.17447                  21243663.0284
        26.2504         26.2504
  22097241.7164    8646993.21147   6728306.42046                  22097251.1304
        25.2504         21.7504
  21161630.0444   -5506157.95948  -4290509.37647                  21161638.5674
        30.7504         27.5004
 00  5  1 19 50 45.0010000  0  6G 5G 6G17G10G24G30
  20943813.2394    3197064.45148   2491213.25747                  20943822.6424
        29.5004         27.5004
  22948733.1854   -6427717.63446  -3104247.39946                  22948743.6654
        19.5004         18.5004
  24431895.7314   -4307671.72645  -3206542.57345                  24431915.9154
         9.7504         11.0004
  21242736.3334   -4827827.25847  -3729328.22347                  21242745.7244
        26.7504         26.2504
  22104965.0364    8687577.48047   6759930.50546                  22104974.4504
        25.5004         22.0004
  21159791.5524   -5515818.04848  -4298036.71547                  21159800.1694
        30.2504         27.7504
 00  5  1 19 51  0.0010000  0  6G 5G 6G17G10G24G30
  20949153.0754    3225124.60648   2513078.27447                  20949162.3134
        29.2504         27.5004
  22943593.9194   -6454724.23746  -3125291.45846                  22943604.3644
        19.5004         18.5004
  24425323.0284   -4342208.23045  -3233453.93445                  24425342.6854
         9.5004         10.7504
  21241846.2784   -4832504.26647  -3732972.62847                  21241855.7864
        26.5004         26.2504
  22112693.9424    8728192.82747   6791578.80446                  22112703.4744
        25.5004         22.0004
  21157979.1464   -5525342.76148  -4305458.57147                  21157988.1384
        30.5004         27.7504
 00  5  1 19 51 15.0010000  0  6G 5G 6G17G10G24G30
  20954515.2634    3253303.79148   2535036.03647                  20954524.6424
        29.5004         27.5004
  22938455.5754   -6481725.43046  -3146331.30846                  22938466.7474
        19.5004         18.0004
  24418758.2944   -4376705.64045  -3260334.85945                  24418777.7744
         9.2504         10.5004
  21240983.3564   -4837039.34347  -3736506.43647                  21240993.1104
        26.2504         26.2504
  22120428.8884    8768839.99047   6823251.89646                  22120438.2314
        25.2504         22.0004
  21156192.4114   -5534732.04848  -4312774.89847                  21156201.0994
        30.5004         27.7504
 00  5  1 19 51 30.0010000  0  6G 5G 6G17G10G24G30
  20959900.1924    3281601.15248   2557085.88647                  20959909.5244
        29.0004         27.5004
  22933318.6854   -6508719.57346  -3167365.65446                  22933330.1964
        18.2504         18.2504
  24412201.2784   -4411164.47545  -3287185.69245                  24412220.5834
        10.0004         10.5004
  21240147.4974   -4841431.02647  -3739928.50147                  21240157.1814
        26.5004         26.2504
  22128169.5674    8809518.44447   6854949.36946                  22128178.9464
        25.7504         22.0004
  21154431.1854   -5543987.46748  -4319986.90947                  21154439.8604
        30.5004         27.5004
 00  5  1 19 51 45.0010000  0  6G 5G 6G17G10G24G30
  20965308.0214    3310018.80548   2579229.46647                  20965317.3414
        29.5004         28.0004
  22928183.5754   -6535705.84446  -3188393.87946                  22928194.6534
        18.7504         18.5004
  24405651.4974   -4445580.26945  -3314003.03845                  24405671.6574
         9.5004         10.2504
  21239339.4034   -4845677.23847  -3743237.21947                  21239348.9934
        27.0004         26.5004
  22135916.3024    8850227.40247   6886670.61746                  22135925.4704
        25.7504         22.0004
  21152695.9194   -5553105.37548  -4327091.77347                  21152704.4784
        29.7504         27.5004
 00  5  1 19 52  0.0010000  0  6G 5G 6G17G10G24G30
  20970738.5134    3338555.80648   2601466.05047                  20970748.0674
        29.7504         28.0004
  22923048.7084   -6562688.96447  -3209419.63446                  22923059.7634
        20.0004         18.2504
  24399111.5214   -4479950.23645  -3340784.64645                  24399131.1064
         9.5004         10.5004
  21238558.9974   -4849777.39247  -3746432.12247                  21238568.4114
        26.7504         26.2504
  22143668.4664    8890965.58047   6918414.63646                  22143677.7394
        25.7504         21.7504
  21150987.3804   -5562084.80948  -4334088.73347                  21150995.9274
        30.0004         27.7504
 00  5  1 19 52 15.0010000  0  6G 5G 6G17G10G24G30
  20976191.9034    3367213.36348   2623796.56747                  20976201.6574
        29.5004         28.0004
  22917914.3724   -6589670.40746  -3230444.08846                  22917925.1574
        19.7504         18.5004
  24392579.9504   -4514269.33945  -3367526.63145                  24392599.0564
         9.5004         10.2504
  21237806.8804   -4853730.55247  -3749512.48647                  21237816.3294
        27.0004         26.5004
  22151426.3564    8931732.59847   6950181.12846                  22151435.9234
        25.5004         22.0004
  21149305.3884   -5570921.93548  -4340974.80947                  21149314.0174
        30.7504         27.7504
 00  5  1 19 52 30.0010000  0  6G 5G 6G17G10G24G30
  20981669.3104    3395996.42148   2646224.87847                  20981678.9704
        29.5004         28.0004
  22912780.2554   -6616649.54946  -3251466.73946                  22912791.2634
        19.5004         18.2504
  24386059.2164   -4548536.49645  -3394228.11945                  24386078.7554
         9.5004         10.5004
  21237082.3024   -4857539.30047  -3752480.32547                  21237091.6574
        26.7504         26.2504
  22159189.1614    8972527.18047   6981969.09446                  22159198.3534
        25.5004         21.7504
  21147651.1064   -5579616.16648  -4347749.53147                  21147659.7944
        30.5004         28.0004
 00  5  1 19 52 45.0010000  0  6G 5G 6G17G10G24G30
  20987170.4664    3424905.86048   2668751.66847                  20987179.9504
        29.5004         28.0004
  22907646.6384   -6643627.56646  -3272488.53146                  22907657.7164
        19.5004         18.5004
  24379547.3334   -4582754.44945  -3420891.25945                  24379567.0014
         9.7504         10.2504
  21236384.4034   -4861207.08147  -3755338.30847                  21236394.0404
        26.5004         26.5004
  22166957.1774    9013347.58747   7013777.18946                  22166966.5794
        25.7504         21.5004
  21146022.8804   -5588172.91548  -4354417.13247                  21146031.3104
        30.5004         27.5004
 00  5  1 19 53  0.0010000  0  6G 5G 6G17G10G24G30
  20992696.0524    3453942.58848   2691377.64647                  20992705.5954
        29.0004         27.7504
  22902513.1774   -6670602.51346  -3293507.92946                  22902524.2674
        19.5004         18.7504
  24373045.8254   -4616924.57845  -3447517.17345                  24373065.2594
        10.0004          9.7504
  21235713.9034   -4864729.97247  -3758083.39247                  21235723.4814
        27.0004         26.5004
  22174730.3024    9054196.38447   7045607.40646                  22174739.5874
        25.5004         21.2504
  21144420.5914   -5596593.58848  -4360978.69347                  21144428.9384
        30.5004         27.5004
 00  5  1 19 53 15.0010000  0  6G 5G 6G17G10G24G30
  20998245.2004    3483104.69148   2714101.32147                  20998254.8024
        29.2504         28.0004
  22897381.1534   -6697572.93047  -3314523.80046                  22897392.1614
        20.0004         18.7504
  24366551.3104   -4651049.83245  -3474108.11245                  24366570.5914
        10.5004          9.7504
  21235071.9584   -4868103.84347  -3760712.36247                  21235081.2674
        27.2504         26.7504
  22182508.9744    9095073.19247   7077459.44546                  22182518.5054
        25.0004         21.5004
  21142844.1064   -5604877.77448  -4367433.90447                  21142852.2204
        30.5004         27.7504
 00  5  1 19 53 30.0010000  0  6G 5G 6G17G10G24G30
  21003818.2004    3512389.35948   2736920.49247                  21003827.9194
        29.0004         28.0004
  22892249.5674   -6724539.37247  -3335536.56846                  22892260.3064
        20.2504         18.7504
  24360065.3104   -4685132.30745  -3500665.71745                  24360084.5214
        10.2504          9.7504
  21234458.6614   -4871326.20847  -3763223.27847                  21234468.1344
        27.0004         26.5004
  22190292.4354    9135975.10947   7109331.04446                  22190301.7084
        25.5004         21.2504
  21141293.5524   -5613027.18248  -4373784.10247                  21141301.5484
        30.5004         27.5004
 00  5  1 19 53 45.0010000  0  6G 5G 6G17G10G24G30
  21009414.6384    3541798.91948   2759836.98747                  21009424.3564
        28.7504         27.7504
  22887119.0214   -6751500.61647  -3356545.28546                  22887129.5604
        20.5004         19.0004
  24353588.7084   -4719167.62545  -3527186.55645                  24353608.2594
         9.7504         10.0004
  21233874.6774   -4874394.32747  -3765614.00047                  21233884.1264
        27.2504         26.5004
  22198080.7084    9176903.17247   7141223.03246                  22198090.1104
        25.7504         21.2504
  21139768.6614   -5621039.72548  -4380027.63847                  21139777.0444
        30.5004         27.5004
 00  5  1 19 54  0.0010000  0  6G 5G 6G17G10G24G30
  21015035.1924    3571335.40048   2782852.38147                  21015044.7244
        28.5004         27.7504
  22881989.1144   -6778456.04246  -3377549.47646                  22881999.8764
        19.7504         18.7504
  24347120.5524   -4753156.08045  -3553670.88345                  24347139.7394
         9.7504         10.2504
  21233320.3644   -4877309.66247  -3767885.66747                  21233329.9194
        27.2504         26.7504
  22205874.2164    9217858.36947   7173136.14346                  22205883.7124
        25.2504         21.7504
  21138269.4974   -5628917.20848  -4386165.94247                  21138277.9974
        30.2504         27.5004
 00  5  1 19 54 15.0010000  0  6G 5G 6G17G10G24G30
  21020679.7554    3600997.78748   2805965.88547                  21020689.3454
        28.7504         27.5004
  22876861.4504   -6805404.86746  -3398548.51246                  22876872.5994
        19.2504         18.7504
  24340660.6144   -4787102.51545  -3580122.48245                  24340681.0914
        10.0004         10.0004
  21232794.0674   -4880073.11047  -3770038.98447                  21232803.5054
        27.5004         26.7504
  22213672.5444    9258838.38247   7205068.60746                  22213681.9464
        25.2504         21.5004
  21136795.0134   -5636665.67148  -4392203.70647                  21136803.3604
        29.7504         27.5004
 00  5  1 19 54 30.0010000  0  6G 5G 6G17G10G24G30
  21026348.8884    3630787.93948   2829178.94947                  21026358.4894
        28.5004         27.5004
  22871734.8564   -6832343.87246  -3419539.90246                  22871745.7004
        19.7504         19.0004
  24334209.2394   -4821005.58645  -3606540.28545                  24334228.7784
        10.7504         10.2504
  21232297.8024   -4882681.24947  -3772071.27847                  21232307.3684
        27.2504         26.2504
  22221475.9034    9299845.58747   7237022.25346                  22221485.2004
        25.5004         21.2504
  21135345.1064   -5644285.29748  -4398141.08447                  21135353.4784
        29.7504         27.2504
 00  5  1 19 54 45.0010000  0  6G 5G 6G17G10G24G30
  21032040.9664    3660700.46948   2852487.36947                  21032050.8024
        28.0004         27.2504
  22866610.2314   -6859274.13047  -3440524.48146                  22866621.2044
        21.0004         19.2504
  24327765.4274   -4854866.52945  -3632925.26345                  24327784.0874
        10.0004         10.0004
  21231831.0214   -4885133.77147  -3773982.31547                  21231840.1304
        27.0004         26.5004
  22229284.3254    9340878.53347   7268995.95946                  22229293.7984
        25.2504         21.7504
  21133919.4744   -5651777.52348  -4403979.18547                  21133927.8214
        29.5004         27.2504
 00  5  1 19 55  0.0010000  0  6G 5G 6G17G10G24G30
  21037755.4894    3690730.35348   2875887.22947                  21037765.3604
        28.2504         27.2504
  22861486.3804   -6886198.29147  -3461504.30346                  22861496.9664
        20.7504         19.2504
  24321328.9584   -4888686.35445  -3659278.21145                  24321347.7944
         9.5004         10.2504
  21231393.9814   -4887430.04647  -3775771.60147                  21231403.1964
        27.5004         26.5004
  22237097.0364    9381935.21147   7300988.16946                  22237106.5674
        25.5004         21.5004
  21132517.7314   -5659142.57248  -4409718.18847                  21132526.1614
        29.7504         27.2504
 00  5  1 19 55 15.0010000  0  6G 5G 6G17G10G24G30
  21043491.6774    3720874.72248   2899376.30647                  21043501.3604
        28.0004         27.2504
  22856364.6384   -6913114.27547  -3482477.75046                  22856375.4114
        20.5004         19.0004
  24314902.2864   -4922462.35045  -3685596.97845                  24314921.9074
        10.0004         10.0004
  21230986.8804   -4889569.78947  -3777438.91347                  21230996.4464
        27.2504         26.5004
  22244913.7164    9423012.40647   7332996.33946                  22244923.2244
        25.0004         21.2504
  21131140.9584   -5666378.70848  -4415356.73747                  21131149.4354
        29.7504         27.2504
 00  5  1 19 55 30.0010000  0  6G 5G 6G17G10G24G30
  21049250.5364    3751136.13848   2922956.58347                  21049260.2784
        28.0004         27.2504
  22851244.6854   -6940019.45947  -3503442.79346                  22851255.6104
        20.0004         19.2504
  24308484.4424   -4956189.11845  -3711877.40745                  24308503.9234
        10.7504         10.5004
  21230609.2714   -4891553.56647  -3778984.69247                  21230618.8024
        27.0004         26.7504
  22252734.8334    9464112.65847   7365022.49846                  22252744.5994
        25.0004         21.5004
  21129788.8724   -5673483.88748  -4420893.24447                  21129797.5014
        29.7504         27.2504
 00  5  1 19 55 45.0010000  0  6G 5G 6G17G10G24G30
  21055031.3724    3781515.27348   2946628.58947                  21055041.2904
        28.2504         27.2504
  22846126.9034   -6966912.55946  -3524398.41546                  22846137.5714
        19.5004         19.0004
  24302076.0914   -4989865.21745  -3738118.37945                  24302094.6574
        10.5004         10.2504
  21230261.0834   -4893383.62947  -3780410.69047                  21230270.3564
        27.2504         26.5004
  22260560.0444    9505234.75247   7397065.66646                  22260569.5874
        25.0004         21.0004
  21128461.9114   -5680456.63448  -4426326.55747                  21128470.6814
        29.7504         27.5004
 00  5  1 19 56  0.0010000  0  6G 5G 6G17G10G24G30
  21060834.3024    3812010.04848   2970390.70247                  21060844.0914
        28.0004         27.2504
  22841011.7084   -6993792.97647  -3545344.15146                  22841022.4934
        20.2504         19.2504
  24295676.2164   -5023495.29545  -3764323.43945                  24295694.0914
        10.5004         10.5004
  21229941.3174   -4895064.65948  -3781720.56547                  21229950.3454
        28.0004         26.5004
  22268389.0364    9546375.46347   7429123.34246                  22268398.5324
        24.5004         21.0004
  21127160.1854   -5687295.98148  -4431655.91947                  21127168.8964
        29.7504         27.5004
 00  5  1 19 56 15.0010000  0  6G 5G 6G17G10G24G30
  21066659.0834    3842619.50148   2994242.18147                  21066668.7554
        28.2504         27.2504
  22835898.8964   -7020662.16547  -3566281.13746                  22835909.1774
        21.0004         19.5004
  24289283.6774   -5057085.02245  -3790497.09345                  24289302.2084
        10.5004         10.5004
  21229649.3644   -4896598.43747  -3782915.70147                  21229658.6854
        27.2504         26.5004
  22276221.1694    9587533.03547   7461194.16246                  22276230.9814
        23.7504         20.7504
  21125884.8174   -5694000.41148  -4436880.16047                  21125893.3644
        30.0004         27.5004
 00  5  1 19 56 30.0010000  0  6G 5G 6G17G10G24G30
  21072505.7784    3873344.08748   3018183.37047                  21072515.2744
        28.0004         27.0004
  22830787.2314   -7047521.93047  -3587210.78346                  22830797.6774
        20.5004         19.5004
  24282900.4974   -5090631.96945  -3816637.41345                  24282919.3214
        10.7504         10.5004
  21229385.5604   -4897985.12647  -3783996.21447                  21229395.0324
        27.5004         26.7504
  22284056.3644    9628708.16547   7493278.66046                  22284066.1774
        23.7504         20.7504
  21124635.3174   -5700566.90348  -4441996.90747                  21124643.7354
        30.7504         27.5004
 00  5  1 19 56 45.0010000  0  6G 5G 6G17G10G24G30
  21078374.6854    3904184.33148   3042214.68647                  21078384.4854
        28.0004         27.2504
  22825678.0364   -7074371.18447  -3608132.24246                  22825688.7394
        20.0004         19.2504
  24276524.2634   -5124134.58845  -3842743.18045                  24276542.3254
        11.0004         10.2504
  21229149.0054   -4899227.94848  -3784964.62347                  21229158.3604
        28.2504         26.7504
  22291895.3334    9669902.74547   7525378.30946                  22291905.0994
        24.0004         20.5004
  21123413.1694   -5706988.31848  -4447000.60547                  21123421.9154
        30.7504         27.7504
 00  5  1 19 57  0.0010000  0  6G 5G 6G17G10G24G30
  21084265.6464    3935140.46848   3066336.29947                  21084275.5284
        28.0004         27.5004
  22820570.7164   -7101208.74146  -3629044.58246                  22820581.8994
        19.7504         19.2504
  24270157.3964   -5157595.51745  -3868816.46145                  24270176.5954
        11.0004         10.7504
  21228939.0214   -4900330.96548  -3785824.09947                  21228948.0954
        28.0004         26.5004
  22299738.2164    9711115.70447   7557492.28746                  22299748.0174
        23.7504         20.5004
  21122219.0134   -5713264.10648  -4451890.83547                  21122227.6774
        30.5004         27.7504
 00  5  1 19 57 15.0010000  0  6G 5G 6G17G10G24G30
  21090178.2634    3966212.18248   3090547.97347                  21090188.2514
        28.0004         27.5004
  22815466.3644   -7128034.48647  -3649947.71546                  22815477.2674
        20.5004         19.0004
  24263797.3024   -5191017.91245  -3894859.72245                  24263815.3884
        11.5004         10.7504
  21228755.2634   -4901296.51347  -3786576.45847                  21228764.5484
        27.7504         27.0004
  22307583.8964    9752345.37147   7589619.29246                  22307593.6384
        23.5004         20.2504
  21121051.6064   -5719399.25548  -4456671.47847                  21121060.2354
        30.7504         27.7504
 00  5  1 19 57 30.0010000  0  6G 5G 6G17G10G24G30
  21096113.7004    3997402.84747   3114852.33947                  21096123.4314
        27.7504         27.0004
  22810363.5914   -7154849.86947  -3670842.78746                  22810374.3994
        21.2504         19.2504
  24257444.2554   -5224403.84245  -3920874.55445                  24257462.2474
        11.7504         10.7504
  21228597.2394   -4902127.24448  -3787223.75647                  21228606.5834
        28.2504         26.7504
  22315433.5524    9793595.98347   7621762.60746                  22315443.5404
        24.0004         20.5004
  21119910.9744   -5725393.85648  -4461342.59647                  21119919.2744
        31.5004         28.0004
 00  5  1 19 57 45.0010000  0  6G 5G 6G17G10G24G30
  21102072.1064    4028713.78047   3139250.42147                  21102081.7554
        27.2504         26.7504
  22805261.9034   -7181659.36947  -3691733.26446                  22805272.5014
        20.7504         19.5004
  24251096.5364   -5257756.89145  -3946863.80045                  24251115.1734
        11.2504         11.2504
  21228464.7714   -4902823.62348  -3787766.37447                  21228474.0674
        28.0004         26.7504
  22323287.4974    9834867.67947   7653922.34946                  22323297.0634
        24.0004         20.7504
  21118796.9744   -5731247.53348  -4465903.90947                  21118805.3804
        31.2504         27.7504
 00  5  1 19 58  0.0010000  0  6G 5G 6G17G10G24G30
  21108053.3414    4060146.09847   3163743.08747                  21108063.0484
        27.0004         26.7504
  22800161.4814   -7208463.02947  -3712619.19546                  22800172.1964
        20.0004         19.2504
  24244755.9354   -5291077.89645  -3972828.03445                  24244774.0564
        10.7504         11.0004
  21228358.1384   -4903383.27647  -3788202.44947                  21228367.3414
        27.7504         26.7504
  22331145.3964    9876161.73847   7686099.52246                  22331155.1384
        23.7504         20.7504
  21117710.1464   -5736958.13448  -4470353.73047                  21117718.5754
        31.5004         27.7504
 00  5  1 19 58 15.0010000  0  6G 5G 6G17G10G24G30
  21114057.8644    4091699.69247   3188330.25547                  21114067.6884
        27.5004         27.0004
  22795061.3334   -7235263.90547  -3733502.94846                  22795072.3064
        20.0004         19.2504
  24238420.2474   -5324367.55445  -3998767.85545                  24238438.7204
        10.7504         11.2504
  21228277.4814   -4903807.18248  -3788532.74347                  21228286.6854
        28.0004         26.7504
  22339008.1464    9917480.55047   7718295.98046                  22339018.0874
        24.0004         20.7504
  21116649.7554   -5742529.33848  -4474694.92947                  21116658.1144
        30.7504         27.7504
 00  5  1 19 58 30.0010000  0  6G 5G 6G17G10G24G30
  21120085.8024    4123376.13147   3213013.14447                  21120095.6964
        27.0004         27.0004
  22789961.6694   -7262062.00847  -3754384.54446                  22789972.6774
        20.2504         19.0004
  24232092.7554   -5357619.84245  -4024678.54445                  24232111.6734
        11.0004         11.2504
  21228223.2004   -4904092.54248  -3788755.08747                  21228232.5914
        28.0004         27.0004
  22346876.0524    9958826.41647   7750513.51446                  22346885.9464
        24.5004         21.0004
  21115615.9504   -5747963.50548  -4478929.35147                  21115624.3104
        30.7504         28.0004
 00  5  1 19 58 45.0010000  0  6G 5G 6G17G10G24G30
  21126136.7784    4155173.89547   3237790.57247                  21126146.8374
        27.0004         27.0004
  22784862.7784   -7288855.32446  -3775262.41346                  22784873.3994
        19.7504         19.2504
  24225773.4744   -5390829.67545  -4050556.16345                  24225791.8534
        11.0004         11.0004
  21228195.6694   -4904236.98847  -3788867.62347                  21228204.9194
        27.7504         27.0004
  22354749.0284   10000199.83347   7782752.53746                  22354758.3724
        24.5004         21.0004
  21114607.9034   -5753259.90448  -4483056.41647                  21114616.5214
        31.0004         27.7504
 00  5  1 19 59  0.0010000  0  6G 5G 6G17G10G24G30
  21132208.8254    4187083.84847   3262655.41947                  21132218.8724
        26.7504         26.5004
  22779763.9114   -7315649.65847  -3796141.07846                  22779774.7204
        20.2504         19.2504
  24219460.0754   -5424004.58145  -4076406.57045                  24219477.7164
        10.0004         11.0004
  21228193.8964   -4904245.03047  -3788873.87247                  21228203.0874
        27.2504         26.7504
  22362625.5834   10041590.79247   7815005.22146                  22362635.0794
        24.7504         20.7504
  21113624.4584   -5758429.12048  -4487084.38147                  21113633.2164
        30.7504         28.0004
 00  5  1 19 59 15.0010000  0  6G 5G 6G17G10G24G30
  21138303.3494    4219109.97647   3287610.78947                  21138313.2314
        26.5004         26.2504
  22774665.9354   -7342441.38147  -3817017.70046                  22774676.4154
        21.0004         19.5004
  24213154.1464   -5457137.79545  -4102224.47545                  24213172.3254
         9.7504         11.0004
  21228220.5214   -4904106.40848  -3788765.83947                  21228229.7824
        28.0004         26.7504
  22370506.1694   10083004.07847   7847275.28846                  22370515.7474
        24.7504         21.0004
  21112665.1384   -5763469.70748  -4491012.11847                  21112673.7314
        30.7504         27.7504
 00  5  1 19 59 30.0010000  0  6G 5G 6G17G10G24G30
  21144420.3254    4251254.04647   3312658.07147                  21144430.2204
        26.7504         26.2504
  22769568.3414   -7369230.08047  -3837891.97446                  22769579.0094
        20.7504         19.2504
  24206857.8334   -5490225.63845  -4128007.05145                  24206875.8604
        10.0004         11.0004
  21228275.3174   -4903818.52248  -3788541.50047                  21228284.5914
        28.0004         27.0004
  22378391.4894   10124442.12247   7879564.66346                  22378401.1964
        24.5004         21.0004
  21111730.7244   -5768379.15448  -4494837.66047                  21111739.5524
        30.5004         28.0004
 00  5  1 19 59 45.0010000  0  6G 5G 6G17G10G24G30
  21150558.9894    4283513.02347   3337794.88247                  21150568.9784
        26.7504         26.2504
  22764470.5994   -7396017.86247  -3858765.53246                  22764481.1614
        20.5004         19.2504
  24200570.2314   -5523268.15645  -4153754.27945                  24200589.1144
        10.5004         10.7504
  21228358.0214   -4903383.83147  -3788202.76147                  21228367.4114
        27.7504         27.0004
  22386281.3104   10165903.10847   7911871.90246                  22386291.0054
        25.0004         21.0004
  21110822.3174   -5773154.20248  -4498558.48747                  21110831.1574
        30.5004         28.0004
 00  5  1 20  0  0.0010000  0  6G 5G 6G17G10G24G30
  21156719.2634    4315885.82647   3363020.39247                  21156729.4274
        26.2504         26.2504
  22759373.7944   -7422799.73347  -3879634.47046                  22759384.6144
        20.2504         19.2504
  24194292.4194   -5556258.83445  -4179461.11745                  24194310.3534
        10.5004         11.0004
  21228469.5134   -4902797.82548  -3787746.11847                  21228478.8454
        28.0004         26.7504
  22394175.5604   10207386.15347   7944196.33646                  22394185.1964
        24.5004         21.0004
  21109939.4194   -5777793.90848  -4502173.84347                  21109948.1304
        30.5004         28.0004
 00  5  1 20  0 15.0010000  0  6G 5G 6G17G10G24G30
  21162901.2714    4348372.30147   3388334.47547                  21162911.4814
        25.7504         26.0004
  22754279.4424   -7449572.12247  -3900496.03646                  22754290.8024
        20.2504         19.2504
  24188024.4034   -5589193.69445  -4205124.49345                  24188042.6534
        10.5004         11.0004
  21228610.0284   -4902058.89148  -3787170.30547                  21228619.4544
        28.0004         27.0004
  22402073.9034   10248891.96347   7976538.51046                  22402083.7514
        24.0004         21.0004
  21109082.0214   -5782300.03848  -4505685.12047                  21109090.5674
        30.7504         27.7504
 00  5  1 20  0 30.0010000  0  6G 5G 6G17G10G24G30
  21169104.5604    4380970.12147   3413735.32047                  21169114.6064
        26.2504         26.0004
  22749186.2004   -7476336.64047  -3921351.46746                  22749196.7984
        20.7504         19.2504
  24181767.6144   -5622075.06245  -4230746.14545                  24181785.3844
        10.7504         10.7504
  21228779.0834   -4901169.82148  -3786477.51347                  21228788.4974
        28.2504         26.7504
  22409975.1064   10290413.62547   8008893.03746                  22409984.9784
        24.2504         20.7504
  21108249.1064   -5786675.46748  -4509094.54847                  21108257.9584
        30.5004         28.0004
 00  5  1 20  0 45.0010000  0  6G 5G 6G17G10G24G30
  21175329.9974    4413684.63947   3439227.10147                  21175340.1494
        26.5004         26.0004
  22744095.5834   -7503087.81347  -3942196.48946                  22744105.5134
        20.7504         19.2504
  24175521.3804   -5654897.45745  -4256321.88745                  24175539.3374
        10.7504         11.0004
  21228978.2554   -4900123.47148  -3785662.15647                  21228987.5994
        28.2504         27.0004
  22417879.9424   10331953.61547   8041261.84046                  22417890.0244
        24.0004         21.0004
  21107443.0914   -5790912.24348  -4512395.94247                  21107452.1184
        30.0004         28.0004
 00  5  1 20  1  0.0010000  0  6G 5G 6G17G10G24G30
  21181577.4664    4446515.24647   3464809.34747                  21181587.5954
        26.2504         26.0004
  22739007.3964   -7529825.96947  -3963031.36946                  22739017.4894
        21.0004         19.5004
  24169286.4274   -5687665.19445  -4281855.01945                  24169304.2204
        11.2504         10.7504
  21229207.4894   -4898920.08548  -3784724.43447                  21229216.5874
        28.0004         26.7504
  22425788.2944   10373512.29947   8073645.21446                  22425798.2594
        23.7504         20.2504
  21106662.9504   -5795011.45348  -4515590.13647                  21106671.8494
        31.0004         28.0004
 00  5  1 20  1 15.0010000  0  6G 5G 6G17G10G24G30
  21187846.5754    4479460.35747   3490480.80347                  21187856.5874
        26.2504         26.2504
  22733921.7004   -7556551.68847  -3983856.56046                  22733932.0054
        20.7504         19.2504
  24163059.5214   -5720383.66145  -4307349.75345                  24163076.8214
        11.2504         11.5004
  21229465.4814   -4897563.04348  -3783666.98247                  21229474.5674
        28.5004         26.7504
  22433699.7634   10415087.71847   8106041.62646                  22433709.7864
        23.7504         20.2504
  21105909.0994   -5798973.05248  -4518677.10047                  21105917.9504
        30.5004         28.0004
 00  5  1 20  1 30.0010000  0  6G 5G 6G17G10G24G30
  21194138.0444    4512520.72647   3516242.07447                  21194147.7744
        26.2504         25.7504
  22728838.1304   -7583264.35947  -4004671.58946                  22728848.7744
        20.5004         19.5004
  24156842.5914   -5753054.62245  -4332807.46045                  24156861.0874
        11.2504         11.0004
  21229752.5284   -4896054.12648  -3782491.19147                  21229761.4504
        28.0004         26.7504
  22441615.0524   10456681.99947   8138452.74046                  22441624.8064
        23.2504         20.2504
  21105181.9424   -5802793.92248  -4521654.40947                  21105190.5604
        30.5004         27.7504
 00  5  1 20  1 45.0010000  0  6G 5G 6G17G10G24G30
  21200451.6144    4545699.14947   3542095.34347                  21200461.3334
        26.5004         26.0004
  22723758.0364   -7609960.74747  -4025473.93246                  22723768.8564
        20.7504         19.7504
  24150634.2944   -5785678.57945  -4358228.55545                  24150652.0284
        11.2504         11.0004
  21230068.5604   -4894394.42848  -3781197.89947                  21230077.7984
        28.0004         26.7504
  22449533.7394   10498296.53547   8170879.63346                  22449543.5284
        23.2504         20.0004
  21104482.4584   -5806470.46448  -4524519.25447                  21104491.0634
        30.2504         28.0004
 00  5  1 20  2  0.0010000  0  6G 5G 6G17G10G24G30
  21206787.1464    4578992.38247   3568038.06647                  21206796.9464
        26.2504         25.7504
  22718680.5134   -7636644.47447  -4046266.39646                  22718691.2514
        21.7504         19.7504
  24144434.8644   -5818258.42445  -4383615.28845                  24144452.7744
        11.5004         11.0004
  21230412.7164   -4892584.27947  -3779787.37647                  21230421.9314
        27.7504         26.5004
  22457455.5604   10539926.12647   8203318.25846                  22457465.6534
        23.2504         19.7504
  21103809.4034   -5810007.33648  -4527275.26747                  21103818.0564
        31.2504         28.0004
 00  5  1 20  2 15.0010000  0  6G 5G 6G17G10G24G30
  21213145.3564    4612404.67847   3594073.56647                  21213155.4274
        26.0004         26.0004
  22713605.6384   -7663312.80047  -4067046.87946                  22713615.8134
        22.5004         19.7504
  24138243.2944   -5850793.25345  -4408966.94445                  24138261.1464
        11.5004         11.5004
  21230786.7944   -4890619.64948  -3778256.48247                  21230795.9504
        28.0004         26.7504
  22465380.9664   10581572.74647   8235770.15746                  22465391.0244
        23.2504         20.0004
  21103163.0524   -5813404.90448  -4529922.72647                  21103171.8804
        30.5004         28.0004
 00  5  1 20  2 30.0010000  0  6G 5G 6G17G10G24G30
  21219526.3494    4645936.88947   3620202.50547                  21219536.5484
        25.5004         25.7504
  22708533.8494   -7689965.50447  -4087815.17446                  22708543.6494
        21.7504         19.7504
  24132060.0444   -5883285.70345  -4434285.54945                  24132078.4354
        11.5004         11.5004
  21231190.0284   -4888501.45447  -3776605.93347                  21231199.2904
        27.5004         26.5004
  22473309.1304   10623236.25547   8268235.21246                  22473319.1654
        23.2504         20.0004
  21102543.4584   -5816660.43048  -4532459.51347                  21102552.2984
        30.5004         28.0004
 00  5  1 20  2 45.0010000  0  6G 5G 6G17G10G24G30
  21225929.4814    4679584.39747   3646421.28647                  21225939.6574
        26.0004         25.7504
  22703463.7474   -7716606.72747  -4108574.53246                  22703473.5834
        21.0004         19.7504
  24125883.6774   -5915740.75145  -4459575.04545                  24125901.7284
        11.2504         11.7504
  21231621.3564   -4886233.07747  -3774838.34947                  21231630.7244
        27.7504         26.7504
  22481240.5134   10664915.28547   8300712.35646                  22481250.2784
        23.7504         19.7504
  21101950.6614   -5819775.48248  -4534886.83547                  21101959.3024
        30.5004         28.0004
 00  5  1 20  3  0.0010000  0  6G 5G 6G17G10G24G30
  21232353.8804    4713345.74147   3672728.77746                  21232364.0564
        25.5004         25.5004
  22698396.6614   -7743235.70047  -4129324.32946                  22698406.5444
        21.5004         20.0004
  24119714.7944   -5948157.64945  -4484834.79145                  24119733.0444
        11.5004         11.5004
  21232082.3254   -4883810.81948  -3772950.86147                  21232091.6924
        28.0004         27.0004
  22489175.6774   10706614.67347   8333205.37346                  22489185.1614
        23.7504         19.7504
  21101384.9354   -5822749.05348  -4537203.91247                  21101393.4464
        31.0004         27.7504
 00  5  1 20  3 15.0010000  0  6G 5G 6G17G10G24G30
  21238799.7084    4747220.00747   3699124.25346                  21238810.0014
        25.5004         25.5004
  22693331.9354   -7769851.77947  -4150064.09346                  22693341.8064
        22.2504         20.0004
  24113553.0364   -5980537.22346  -4510065.44745                  24113570.7474
        12.0004         11.5004
  21232572.0054   -4881237.58248  -3770945.73147                  21232581.0444
        28.2504         27.0004
  22497114.5364   10748334.54947   8365714.35046                  22497124.1264
        24.0004         20.0004
  21100846.1304   -5825580.32748  -4539410.09947                  21100854.6774
        30.7504         27.7504
 00  5  1 20  3 30.0010000  0  6G 5G 6G17G10G24G30
  21245267.5364    4781208.10747   3725608.42946                  21245277.6424
        25.5004         25.5004
  22688268.7474   -7796458.56747  -4170796.62346                  22688278.5364
        22.2504         20.2504
  24107398.7244   -6012878.48645  -4535266.25845                  24107417.1734
        11.7504         11.5004
  21233090.2004   -4878515.45548  -3768824.58147                  21233099.3564
        28.0004         27.0004
  22505057.5444   10790073.84947   8398238.46246                  22505066.8064
        23.5004         19.5004
  21100334.2474   -5828270.34748  -4541506.22947                  21100343.0524
        30.0004         27.7504
 00  5  1 20  3 45.0010000  0  6G 5G 6G17G10G24G30
  21251758.2394    4815315.32347   3752185.42646                  21251768.3924
        26.0004         25.5004
  22683207.9274   -7823052.85547  -4191519.39746                  22683217.7164
        21.7504         20.5004
  24101252.9664   -6045174.97546  -4560432.20845                  24101270.9464
        12.0004         11.7504
  21233637.5444   -4875638.68547  -3766582.93247                  21233646.7354
        27.7504         26.7504
  22513004.5284   10831835.98047   8430780.37646                  22513014.0954
        23.7504         19.5004
  21099849.2244   -5830817.94248  -4543491.38247                  21099857.9354
        30.7504         27.7504
 00  5  1 20  4  0.0010000  0  6G 5G 6G17G10G24G30
  21258272.4504    4849548.39947   3778860.49846                  21258282.5674
        25.5004         25.2504
  22678150.6224   -7849630.24447  -4212229.00646                  22678160.5054
        22.2504         20.5004
  24095116.8804   -6077417.19646  -4585555.83245                  24095134.5674
        12.5004         11.5004
  21234215.9894   -4872599.37447  -3764214.62347                  21234225.1104
        27.7504         27.2504
  22520956.7944   10873624.41847   8463342.78046                  22520966.3964
        23.5004         19.5004
  21099392.7864   -5833217.05148  -4545360.82047                  21099401.4384
        31.2504         28.0004
 00  5  1 20  4 15.0010000  0  6G 5G 6G17G10G24G30
  21264809.0834    4883897.52147   3805625.98846                  21264819.0954
        25.5004         25.2504
  22673094.7474   -7876198.27047  -4232931.32446                  22673104.7354
        23.0004         20.5004
  24088990.8334   -6109613.11246  -4610643.40345                  24089009.6574
        12.7504         11.7504
  21234823.5994   -4869405.00747  -3761725.49447                  21234832.7554
        27.5004         27.0004
  22528911.7784   10915430.35647   8495918.82046                  22528921.6264
        23.0004         19.2504
  21098963.1384   -5835474.98748  -4547120.26047                  21098971.7784
        30.7504         27.7504
 00  5  1 20  4 30.0010000  0  6G 5G 6G17G10G24G30
  21271366.1924    4918355.14647   3832476.03446                  21271376.2634
        26.0004         25.2504
  22668039.6924   -7902762.11847  -4253630.38046                  22668049.3884
        23.0004         20.5004
  24082870.8024   -6141770.81946  -4635701.20045                  24082888.8294
        13.0004         11.7504
  21235459.6224   -4866063.46248  -3759121.68347                  21235468.7434
        28.0004         27.0004
  22536869.2864   10957246.82747   8528503.07846                  22536879.0634
        22.7504         19.5004
  21098559.1384   -5837598.28848  -4548774.78847                  21098567.8844
        30.5004         28.0004
 00  5  1 20  4 45.0010000  0  6G 5G 6G17G10G24G30
  21277944.9894    4952926.53947   3859414.73146                  21277954.9424
        26.0004         25.2504
  22662986.5214   -7929317.86447  -4274323.13146                  22662995.9934
        22.7504         20.5004
  24076759.6304   -6173885.30446  -4660725.28945                  24076778.0094
        12.5004         11.5004
  21236124.3104   -4862570.41748  -3756399.81647                  21236133.5134
        28.0004         27.2504
  22544829.8024   10999080.26347   8561100.54046                  22544839.5914
        22.7504         19.5004
  21098181.8104   -5839581.49648  -4550320.15647                  21098190.4384
        31.2504         28.0004
 00  5  1 20  5  0.0010000  0  6G 5G 6G17G10G24G30
  21284545.6924    4987613.12947   3886443.18946                  21284555.6344
        26.0004         25.2504
  22657934.4664   -7955866.57347  -4295010.38946                  22657944.3844
        23.0004         20.7504
  24070656.9664   -6205955.35046  -4685714.79145                  24070674.7244
        12.5004         11.7504
  21236817.9504   -4858925.21048  -3753559.38647                  21236827.4234
        28.0004         27.2504
  22552794.0054   11040931.57447   8593711.93546                  22552803.7474
        22.2504         19.2504
  21097830.7474   -5841425.44048  -4551757.00247                  21097839.3884
        30.7504         28.0004
 00  5  1 20  5 15.0010000  0  6G 5G 6G17G10G24G30
  21291168.8024    5022418.05847   3913563.86046                  21291178.8604
        25.7504         25.5004
  22652883.6384   -7982406.42647  -4315690.74446                  22652893.6384
        23.2504         20.7504
  24064562.4664   -6237980.03446  -4710668.91846                  24064579.6264
        12.5004         12.0004
  21237539.8724   -4855130.95647  -3750602.81147                  21237549.2514
        27.7504         26.7504
  22560761.0284   11082799.06147   8626335.93446                  22560770.9114
        22.2504         19.2504
  21097506.7004   -5843129.45448  -4553084.81947                  21097515.2354
        31.2504         27.7504
 00  5  1 20  5 30.0010000  0  6G 5G 6G17G10G24G30
  21297814.7944    5057343.39947   3940778.35846                  21297825.1104
        25.2504         25.2504
  22647835.4504   -8008936.05647  -4336363.14546                  22647845.5674
        23.2504         20.7504
  24058477.6064   -6269957.13646  -4735585.97646                  24058495.4704
        12.5004         12.0004
  21238290.2554   -4851188.38248  -3747530.66647                  21238299.4464
        28.2504         27.0004
  22568730.9974   11124680.45047   8658970.76446                  22568740.5054
        22.0004         19.5004
  21097209.0134   -5844693.35648  -4554303.44947                  21097217.5134
        31.0004         27.7504
 00  5  1 20  5 45.0010000  0  6G 5G 6G17G10G24G30
  21304483.8644    5092388.80647   3968086.41146                  21304494.0994
        25.5004         25.2504
  22642789.3494   -8035453.18947  -4357025.79446                  22642799.2434
        23.0004         21.0004
  24052401.6854   -6301883.87246  -4760463.81246                  24052419.1384
        12.2504         12.0004
  21239069.6614   -4847092.34948  -3744338.94447                  21239078.7944
        28.2504         27.0004
  22576703.7084   11166577.36947   8691617.69946                  22576713.8254
        21.5004         19.0004
  21096938.0754   -5846116.59248  -4555412.47647                  21096946.6224
        31.5004         27.7504
 00  5  1 20  6  0.0010000  0  6G 5G 6G17G10G24G30
  21311174.6694    5127549.23247   3995484.08846                  21311184.7514
        25.5004         25.2504
  22637745.5524   -8061958.76647  -4377679.45146                  22637755.6344
        22.2504         20.5004
  24046335.0364   -6333762.47345  -4785304.11145                  24046352.8884
        11.7504         11.5004
  21239877.5914   -4842845.90648  -3741030.01547                  21239886.7244
        28.0004         27.0004
  22584678.6924   11208486.55947   8724274.18846                  22584688.4584
        21.7504         19.0004
  21096694.4894   -5847398.01248  -4556410.99447                  21096702.8494
        31.5004         27.7504
 00  5  1 20  6 15.0010000  0  6G 5G 6G17G10G24G30
  21317887.5214    5162825.49547   4022972.03346                  21317897.9074
        25.5004         25.0004
  22632704.0674   -8088450.55647  -4398322.35446                  22632713.9384
        22.7504         21.0004
  24040278.1304   -6365591.33246  -4810105.66845                  24040295.7124
        12.0004         11.0004
  21240714.5284   -4838448.32147  -3737603.31547                  21240723.7434
        27.7504         27.0004
  22592656.7084   11250411.85847   8756943.24346                  22592666.7084
        21.5004         19.0004
  21096478.1924   -5848534.10548  -4557296.26547                  21096486.5874
        31.5004         27.5004
 00  5  1 20  6 30.0010000  0  6G 5G 6G17G10G24G30
  21324622.4894    5198217.09647   4050549.84746                  21324632.8644
        25.0004         25.0004
  22627665.7634   -8114927.55247  -4418953.73046                  22627675.2824
        23.5004         21.0004
  24034230.9814   -6397371.92545  -4834869.60345                  24034249.0794
        11.7504         11.7504
  21241579.9584   -4833900.62048  -3734059.64247                  21241589.2674
        28.0004         27.2504
  22600638.6224   11292355.46647   8789626.54946                  22600648.5174
        21.2504         18.7504
  21096289.3414   -5849526.85248  -4558069.84747                  21096297.5954
        30.7504         27.7504
 00  5  1 20  6 45.0010000  0  6G 5G 6G17G10G24G30
  21331379.1924    5233723.80147   4078217.35446                  21331389.5564
        25.5004         24.7504
  22622628.9894   -8141394.36047  -4439577.16846                  22622638.7784
        23.2504         21.0004
  24028191.9664   -6429104.57445  -4859596.17645                  24028210.0634
        11.5004         11.5004
  21242473.1534   -4829206.13648  -3730401.59247                  21242482.3564
        28.0004         27.0004
  22608622.9584   11334314.67647   8822322.01546                  22608632.8764
        21.7504         19.0004
  21096127.4744   -5850377.58848  -4558732.76547                  21096135.8454
        31.0004         27.5004
 00  5  1 20  7  0.0010000  0  6G 5G 6G17G10G24G30
  21338158.5214    5269348.85747   4105977.08546                  21338168.6384
        25.2504         25.0004
  22617595.1064   -8167848.49247  -4460190.73846                  22617605.2244
        22.7504         21.2504
  24022163.4034   -6460784.01446  -4884281.31246                  24022181.0324
        12.0004         12.0004
  21243394.1924   -4824364.86848  -3726629.16447                  21243403.3254
        28.0004         27.0004
  22616611.3964   11376293.72647   8855032.94846                  22616621.3844
        21.2504         19.0004
  21095993.2944   -5851081.90348  -4559281.59247                  21096001.6064
        31.5004         28.0004
 00  5  1 20  7 15.0010000  0  6G 5G 6G17G10G24G30
  21344959.9194    5305090.02147   4133827.28746                  21344970.1424
        25.5004         25.2504
  22612563.9504   -8194287.36747  -4480792.41546                  22612574.5364
        22.0004         21.0004
  24016144.9354   -6492411.30046  -4908925.79046                  24016161.5914
        12.5004         12.2504
  21244343.7474   -4819377.56147  -3722742.93847                  21244352.8564
        27.7504         26.7504
  22624603.0214   11418290.24147   8887757.48546                  22624613.0094
        22.0004         19.0004
  21095887.3724   -5851639.35648  -4559715.97547                  21095895.8844
        31.5004         28.0004
 00  5  1 20  7 30.0010000  0  6G 5G 6G17G10G24G30
  21351783.5524    5340948.15447   4161768.63546                  21351793.8334
        26.0004         25.5004
  22607536.3964   -8220706.81347  -4501378.94946                  22607546.7944
        22.2504         21.0004
  24010136.5834   -6523983.57146  -4933527.41746                  24010154.3644
        12.5004         12.0004
  21245320.9744   -4814240.39648  -3718739.93747                  21245330.0134
        28.0004         26.7504
  22632598.6534   11460305.80747   8920496.87346                  22632608.7594
        22.0004         18.7504
  21095809.9814   -5852046.08948  -4560032.92147                  21095818.5054
        31.0004         27.7504
 00  5  1 20  7 45.0010000  0  6G 5G 6G17G10G24G30
  21358627.9034    5376915.90647   4189795.39746                  21358638.1144
        26.0004         25.2504
  22602511.4814   -8247113.49847  -4521955.54646                  22602521.5994
        22.7504         21.2504
  24004138.0754   -6555506.36746  -4958090.50146                  24004155.7044
        12.2504         12.2504
  21246326.6224   -4808955.10047  -3714621.51447                  21246335.9664
        27.7504         27.0004
  22640596.6924   11502336.89747   8953248.35446                  22640606.6344
        22.0004         18.7504
  21095760.6064   -5852306.12048  -4560235.55647                  21095769.0954
        31.2504         28.0004
 00  5  1 20  8  0.0010000  0  6G 5G 6G17G10G24G30
  21365493.7944    5412996.23947   4217909.89246                  21365503.8884
        25.5004         25.5004
  22597489.2084   -8273505.07547  -4542520.36746                  22597499.3254
        23.2504         21.0004
  23998148.5054   -6586978.82046  -4982614.31946                  23998166.3104
        12.5004         12.2504
  21247361.1384   -4803519.40747  -3710385.89347                  21247370.5404
        27.5004         27.0004
  22648598.7164   11544386.58047   8986014.32546                  22648608.7164
        22.2504         19.0004
  21095739.4114   -5852416.01748  -4560321.19847                  21095747.9234
        31.2504         28.0004
 00  5  1 20  8 15.0010000  0  6G 5G 6G17G10G24G30
  21372381.5364    5449190.83547   4246113.41446                  21372391.7474
        25.7504         25.5004
  22592469.5754   -8299882.25247  -4563073.96946                  22592479.5284
        22.2504         21.2504
  23992168.9274   -6618402.39846  -5007100.10546                  23992185.9934
        12.7504         12.5004
  21248423.9034   -4797935.58147  -3706034.84247                  21248433.3884
        27.0004         26.5004
  22656603.4194   11586453.98247   9018794.09746                  22656613.2784
        22.0004         18.5004
  21095746.7864   -5852377.37748  -4560291.09847                  21095755.2864
        31.2504         28.0004
 00  5  1 20  8 30.0010000  0  6G 5G 6G17G10G24G30
  21379290.8024    5485500.34647   4274406.48746                  21379301.1424
        26.0004         25.2504
  22587453.4974   -8326243.01847  -4583614.77646                  22587464.0714
        21.7504         21.2504
  23986198.5914   -6649777.19346  -5031547.85246                  23986216.1144
        13.0004         12.7504
  21249514.7784   -4792201.72447  -3701566.88547                  21249524.2164
        27.5004         26.7504
  22664612.1614   11628538.09547   9051586.89746                  22664621.9744
        22.5004         18.5004
  21095782.2714   -5852191.64248  -4560146.38147                  21095791.0174
        30.7504         27.7504
 00  5  1 20  8 45.0010000  0  6G 5G 6G17G10G24G30
  21386221.7554    5521921.77747   4302786.76646                  21386232.0954
        25.7504         25.5004
  22582439.5994   -8352590.94147  -4604145.58946                  22582450.3844
        22.0004         21.0004
  23980236.6614   -6681105.83646  -5055959.63146                  23980254.0444
        13.0004         13.0004
  21250633.8884   -4786320.87547  -3696984.39247                  21250643.2084
        27.5004         26.7504
  22672622.5994   11670633.37947   9084388.40546                  22672632.5404
        22.2504         18.7504
  21095844.9114   -5851861.98248  -4559889.51647                  21095853.8334
        30.7504         28.0004
 00  5  1 20  9  0.0010000  0  6G 5G 6G17G10G24G30
  21393174.9274    5558460.84447   4331258.70446                  21393185.3494
        25.5004         25.5004
  22577429.4974   -8378919.23447  -4624661.10346                  22577439.6264
        23.0004         21.2504
  23974285.0134   -6712382.28546  -5080330.75246                  23974302.8994
        13.0004         12.7504
  21251782.2864   -4780286.35047  -3692282.15447                  21251791.5604
        27.5004         26.5004
  22680636.3334   11712746.92947   9117204.13446                  22680646.4744
        22.2504         18.7504
  21095936.6854   -5851380.26148  -4559514.15947                  21095945.7714
        30.7504         28.0004
 00  5  1 20  9 15.0010000  0  6G 5G 6G17G10G24G30
  21400148.8564    5595109.31847   4359815.90246                  21400159.3604
        25.2504         25.5004
  22572422.0994   -8405233.04147  -4645165.32746                  22572432.4154
        23.5004         21.5004
  23968341.8804   -6743615.06846  -5104667.84846                  23968359.2984
        13.0004         13.2504
  21252959.2634   -4774101.70247  -3687462.92747                  21252968.6184
        27.2504         26.7504
  22688652.8724   11754872.87647   9150029.53446                  22688662.8134
        22.7504         18.7504
  21096055.7474   -5850753.74048  -4559025.97747                  21096064.5994
        31.0004         28.0004
 00  5  1 20  9 30.0010000  0  6G 5G 6G17G10G24G30
  21407143.4584    5631864.94447   4388456.58746                  21407154.1494
        25.0004         25.2504
  22567417.4034   -8431533.08347  -4665658.82546                  22567427.6384
        22.7504         21.5004
  23962406.8884   -6774804.07946  -5128970.85046                  23962424.3994
        13.0004         13.0004
  21254165.5444   -4767762.29147  -3682523.11247                  21254174.8994
        27.7504         26.7504
  22696671.7314   11797011.71947   9182864.97946                  22696681.5794
        23.2504         18.5004
  21096202.6144   -5849981.55348  -4558424.28047                  21096211.3494
        30.7504         28.0004
 00  5  1 20  9 45.0010000  0  6G 5G 6G17G10G24G30
  21414158.6464    5668729.72347   4417182.32746                  21414169.1034
        25.0004         25.2504
  22562415.1464   -8457819.38247  -4686141.60646                  22562425.4854
        22.2504         21.5004
  23956480.4424   -6805946.15846  -5153237.24546                  23956497.9314
        13.0004         13.2504
  21255402.1304   -4761264.11248  -3677459.58147                  21255411.4274
        28.0004         27.0004
  22704693.3644   11839166.63447   9215712.94946                  22704703.0834
        23.0004         18.2504
  21096377.4814   -5849063.52348  -4557708.94347                  21096386.1814
        30.5004         27.7504
 00  5  1 20 10  0.0010000  0  6G 5G 6G17G10G24G30
  21421193.9664    5705700.87447   4445990.95846                  21421204.3764
        25.2504         25.2504
  22557415.5134   -8484093.23747  -4706614.70146                  22557426.1464
        22.2504         21.5004
  23950562.4034   -6837044.30646  -5177469.43246                  23950580.6184
        12.5004         12.7504
  21256668.0054   -4754610.68148  -3672275.07247                  21256677.4194
        28.0004         26.7504
  22712718.0214   11881335.09247   9248571.47446                  22712727.7284
        22.7504         18.2504
  21096579.1464   -5848004.87648  -4556884.03747                  21096587.9034
        30.5004         28.0004
 00  5  1 20 10 15.0010000  0  6G 5G 6G17G10G24G30
  21428249.2004    5742776.48747   4474880.99146                  21428259.7394
        24.7504         25.2504
  22552418.0054   -8510353.68747  -4727077.35146                  22552428.3924
        22.7504         21.7504
  23944652.7004   -6868098.96946  -5201667.72746                  23944670.0954
        12.7504         13.0004
  21257963.3414   -4747804.09947  -3666971.22947                  21257972.4274
        27.7504         26.7504
  22720744.3334   11923513.63947   9281437.85346                  22720753.8064
        22.2504         18.5004
  21096806.6224   -5846809.11148  -4555952.28447                  21096815.3684
        30.7504         27.7504
 00  5  1 20 10 30.0010000  0  6G 5G 6G17G10G24G30
  21435324.4664    5779956.35247   4503852.25446                  21435334.9814
        25.0004         25.0004
  22547424.4504   -8536595.90947  -4747525.79946                  22547434.6494
        23.2504         21.7504
  23938751.7394   -6899107.42246  -5225830.04146                  23938769.8254
        12.7504         12.7504
  21259287.7004   -4740843.77648  -3661547.58447                  21259296.6694
        28.0004         27.0004
  22728772.9114   11965705.17247   9314314.34946                  22728782.8644
        22.0004         18.5004
  21097060.6854   -5845473.91548  -4554911.88247                  21097069.2314
        30.2504         27.7504
 00  5  1 20 10 45.0010000  0  6G 5G 6G17G10G24G30
  21442418.4974    5817236.13547   4532901.37346                  21442428.8134
        25.2504         25.0004
  22542433.1854   -8562823.55247  -4767962.87646                  22542443.2084
        23.2504         22.0004
  23932858.7084   -6930074.30346  -5249959.93446                  23932876.1964
        12.5004         12.2504
  21260641.1304   -4733732.58648  -3656006.38347                  21260650.0874
        28.0004         26.7504
  22736803.5994   12007906.65447   9347198.60646                  22736813.5404
        22.0004         18.2504
  21097340.4744   -5844002.22348  -4553765.12247                  21097349.1034
        30.7504         27.7504
 00  5  1 20 11  0.0010000  0  6G 5G 6G17G10G24G30
  21449532.2634    5854618.02647   4562030.06146                  21449542.5674
        25.2504         25.0004
  22537445.6224   -8589033.55747  -4788386.21246                  22537456.0674
        22.5004         22.0004
  23926974.4034   -6960997.58346  -5274055.86146                  23926992.2084
        12.5004         12.7504
  21262023.4114   -4726469.54448  -3650346.85747                  21262032.5564
        28.0004         27.0004
  22744837.0054   12050122.33447   9380093.91746                  22744846.6534
        21.7504         18.0004
  21097647.2004   -5842391.60848  -4552510.10147                  21097655.6884
        30.7504         27.7504
 00  5  1 20 11 15.0010000  0  6G 5G 6G17G10G24G30
  21456666.2634    5892107.01747   4591242.20546                  21456676.7554
        25.2504         25.2504
  22532462.5674   -8615219.78247  -4808791.02446                  22532472.9784
        22.7504         21.7504
  23921098.4354   -6991873.78346  -5298115.10046                  23921116.0174
        12.5004         13.0004
  21263435.1064   -4719049.51147  -3644564.99447                  21263444.4974
        27.7504         26.5004
  22752873.9584   12092356.62247   9413003.73446                  22752883.7244
        21.2504         17.7504
  21097980.4354   -5840640.39548  -4551145.52947                  21097989.0174
        30.5004         27.7504
 00  5  1 20 11 30.0010000  0  6G 5G 6G17G10G24G30
  21463819.1854    5929697.46047   4620533.39946                  21463829.5714
        25.5004         25.2504
  22527483.0444   -8641386.84347  -4829180.90746                  22527493.4194
        22.7504         21.7504
  23915231.4894   -7022706.10446  -5322140.14246                  23915249.5054
        12.5004         12.5004
  21264876.2944   -4711476.85948  -3638664.22047                  21264885.5444
        28.0004         26.5004
  22760913.2314   12134603.44947   9445923.31446                  22760923.0094
        21.0004         17.5004
  21098339.1534   -5838755.23048  -4549676.57947                  21098347.8994
        30.2504         27.7504
 00  5  1 20 11 45.0010000  0  6G 5G 6G17G10G24G30
  21470992.3564    5967391.33747   4649905.18346                  21471002.6734
        25.5004         25.5004
  22522507.6304   -8667534.14347  -4849555.38946                  22522517.5954
        23.2504         22.0004
  23909372.5524   -7053494.49046  -5346130.96846                  23909390.5564
        13.0004         12.5004
  21266345.4034   -4703754.86047  -3632647.06647                  21266354.4894
        27.7504         26.7504
  22768954.1464   12176859.88647   9478850.38546                  22768964.0284
        20.5004         17.5004
  21098723.0134   -5836738.06648  -4548104.77347                  21098731.6884
        30.2504         27.7504
 00  5  1 20 12  0.0010000  0  6G 5G 6G17G10G24G30
  21478186.4974    6005195.93947   4679363.25246                  21478196.8724
        25.5004         25.2504
  22517536.2244   -8693658.26747  -4869911.81346                  22517546.1654
        23.5004         21.7504
  23903522.2394   -7084236.10046  -5370085.33046                  23903539.3884
        13.2504         13.0004
  21267843.7864   -4695881.98847  -3626512.35147                  21267852.8374
        27.7504         26.7504
  22776997.6144   12219127.68947   9511786.31646                  22777007.5094
        20.2504         17.2504
  21099132.4194   -5834586.75048  -4546428.42547                  21099141.1774
        30.7504         28.0004
 00  5  1 20 12 15.0010000  0  6G 5G 6G17G10G24G30
  21485400.9354    6043108.15147   4708905.18046                  21485411.0404
        25.2504         25.0004
  22512568.2864   -8719764.56847  -4890254.34646                  22512578.2164
        23.5004         22.0004
  23897680.9974   -7114934.61146  -5394006.12146                  23897697.6534
        13.5004         13.0004
  21269369.3254   -4687864.26747  -3620264.76747                  21269378.4584
        27.2504         27.0004
  22785041.9744   12261401.79146   9544727.16146                  22785052.3844
        19.7504         17.2504
  21099567.0284   -5832303.21948  -4544649.06047                  21099575.8454
        30.5004         28.0004
 00  5  1 20 12 30.0010000  0  6G 5G 6G17G10G24G30
  21492636.2314    6081130.49647   4738532.92046                  21492646.6304
        25.0004         25.2504
  22507603.5364   -8745853.57347  -4910583.40046                  22507613.5954
        23.2504         21.7504
  23891847.8024   -7145586.98946  -5417890.95046                  23891864.8684
        13.5004         13.2504
  21270923.1064   -4679699.88547  -3613902.89447                  21270932.2164
        27.7504         26.7504
  22793088.3804   12303685.89247   9577675.78146                  22793098.3104
        20.0004         17.2504
  21100027.8104   -5829881.99748  -4542762.40047                  21100036.9194
        30.2504         28.0004
 00  5  1 20 12 45.0010000  0  6G 5G 6G17G10G24G30
  21499893.9504    6119269.24647   4768251.36546                  21499904.8064
        24.5004         25.2504
  22502642.4354   -8771924.73247  -4930898.55446                  22502652.2824
        23.5004         21.7504
  23886023.8254   -7176189.52046  -5441736.93946                  23886040.1884
        13.5004         13.0004
  21272505.4814   -4671384.97347  -3607423.72847                  21272514.4974
        27.7504         26.7504
  22801137.9274   12345985.49447   9610636.49046                  22801148.0564
        20.0004         17.5004
  21100515.7714   -5827316.99848  -4540763.71047                  21100524.7394
        30.2504         28.2504
 00  5  1 20 13  0.0010000  0  6G 5G 6G17G10G24G30
  21507173.2714    6157523.01747   4798059.43046                  21507184.3604
        24.5004         25.2504
  22497683.9584   -8797981.31047  -4951202.35046                  22497693.5954
        23.7504         21.7504
  23880210.0524   -7206740.70746  -5465542.92146                  23880225.8644
        14.2504         13.2504
  21274116.3644   -4662919.25347  -3600827.05947                  21274125.5914
        27.2504         26.7504
  22809189.6694   12388297.65747   9643606.98246                  22809199.8334
        20.0004         17.2504
  21101030.8964   -5824609.95948  -4538654.34247                  21101039.6654
        31.2504         28.0004
 00  5  1 20 13 15.0010000  0  6G 5G 6G17G10G24G30
  21514474.1924    6195889.15747   4827955.06046                  21514485.2474
        25.0004         25.2504
  22492728.0054   -8824026.55147  -4971497.29846                  22492737.5604
        24.2504         22.0004
  23874405.8414   -7237241.55346  -5489309.67546                  23874422.8494
        13.7504         13.2504
  21275755.2244   -4654305.71447  -3594115.19047                  21275764.3334
        27.2504         26.7504
  22817243.4744   12430620.55847   9676585.85046                  22817253.7434
        20.5004         17.5004
  21101572.5914   -5821763.40848  -4536436.25147                  21101581.3844
        30.5004         28.2504
 00  5  1 20 13 30.0010000  0  6G 5G 6G17G10G24G30
  21521797.1694    6234370.71047   4857940.62446                  21521808.1534
        25.0004         25.2504
  22487774.2164   -8850058.69247  -4991782.05146                  22487783.7354
        24.2504         22.0004
  23868612.0214   -7267687.74846  -5513033.85446                  23868628.5834
        13.5004         13.2504
  21277423.3024   -4645540.38347  -3587285.05247                  21277432.1774
        27.5004         26.5004
  22825300.1224   12472958.37647   9709576.33046                  22825310.2514
        20.5004         17.7504
  21102141.9194   -5818771.90748  -4534105.22247                  21102150.4314
        30.2504         28.2504
 00  5  1 20 13 45.0010000  0  6G 5G 6G17G10G24G30
  21529140.9114    6272962.87047   4888012.37746                  21529151.8134
        24.2504         25.0004
  22482822.4744   -8876079.28447  -5012057.79646                  22482832.0174
        24.0004         22.0004
  23862828.7864   -7298080.33646  -5536716.24146                  23862845.5834
        13.7504         13.2504
  21279119.5914   -4636625.91347  -3580338.71047                  21279128.5244
        27.5004         26.5004
  22833359.2084   12515308.16747   9742576.14846                  22833369.1964
        21.2504         17.5004
  21102739.3724   -5815633.44848  -4531659.68347                  21102748.0014
        30.5004         28.0004
 00  5  1 20 14  0.0010000  0  6G 5G 6G17G10G24G30
  21536506.1534    6311665.31147   4918170.06046                  21536517.2434
        24.2504         25.0004
  22477873.1614   -8902088.26147  -5032324.49246                  22477882.7394
        24.0004         22.0004
  23857055.1064   -7328420.30446  -5560357.64046                  23857071.6814
        13.5004         13.2504
  21280844.3104   -4627562.55347  -3573276.34047                  21280853.6184
        26.7504         26.5004
  22841420.3644   12557670.17847   9775585.49646                  22841430.4704
        20.7504         18.0004
  21103364.7004   -5812346.74848  -4529098.62747                  21103373.3994
        30.5004         28.2504
 00  5  1 20 14 15.0010000  0  6G 5G 6G17G10G24G30
  21543890.7784    6350472.71347   4948409.52646                  21543901.8804
        24.2504         24.7504
  22472925.5674   -8928087.34247  -5052583.47646                  22472935.2394
        24.2504         22.0004
  23851291.0674   -7358708.28446  -5583958.52846                  23851307.5834
        12.7504         13.2504
  21282597.2314   -4618350.68147  -3566098.24447                  21282606.7514
        27.0004         26.5004
  22849484.1464   12600045.26347   9808605.01746                  22849494.3684
        21.0004         17.7504
  21104018.5364   -5808910.76948  -4526421.25047                  21104027.2714
        30.7504         28.2504
 00  5  1 20 14 30.0010000  0  6G 5G 6G17G10G24G30
  21551295.9114    6389386.25547   4978731.70546                  21551306.8494
        25.0004         24.7504
  22467980.6924   -8954071.84347  -5072831.10246                  22467990.6924
        24.2504         22.2504
  23845538.0604   -7388941.27246  -5607516.56046                  23845555.8764
        12.5004         13.2504
  21284378.8564   -4608988.42647  -3558802.97347                  21284388.2474
        27.2504         26.5004
  22857551.1304   12642437.55747   9841637.95946                  22857560.9784
        21.2504         17.5004
  21104701.7004   -5805320.51748  -4523623.66147                  21104710.2244
        30.5004         27.7504
 00  5  1 20 14 45.0010000  0  6G 5G 6G17G10G24G30
  21558720.5134    6428402.13647   5009133.62746                  21558731.0054
        25.2504         24.7504
  22463039.0994   -8980041.12247  -5093066.87146                  22463048.8994
        24.2504         22.5004
  23839794.6224   -7419120.30246  -5631032.53646                  23839812.0054
        13.0004         13.2504
  21286188.6694   -4599477.53547  -3551391.88347                  21286197.9074
        26.7504         26.0004
  22865621.1854   12684845.33547   9874682.96246                  22865630.9384
        21.7504         17.7504
  21105413.3254   -5801579.92548  -4520708.92347                  21105421.9894
        30.0004         28.0004
 00  5  1 20 15  0.0010000  0  6G 5G 6G17G10G24G30
  21566164.0914    6467517.35347   5039612.95746                  21566174.6424
        25.5004         25.0004
  22458100.6304   -9005993.69747  -5113289.61046                  22458110.3254
        24.2504         22.2504
  23834062.0754   -7449246.73246  -5654507.55246                  23834078.6854
        13.0004         13.0004
  21288026.7784   -4589818.50747  -3543865.36047                  21288035.8994
        26.7504         26.0004
  22873693.5674   12727265.34947   9907737.49246                  22873703.3334
        21.5004         17.7504
  21106153.2634   -5797692.37048  -4517679.67147                  21106162.0674
        30.0004         27.7504
 00  5  1 20 15 15.0010000  0  6G 5G 6G17G10G24G30
  21573626.1464    6506731.35447   5070169.25646                  21573636.5324
        25.2504         24.7504
  22453165.4354   -9031926.90747  -5133497.26846                  22453175.2354
        24.2504         22.5004
  23828338.8024   -7479321.91846  -5677942.62846                  23828356.1034
        13.0004         13.2504
  21289893.2944   -4580010.43447  -3536222.70147                  21289902.6734
        26.7504         26.2504
  22881768.2864   12769698.83447   9940802.52546                  22881777.4544
        21.7504         17.7504
  21106921.0674   -5793657.59148  -4514535.69847                  21106930.0604
        30.2504         28.0004
 00  5  1 20 15 30.0010000  0  6G 5G 6G17G10G24G30
  21581107.7474    6546047.34347   5100805.02646                  21581118.0874
        25.0004         24.7504
  22448233.9894   -9057840.53347  -5153689.66346                  22448243.6614
        24.5004         22.0004
  23822624.6384   -7509347.85346  -5701339.31046                  23822642.4894
        13.2504         13.2504
  21291788.2714   -4570051.50947  -3528462.49347                  21291797.7204
        26.7504         26.2504
  22889845.8104   12812147.37047   9973879.28946                  22889855.4114
        21.7504         17.7504
  21107717.1694   -5789473.93248  -4511275.71747                  21107726.0444
        30.0004         28.0004
 00  5  1 20 15 45.0010000  0  6G 5G 6G17G10G24G30
  21588608.7474    6585465.00347   5131520.02046                  21588619.1104
        25.2504         24.5004
  22443306.9664   -9083733.01947  -5173865.59646                  22443316.6734
        24.7504         22.2504
  23816920.4974   -7539323.54646  -5724696.85746                  23816938.1384
        13.2504         13.5004
  21293712.1384   -4559941.26947  -3520584.37347                  21293721.5994
        27.2504         26.2504
  22897925.7474   12854608.01847  10006965.48946                  22897935.1734
        21.2504         17.5004
  21108542.1854   -5785138.65848  -4507897.59447                  21108551.1534
        30.2504         27.7504
 00  5  1 20 16  0.0010000  0  6G 5G 6G17G10G24G30
  21596128.9584    6624985.07347   5162314.81346                  21596139.4744
        25.2504         24.7504
  22438383.3564   -9109605.57847  -5194025.99746                  22438393.3334
        24.7504         22.5004
  23811225.4274   -7569251.63146  -5748017.28746                  23811242.5754
        13.5004         13.2504
  21295664.6694   -4549680.62347  -3512589.06447                  21295674.1064
        27.5004         26.2504
  22906007.4504   12897077.74447  10040058.76346                  22906016.6884
        21.0004         17.7504
  21109395.4744   -5780655.27048  -4504404.05847                  21109404.3604
        30.2504         27.5004
 00  5  1 20 16 15.0010000  0  6G 5G 6G17G10G24G30
  21603669.6924    6664610.83147   5193191.96346                  21603680.5014
        25.0004         24.5004
  22433463.6694   -9135460.14647  -5214172.37746                  22433473.5524
        24.5004         22.2504
  23805538.7944   -7599132.56046  -5771300.99446                  23805555.5214
        13.5004         13.5004
  21297645.7394   -4539270.68347  -3504477.41347                  21297654.9544
        27.2504         26.0004
  22914091.1384   12939557.67347  10073159.99046                  22914101.1264
        20.7504         17.5004
  21110276.3724   -5776025.46748  -4500796.43347                  21110285.0714
        30.2504         27.7504
 00  5  1 20 16 30.0010000  0  6G 5G 6G17G10G24G30
  21611230.5674    6704342.88547   5224151.93546                  21611241.3994
        24.7504         24.5004
  22428547.2864   -9161296.90347  -5234304.87946                  22428556.9814
        24.5004         22.7504
  23799861.5994   -7628966.85346  -5794548.35146                  23799878.4424
        14.0004         13.7504
  21299654.3964   -4528714.22748  -3496251.59447                  21299663.4234
        28.0004         26.2504
  22922176.8494   12982047.21447  10106268.69646                  22922186.0874
        20.5004         17.5004
  21111184.8494   -5771251.21648  -4497076.24747                  21111193.5484
        30.2504         27.7504
 00  5  1 20 16 45.0010000  0  6G 5G 6G17G10G24G30
  21618810.7004    6744177.19447   5255191.58246                  21618821.5674
        24.5004         24.5004
  22423633.2714   -9187119.08147  -5254426.02246                  22423642.7784
        24.5004         22.5004
  23794192.1774   -7658759.48546  -5817763.26546                  23794209.0094
        14.0004         13.5004
  21301690.4664   -4518015.06948  -3487914.58947                  21301699.5634
        28.0004         26.2504
  22930262.9664   13024540.53447  10139380.35746                  22930272.4504
        20.5004         17.2504
  21112119.8174   -5766338.66648  -4493248.30447                  21112128.5174
        30.7504         27.7504
 00  5  1 20 17  0.0010000  0  6G 5G 6G17G10G24G30
  21626410.9814    6784116.97347   5286313.41646                  21626422.2004
        24.2504         24.5004
  22418722.4894   -9212925.04447  -5274534.52646                  22418732.0914
        24.5004         22.2504
  23788531.1304   -7688508.68146  -5840944.31046                  23788547.8334
        13.7504         13.0004
  21303754.4814   -4507168.74347  -3479462.89647                  21303763.5794
        27.7504         26.2504
  22938349.8414   13067037.82247  10172495.10046                  22938359.5484
        20.5004         17.2504
  21113081.2784   -5761286.64348  -4489311.67347                  21113089.7904
        30.5004         27.7504
 00  5  1 20 17 15.0010000  0  6G 5G 6G17G10G24G30
  21634032.2314    6824166.75447   5317520.96146                  21634043.3214
        24.5004         25.0004
  22413814.7084   -9238714.46347  -5294630.14346                  22413824.0754
        24.2504         22.2504
  23782878.3884   -7718212.28246  -5864089.84846                  23782895.1264
        14.0004         13.7504
  21305847.2164   -4496171.93748  -3470893.95147                  21305856.2674
        28.0004         26.2504
  22946438.0214   13109540.79147  10205614.28246                  22946447.8804
        20.0004         17.0004
  21114069.9664   -5756089.94848  -4485262.31447                  21114078.5244
        30.5004         27.7504
 00  5  1 20 17 30.0010000  0  6G 5G 6G17G10G24G30
  21641675.1304    6864328.85447   5348816.03046                  21641686.1734
        25.0004         24.7504
  22408910.2554   -9264488.23547  -5314713.56346                  22408919.9504
        24.2504         22.5004
  23777235.3334   -7747868.19746  -5887198.21146                  23777251.8604
        14.2504         14.0004
  21307968.4114   -4485024.65848  -3462207.75047                  21307977.5564
        28.0004         26.5004
  22954527.2394   13152049.34746  10238737.81646                  22954537.7204
        19.7504         17.2504
  21115086.8174   -5750746.40648  -4481098.52747                  21115095.3414
        30.5004         27.5004
 00  5  1 20 17 45.0010000  0  6G 5G 6G17G10G24G30
  21649339.2864    6904603.25947   5380198.61546                  21649350.1654
        25.2504         25.0004
  22404009.5054   -9290242.62647  -5334781.88246                  22404019.2244
        24.0004         22.7504
  23771601.8254   -7777471.43246  -5910265.52046                  23771617.8254
        14.2504         14.0004
  21310118.8024   -4473724.61147  -3453402.51447                  21310127.7714
        27.7504         26.2504
  22962617.0754   13194562.50246  10271864.91846                  22962627.4034
        19.5004         16.7504
  21116132.2164   -5745253.43948  -4476818.30647                  21116140.8454
        30.5004         27.7504
 00  5  1 20 18  0.0010000  0  6G 5G 6G17G10G24G30
  21657023.6304    6944984.51847   5411664.46246                  21657034.5324
        25.5004         25.0004
  22399111.6924   -9315978.78347  -5354835.99346                  22399121.6574
        24.2504         22.7504
  23765977.6854   -7807024.99546  -5933294.13546                  23765994.1534
        14.2504         14.0004
  21312297.0444   -4462277.08247  -3444482.35347                  21312306.1304
        27.5004         26.2504
  22970707.5134   13237077.65846  10304993.60046                  22970718.0174
        19.5004         16.5004
  21117204.9194   -5739616.00848  -4472425.51747                  21117213.4784
        30.2504         27.7504
 00  5  1 20 18 15.0010000  0  6G 5G 6G17G10G24G30
  21664728.0674    6985471.51447   5443212.70546                  21664739.0634
        25.5004         25.0004
  22394218.0054   -9341695.78847  -5374875.18046                  22394227.7824
        24.2504         22.5004
  23760363.0604   -7836530.05546  -5956284.94746                  23760379.0954
        14.7504         14.0004
  21314503.6534   -4450681.50247  -3435446.82947                  21314512.6574
        27.5004         26.0004
  22978798.5524   13279596.26546  10338124.96746                  22978809.1384
        19.5004         16.5004
  21118304.5284   -5733836.50648  -4467922.02247                  21118313.1574
        30.0004         27.5004
 00  5  1 20 18 30.0010000  0  6G 5G 6G17G10G24G30
  21672451.3644    7026058.41447   5474838.78846                  21672462.2084
        25.2504         24.7504
  22389327.6614   -9367395.38647  -5394900.79846                  22389337.5214
        23.7504         22.5004
  23754757.0834   -7865988.24846  -5979239.25946                  23754772.9194
        14.5004         14.0004
  21316737.8964   -4438940.51747  -3426297.99947                  21316747.0994
        27.2504         26.2504
  22986889.6774   13322115.88146  10371257.11246                  22986900.2164
        19.2504         16.5004
  21119430.9504   -5727917.88848  -4463310.12547                  21119439.7314
        30.0004         27.7504
 00  5  1 20 18 45.0010000  0  6G 5G 6G17G10G24G30
  21680194.6064    7066747.44147   5506544.45646                  21680205.2864
        25.2504         24.5004
  22384441.6064   -9393070.82047  -5414907.59246                  22384451.3964
        24.5004         22.7504
  23749161.3254   -7895393.12546  -6002152.01346                  23749176.8804
        14.5004         14.2504
  21319001.0054   -4427046.81847  -3417030.17747                  21319010.1734
        27.0004         26.2504
  22994982.1304   13364641.13046  10404393.64746                  22994992.3174
        18.7504         16.2504
  21120584.8334   -5721852.90448  -4458584.17947                  21120593.7554
        29.7504         27.5004
 00  5  1 20 19  0.0010000  0  6G 5G 6G17G10G24G30
  21687955.8414    7107534.67747   5538326.64746                  21687966.7084
        25.2504         24.2504
  22379559.6144   -9418726.25247  -5434898.80546                  22379569.1924
        24.2504         22.5004
  23743575.5214   -7924747.40046  -6025025.32346                  23743592.2594
        14.2504         14.2504
  21321293.0914   -4415002.43947  -3407644.94047                  21321302.5404
        26.7504         26.2504
  23003074.7474   13407169.24646  10437532.42646                  23003084.6064
        19.5004         16.0004
  21121766.6064   -5715643.74648  -4453745.89147                  21121775.4704
        29.7504         27.5004
 00  5  1 20 19 15.0010000  0  6G 5G 6G17G10G24G30
  21695736.4424    7148421.83047   5570186.70246                  21695747.1814
        25.0004         24.2504
  22374681.6854   -9444359.88447  -5454873.02146                  22374691.2164
        24.7504         22.5004
  23738000.1144   -7954047.26346  -6047856.25246                  23738015.6694
        14.2504         14.0004
  21323614.1064   -4402804.65647  -3398140.16247                  21323623.4274
        26.7504         26.2504
  23011169.0914   13449704.31146  10470676.61646                  23011179.1964
        19.2504         15.7504
  21122976.5214   -5709286.26648  -4448792.02847                  21122985.5954
        29.7504         27.7504
 00  5  1 20 19 30.0010000  0  6G 5G 6G17G10G24G30
  21703535.3644    7189404.66547   5602121.31846                  21703546.2784
        24.5004         24.0004
  22369807.6144   -9469972.86147  -5474831.14346                  22369817.4744
        24.7504         23.2504
  23732433.4894   -7983296.51846  -6070647.73046                  23732449.7354
        14.2504         14.2504
  21325964.3104   -4390455.20347  -3388517.20347                  21325973.5014
        26.5004         26.0004
  23019264.9114   13492247.60346  10503827.22246                  23019274.8414
        19.5004         16.2504
  21124214.1384   -5702782.52048  -4443724.19047                  21124223.2944
        29.7504         27.7504
 00  5  1 20 19 45.0010000  0  6G 5G 6G17G10G24G30
  21711351.9664    7230481.22047   5634128.94546                  21711363.1384
        23.7504         23.5004
  22364938.1304   -9495561.27447  -5494770.12546                  22364948.0014
        24.5004         23.0004
  23726877.0134   -8012496.65746  -6093400.96046                  23726893.2354
        14.2504         14.2504
  21328343.0834   -4377953.86747  -3378775.89547                  21328352.1224
        27.0004         26.0004
  23027362.0834   13534800.09746  10536984.97846                  23027372.1884
        19.2504         16.2504
  21125479.4664   -5696133.09448  -4438542.83547                  21125488.4464
        30.0004         27.7504
 00  5  1 20 20  0.0010000  0  6G 5G 6G17G10G24G30
  21719186.0914    7271649.68147   5666208.19546                  21719197.1814
        23.5004         23.5004
  22360073.9194   -9521123.59047  -5514688.78046                  22360083.8024
        24.7504         23.0004
  23721329.6854   -8041648.21346  -6116116.33346                  23721345.6264
        14.5004         14.5004
  21330750.8964   -4365300.61447  -3368916.20947                  21330759.9704
        26.7504         26.0004
  23035462.1224   13577363.19446  10570151.01546                  23035472.0404
        19.7504         16.2504
  21126772.2244   -5689340.12848  -4433249.63047                  21126781.0874
        30.0004         28.0004
 00  5  1 20 20 15.0010000  0  6G 5G 6G17G10G24G30
  21727037.9584    7312911.74247   5698360.38346                  21727048.9544
        23.5004         23.0004
  22355214.4504   -9546660.33847  -5534587.50046                  22355224.6734
        24.7504         23.2504
  23715791.2084   -8070751.14646  -6138793.80146                  23715807.8174
        14.2504         14.2504
  21333187.7164   -4352495.17247  -3358937.94047                  21333197.0014
        26.7504         26.0004
  23043563.9354   13619939.23246  10603327.13646                  23043574.3924
        19.7504         16.2504
  21128092.3884   -5682403.31348  -4427844.33547                  21128101.2394
        30.0004         27.7504
 00  5  1 20 20 30.0010000  0  6G 5G 6G17G10G24G30
  21734907.5364    7354266.31147   5730584.65346                  21734918.6494
        23.7504         23.5004
  22350359.3494   -9572173.80247  -5554468.08146                  22350369.1964
        24.7504         23.2504
  23710262.1774   -8099806.74546  -6161434.39846                  23710278.3174
        14.5004         14.2504
  21335653.4114   -4339538.10247  -3348841.50847                  21335662.7434
        27.2504         26.0004
  23051668.0284   13662524.91646  10636510.77346                  23051677.9704
        19.5004         16.2504
  21129439.9974   -5675321.73448  -4422326.24147                  21129448.9194
        30.0004         27.7504
 00  5  1 20 20 45.0010000  0  6G 5G 6G17G10G24G30
  21742796.2314    7395720.61347   5762886.63546                  21742807.4974
        23.5004         23.7504
  22345509.7714   -9597658.63147  -5574326.34646                  22345519.4314
        25.2504         23.5004
  23704743.3254   -8128807.78246  -6184032.47846                  23704760.3214
        14.5004         14.2504
  21338148.9354   -4326424.20247  -3338622.87547                  21338158.0674
        27.2504         26.2504
  23059774.7244   13705126.70547  10669706.95446                  23059784.2204
        20.2504         16.2504
  21130816.4974   -5668087.94748  -4416689.54047                  21130825.3254
        29.5004         27.5004
 00  5  1 20 21  0.0010000  0  6G 5G 6G17G10G24G30
  21750703.6614    7437274.55747   5795266.25546                  21750715.0324
        23.5004         24.0004
  22340664.8334   -9623118.15447  -5594164.89246                  22340674.4234
        25.0004         23.2504
  23699234.6304   -8157757.10846  -6206590.26346                  23699251.1344
        14.7504         14.5004
  21340673.5674   -4313157.87147  -3328285.46447                  21340682.6654
        27.2504         26.0004
  23067883.4114   13747739.44947  10702911.68046                  23067893.0954
        20.2504         16.2504
  21132221.8024   -5660702.81748  -4410934.91147                  21132230.5604
        30.0004         27.5004
 00  5  1 20 21 15.0010000  0  6G 5G 6G17G10G24G30
  21758629.7244    7478926.06347   5827721.89946                  21758641.0364
        23.5004         24.2504
  22335824.4744   -9648553.93447  -5613984.93846                  22335834.3214
        24.7504         23.5004
  23693734.4974   -8186659.94146  -6229111.82246                  23693750.2044
        15.0004         14.5004
  21343226.1774   -4299742.43147  -3317831.86747                  21343235.3334
        27.2504         26.2504
  23075993.9974   13790359.53247  10736122.10646                  23076003.4934
        20.2504         16.5004
  21133655.1534   -5653171.04448  -4405066.01647                  21133663.8994
        30.0004         27.5004
 00  5  1 20 21 30.0010000  0  6G 5G 6G17G10G24G30
  21766574.3564    7520675.86147   5860254.13846                  21766585.8684
        23.7504         24.2504
  22330989.0674   -9673962.81947  -5633784.03046                  22330998.9974
        25.0004         23.5004
  23688242.9504   -8215516.38546  -6251597.23146                  23688259.2434
        14.7504         14.5004
  21345807.5834   -4286177.69947  -3307261.93447                  21345816.6924
        27.0004         26.2504
  23084105.3644   13832986.12446  10769337.62546                  23084115.5524
        19.7504         16.5004
  21135116.0214   -5645494.01848  -4399083.92947                  21135124.6734
        29.7504         27.5004
 00  5  1 20 21 45.0010000  0  6G 5G 6G17G10G24G30
  21774537.8414    7562522.97947   5892862.20646                  21774549.1304
        24.2504         24.2504
  22326159.1774   -9699345.32547  -5653562.57046                  22326169.0484
        25.2504         23.7504
  23682759.9584   -8244329.50146  -6274048.88446                  23682776.4624
        14.2504         15.0004
  21348416.3494   -4272468.14647  -3296579.15647                  21348425.4464
        26.7504         26.0004
  23092217.0134   13875612.76246  10802553.16146                  23092226.6614
        19.7504         16.5004
  21136603.6534   -5637676.38748  -4392992.28747                  21136612.3534
        30.0004         27.5004
